[[{"header":{"parameterUnit":"m.s-1","parameterCategory":1,"la1":30.6,"la2":28.766,"lo1":-90.7593,"lo2":-88.6598,"dy":0.0162,"dx":0.0183,"nx":116,"ny":114,"refTime":"2023-08-30T18:00:00:Z","depth":0,"parameterNumber":2,"parameterNumberName":"U-component_of_WINDS"},"data":[0.0,0.0,0.0,0.0,0.0,0.0,0.0,0.0,0.0,0.0,0.0,0.0,0.0,0.0,0.0,0.0,0.0,0.0,0.0,0.0,0.0,0.0,0.0,0.0,0.0,0.0,0.0,0.0,0.0,0.0,0.0,0.0,0.0,0.0,0.0,0.0,0.0,0.0,0.0,0.0,0.0,0.0,0.0,0.0,0.0,0.0,0.0,0.0,0.0,0.0,0.0,0.0,0.0,0.0,0.0,0.0,0.0,0.0,0.0,0.0,0.0,0.0,0.0,0.0,0.0,0.0,0.0,0.0,0.0,0.0,0.0,0.0,0.0,0.0,0.0,0.0,0.0,0.0,0.0,0.0,0.0,0.0,0.0,0.0,0.0,0.0,0.0,0.0,0.0,0.0,0.0,0.0,0.0,0.0,0.0,0.0,0.0,0.0,0.0,0.0,0.0,0.0,0.0,0.0,0.0,0.0,0.0,0.0,0.0,0.0,0.0,0.0,0.0,0.0,0.0,0.0,0.0,0.0,0.0,0.0,0.0,0.0,0.0,0.0,0.0,0.0,0.0,0.0,0.0,0.0,0.0,0.0,0.0,0.0,0.0,0.0,0.0,0.0,0.0,0.0,0.0,0.0,0.0,0.0,0.0,0.0,0.0,0.0,0.0,0.0,0.0,0.0,0.0,0.0,0.0,0.0,0.0,0.0,0.0,0.0,0.0,0.0,0.0,0.0,0.0,0.0,0.0,0.0,0.0,0.0,0.0,0.0,0.0,0.0,0.0,0.0,0.0,0.0,0.0,0.0,0.0,0.0,0.0,0.0,0.0,0.0,0.0,0.0,0.0,0.0,0.0,0.0,0.0,0.0,0.0,0.0,0.0,0.0,0.0,0.0,0.0,0.0,0.0,0.0,0.0,0.0,0.0,0.0,0.0,0.0,0.0,0.0,0.0,0.0,0.0,0.0,0.0,0.0,0.0,0.0,0.0,0.0,0.0,0.0,0.0,0.0,0.0,0.0,0.0,0.0,0.0,0.0,0.0,0.0,0.0,0.0,0.0,0.0,0.0,0.0,0.0,0.0,0.0,0.0,0.0,0.0,0.0,0.0,0.0,0.0,0.0,0.0,0.0,0.0,0.0,0.0,0.0,0.0,0.0,0.0,0.0,0.0,0.0,0.0,0.0,0.0,0.0,0.0,0.0,0.0,0.0,0.0,0.0,0.0,0.0,0.0,0.0,0.0,0.0,0.0,0.0,0.0,0.0,0.0,0.0,0.0,0.0,0.0,0.0,0.0,0.0,0.0,0.0,0.0,0.0,0.0,0.0,0.0,0.0,0.0,0.0,0.0,0.0,0.0,0.0,0.0,0.0,0.0,0.0,0.0,0.0,0.0,0.0,0.0,0.0,0.0,0.0,0.0,0.0,0.0,0.0,0.0,0.0,0.0,0.0,0.0,0.0,0.0,0.0,0.0,0.0,0.0,0.0,0.0,0.0,0.0,0.0,0.0,0.0,0.0,0.0,0.0,0.0,0.0,0.0,0.0,0.0,0.0,0.0,0.0,0.0,0.0,0.0,0.0,0.0,0.0,0.0,0.0,0.0,0.0,0.0,0.0,0.0,0.0,0.0,0.0,0.0,0.0,0.0,0.0,0.0,0.0,0.0,0.0,0.0,0.0,0.0,0.0,0.0,0.0,0.0,0.0,0.0,0.0,0.0,0.0,0.0,0.0,0.0,0.0,0.0,0.0,0.0,0.0,0.0,0.0,0.0,0.0,0.0,0.0,0.0,0.0,0.0,0.0,0.0,0.0,0.0,0.0,0.0,0.0,0.0,0.0,0.0,0.0,0.0,0.0,0.0,0.0,0.0,0.0,0.0,0.0,0.0,0.0,0.0,0.0,0.0,0.0,0.0,0.0,0.0,0.0,0.0,0.0,0.0,0.0,0.0,0.0,0.0,0.0,0.0,0.0,0.0,0.0,0.0,0.0,0.0,0.0,0.0,0.0,0.0,0.0,0.0,0.0,0.0,0.0,0.0,0.0,0.0,0.0,0.0,0.0,0.0,0.0,0.0,0.0,0.0,0.0,0.0,0.0,0.0,0.0,0.0,0.0,0.0,0.0,0.0,0.0,0.0,0.0,0.0,0.0,0.0,0.0,0.0,0.0,0.0,0.0,0.0,0.0,0.0,0.0,0.0,0.0,0.0,0.0,0.0,0.0,0.0,0.0,0.0,0.0,0.0,0.0,0.0,0.0,0.0,0.0,0.0,0.0,0.0,0.0,0.0,0.0,0.0,0.0,0.0,0.0,0.0,0.0,0.0,0.0,0.0,0.0,0.0,0.0,0.0,0.0,0.0,0.0,0.0,0.0,0.0,0.0,0.0,0.0,0.0,0.0,0.0,0.0,0.0,0.0,0.0,0.0,0.0,0.0,0.0,0.0,0.0,0.0,0.0,0.0,0.0,0.0,0.0,0.0,0.0,0.0,0.0,0.0,0.0,0.0,0.0,0.0,0.0,0.0,0.0,0.0,0.0,0.0,0.0,0.0,0.0,0.0,0.0,0.0,0.0,0.0,0.0,0.0,0.0,0.0,0.0,0.0,0.0,0.0,0.0,0.0,0.0,0.0,0.0,0.0,0.0,0.0,0.0,0.0,0.0,0.0,0.0,0.0,0.0,0.0,0.0,0.0,0.0,0.0,0.0,0.0,0.0,0.0,0.0,0.0,0.0,0.0,0.0,0.0,0.0,0.0,0.0,0.0,0.0,0.0,0.0,0.0,0.0,0.0,0.0,0.0,0.0,0.0,0.0,0.0,0.0,0.0,0.0,0.0,0.0,0.0,0.0,0.0,0.0,0.0,0.0,0.0,0.0,0.0,0.0,0.0,0.0,0.0,0.0,0.0,0.0,0.0,0.0,0.0,0.0,0.0,0.0,0.0,0.0,0.0,0.0,0.0,0.0,0.0,0.0,0.0,0.0,0.0,0.0,0.0,0.0,0.0,0.0,0.0,0.0,0.0,0.0,0.0,0.0,0.0,0.0,0.0,0.0,0.0,0.0,0.0,0.0,0.0,0.0,0.0,0.0,0.0,0.0,0.0,0.0,0.0,0.0,0.0,0.0,0.0,0.0,0.0,0.0,0.0,0.0,0.0,0.0,0.0,0.0,0.0,0.0,0.0,0.0,0.0,0.0,0.0,0.0,0.0,0.0,0.0,0.0,0.0,0.0,0.0,0.0,0.0,0.0,0.0,0.0,0.0,0.0,0.0,0.0,0.0,0.0,0.0,0.0,0.0,0.0,0.0,0.0,0.0,0.0,0.0,0.0,0.0,0.0,0.0,0.0,0.0,0.0,0.0,0.0,0.0,0.0,0.0,0.0,0.0,0.0,0.0,0.0,0.0,0.0,0.0,0.0,0.0,0.0,0.0,0.0,0.0,0.0,0.0,0.0,0.0,0.0,0.0,0.0,0.0,0.0,0.0,0.0,0.0,0.0,0.0,0.0,0.0,0.0,0.0,0.0,0.0,0.0,0.0,0.0,0.0,0.0,0.0,0.0,0.0,0.0,0.0,0.0,0.0,0.0,0.0,0.0,0.0,0.0,0.0,0.0,0.0,0.0,0.0,0.0,0.0,0.0,0.0,0.0,0.0,0.0,0.0,0.0,0.0,0.0,0.0,0.0,0.0,0.0,0.0,0.0,0.0,0.0,0.0,0.0,0.0,0.0,0.0,0.0,0.0,0.0,0.0,0.0,0.0,0.0,0.0,0.0,0.0,0.0,0.0,0.0,0.0,0.0,0.0,0.0,0.0,0.0,0.0,0.0,0.0,0.0,0.0,0.0,0.0,0.0,0.0,0.0,0.0,0.0,0.0,0.0,0.0,0.0,0.0,0.0,0.0,0.0,0.0,0.0,0.0,0.0,0.0,0.0,0.0,0.0,0.0,0.0,0.0,0.0,0.0,0.0,0.0,0.0,0.0,0.0,0.0,0.0,0.0,0.0,0.0,0.0,0.0,0.0,0.0,0.0,0.0,0.0,0.0,0.0,0.0,0.0,0.0,0.0,0.0,0.0,0.0,0.0,0.0,0.0,0.0,0.0,0.0,0.0,0.0,0.0,0.0,0.0,0.0,0.0,0.0,0.0,0.0,0.0,0.0,0.0,0.0,0.0,0.0,0.0,0.0,0.0,0.0,0.0,0.0,0.0,0.0,0.0,0.0,0.0,0.0,0.0,0.0,0.0,0.0,0.0,0.0,0.0,0.0,0.0,0.0,0.0,0.0,0.0,0.0,0.0,0.0,0.0,0.0,0.0,0.0,0.0,0.0,0.0,0.0,0.0,0.0,0.0,0.0,0.0,0.0,0.0,0.0,0.0,0.0,0.0,0.0,0.0,0.0,0.0,0.0,0.0,0.0,0.0,0.0,0.0,0.0,0.0,0.0,0.0,0.0,0.0,0.0,0.0,0.0,0.0,0.0,0.0,0.0,0.0,0.0,0.0,0.0,0.0,0.0,0.0,0.0,0.0,0.0,0.0,0.0,0.0,0.0,0.0,0.0,0.0,0.0,0.0,0.0,0.0,0.0,0.0,0.0,0.0,0.0,0.0,0.0,0.0,0.0,0.0,0.0,0.0,0.0,0.0,0.0,0.0,0.0,0.0,0.0,0.0,0.0,0.0,0.0,0.0,0.0,0.0,0.0,0.0,0.0,0.0,0.0,0.0,0.0,0.0,0.0,0.0,0.0,0.0,0.0,0.0,0.0,0.0,0.0,0.0,0.0,0.0,0.0,0.0,0.0,0.0,0.0,0.0,0.0,0.0,0.0,0.0,0.0,0.0,0.0,0.0,0.0,0.0,0.0,0.0,0.0,0.0,0.0,0.0,0.0,0.0,0.0,0.0,0.0,0.0,0.0,0.0,0.0,0.0,0.0,0.0,0.0,0.0,0.0,0.0,0.0,0.0,0.0,0.0,0.0,0.0,0.0,0.0,0.0,0.0,0.0,0.0,0.0,0.0,0.0,0.0,0.0,0.0,0.0,0.0,0.0,0.0,0.0,0.0,0.0,0.0,0.0,0.0,0.0,0.0,0.0,0.0,0.0,0.0,0.0,0.0,0.0,0.0,0.0,0.0,0.0,0.0,0.0,0.0,0.0,0.0,0.0,0.0,0.0,0.0,0.0,0.0,0.0,0.0,0.0,0.0,0.0,0.0,0.0,0.0,0.0,0.0,0.0,0.0,0.0,0.0,0.0,0.0,0.0,0.0,0.0,0.0,0.0,0.0,0.0,0.0,0.0,0.0,0.0,0.0,0.0,0.0,0.0,0.0,0.0,0.0,0.0,0.0,0.0,0.0,0.0,0.0,0.0,0.0,0.0,0.0,0.0,0.0,0.0,0.0,0.0,0.0,0.0,0.0,0.0,0.0,0.0,0.0,0.0,0.0,0.0,0.0,0.0,0.0,0.0,0.0,0.0,0.0,0.0,0.0,0.0,0.0,0.0,0.0,0.0,0.0,0.0,0.0,0.0,0.0,0.0,0.0,0.0,0.0,0.0,0.0,0.0,0.0,0.0,0.0,0.0,0.0,0.0,0.0,0.0,0.0,0.0,0.0,0.0,0.0,0.0,0.0,0.0,0.0,0.0,0.0,0.0,0.0,0.0,0.0,0.0,0.0,0.0,0.0,0.0,0.0,0.0,0.0,0.0,0.0,0.0,0.0,0.0,0.0,0.0,0.0,0.0,0.0,0.0,0.0,0.0,0.0,0.0,0.0,0.0,0.0,0.0,0.0,0.0,0.0,0.0,0.0,0.0,0.0,0.0,0.0,0.0,0.0,0.0,0.0,0.0,0.0,0.0,0.0,0.0,0.0,0.0,0.0,0.0,0.0,0.0,0.0,0.0,0.0,0.0,0.0,0.0,0.0,0.0,0.0,0.0,0.0,0.0,0.0,0.0,0.0,0.0,0.0,0.0,0.0,0.0,0.0,0.0,0.0,0.0,0.0,0.0,0.0,0.0,0.0,0.0,0.0,0.0,0.0,0.0,0.0,0.0,0.0,0.0,0.0,0.0,0.0,0.0,0.0,0.0,0.0,0.0,0.0,0.0,0.0,0.0,0.0,0.0,0.0,0.0,0.0,0.0,3.7315,0.0,0.0,0.0,0.0,0.0,0.0,0.0,0.0,0.0,0.0,0.0,0.0,0.0,0.0,0.0,0.0,0.0,0.0,0.0,0.0,0.0,0.0,0.0,0.0,0.0,0.0,0.0,0.0,0.0,0.0,0.0,0.0,0.0,0.0,0.0,0.0,0.0,0.0,3.92,3.921,3.9432,3.9865,4.1243,4.0878,3.9101,0.0,0.0,0.0,0.0,0.0,0.0,0.0,0.0,0.0,0.0,0.0,0.0,0.0,0.0,0.0,0.0,0.0,0.0,0.0,0.0,0.0,0.0,0.0,0.0,0.0,0.0,0.0,0.0,0.0,0.0,0.0,0.0,0.0,0.0,0.0,0.0,0.0,0.0,0.0,0.0,0.0,0.0,0.0,0.0,0.0,0.0,0.0,0.0,0.0,0.0,0.0,0.0,0.0,0.0,0.0,0.0,0.0,0.0,0.0,0.0,0.0,0.0,0.0,0.0,0.0,0.0,0.0,0.0,0.0,0.0,0.0,3.8296,0.0,0.0,0.0,0.0,0.0,0.0,0.0,0.0,0.0,0.0,0.0,0.0,0.0,0.0,0.0,0.0,0.0,0.0,0.0,0.0,0.0,0.0,0.0,4.1916,4.3611,4.524,4.5374,4.5432,0.0,0.0,0.0,0.0,0.0,0.0,4.1074,4.1728,4.1559,4.0489,4.0489,4.102,4.2067,4.2803,4.1485,3.8576,4.0682,0.0,0.0,0.0,0.0,0.0,0.0,0.0,0.0,0.0,0.0,0.0,0.0,0.0,0.0,0.0,0.0,0.0,0.0,0.0,0.0,0.0,0.0,0.0,0.0,0.0,0.0,0.0,0.0,0.0,0.0,0.0,0.0,0.0,0.0,0.0,0.0,0.0,0.0,0.0,0.0,0.0,0.0,0.0,0.0,0.0,0.0,0.0,0.0,0.0,0.0,0.0,0.0,0.0,0.0,0.0,0.0,0.0,0.0,0.0,0.0,0.0,0.0,0.0,4.1846,4.1901,4.1797,4.0933,4.0896,4.1461,4.1366,4.092,4.0221,3.8824,0.0,0.0,0.0,0.0,0.0,0.0,0.0,0.0,0.0,0.0,0.0,0.0,0.0,0.0,0.0,0.0,0.0,0.0,0.0,0.0,0.0,4.013,4.2042,4.4282,4.4455,4.4799,4.5547,0.0,0.0,0.0,0.0,0.0,4.1917,4.2036,4.1559,4.0489,4.0489,4.1357,4.2996,4.2441,4.271,4.3608,4.34,4.3631,4.4045,0.0,0.0,0.0,0.0,0.0,0.0,0.0,0.0,0.0,0.0,0.0,0.0,0.0,0.0,0.0,0.0,0.0,0.0,0.0,0.0,0.0,0.0,0.0,0.0,0.0,0.0,0.0,0.0,0.0,0.0,0.0,0.0,0.0,0.0,0.0,0.0,0.0,0.0,0.0,0.0,0.0,3.4469,3.5167,0.0,0.0,0.0,0.0,0.0,0.0,0.0,0.0,0.0,0.0,0.0,0.0,0.0,4.179,4.2953,4.4671,4.516,4.4393,4.5257,4.5471,4.5052,4.4281,4.4158,4.4507,4.4499,0.0,3.9626,3.9403,0.0,0.0,0.0,0.0,0.0,0.0,0.0,0.0,0.0,0.0,0.0,0.0,0.0,0.0,0.0,0.0,0.0,0.0,0.0,0.0,0.0,3.9908,4.2431,4.4826,4.5486,4.5719,4.5605,4.4914,0.0,0.0,0.0,4.3105,4.2125,4.2572,4.2322,4.1232,4.2659,4.3778,4.4551,4.4727,4.5473,4.6667,4.6455,4.5774,4.4687,4.3007,0.0,0.0,0.0,0.0,0.0,0.0,0.0,0.0,0.0,0.0,0.0,0.0,0.0,0.0,0.0,0.0,0.0,0.0,0.0,0.0,0.0,0.0,0.0,0.0,0.0,0.0,0.0,0.0,0.0,0.0,0.0,0.0,0.0,0.0,0.0,0.0,0.0,0.0,0.0,3.2873,3.5018,3.4563,3.6116,3.6349,0.0,0.0,0.0,0.0,0.0,0.0,0.0,0.0,0.0,4.4233,4.6246,4.7185,4.6993,4.8603,4.8442,4.6491,4.6918,4.6813,4.6125,4.4471,4.4237,4.506,4.37,4.2701,4.1977,4.1345,4.0609,3.9807,0.0,0.0,0.0,0.0,3.7728,3.7207,0.0,0.0,0.0,0.0,0.0,0.0,0.0,0.0,0.0,0.0,0.0,0.0,3.7159,3.9915,4.2726,4.5375,4.6196,4.6279,4.5627,4.5201,4.4485,4.3442,4.3811,4.3441,4.2183,4.2742,4.2842,4.2444,4.4335,4.5586,4.6238,4.6724,4.7684,4.8911,4.8817,4.7745,4.5918,4.4609,4.2747,4.0579,0.0,0.0,0.0,0.0,0.0,0.0,0.0,0.0,0.0,0.0,0.0,0.0,0.0,0.0,0.0,0.0,0.0,0.0,0.0,0.0,0.0,0.0,0.0,0.0,0.0,0.0,0.0,0.0,0.0,0.0,0.0,0.0,0.0,0.0,0.0,0.0,0.0,3.4296,3.6212,3.5109,3.7416,3.8088,0.0,0.0,0.0,0.0,0.0,0.0,4.1921,4.4048,4.6353,4.8899,5.1276,5.201,5.0911,5.1683,5.0809,4.828,4.7753,4.6969,4.5956,4.3951,4.3529,4.4284,4.2501,4.233,4.3345,4.2282,4.1656,4.1249,4.0203,3.9907,3.9951,3.936,3.8503,3.7704,0.0,0.0,0.0,0.0,0.0,0.0,0.0,0.0,0.0,0.0,0.0,3.5454,3.7796,3.9663,4.2063,4.5315,4.5648,4.5649,4.5592,4.4105,4.3288,4.338,4.2656,4.2247,4.2298,4.2148,4.2771,4.4166,4.4301,4.5586,4.7966,4.7242,4.8202,5.0568,4.9856,4.9555,4.9375,4.6855,4.5176,4.3946,4.0656,0.0,0.0,0.0,0.0,0.0,0.0,0.0,0.0,0.0,0.0,0.0,0.0,0.0,0.0,0.0,0.0,0.0,0.0,0.0,0.0,0.0,0.0,0.0,0.0,0.0,0.0,0.0,0.0,0.0,0.0,0.0,0.0,0.0,0.0,0.0,0.0,0.0,0.0,3.932,4.2528,0.0,0.0,0.0,0.0,4.0864,4.2949,4.5003,4.6654,4.8381,5.0401,5.2821,5.3781,5.4245,5.4247,5.2939,5.1492,4.9837,4.7831,4.6001,4.4511,4.3647,4.2888,4.2156,4.2028,4.1902,4.1749,4.0989,4.1566,4.275,4.1244,4.0997,4.1407,4.0804,4.0034,3.9112,0.0,0.0,0.0,0.0,0.0,0.0,0.0,0.0,3.1058,3.0995,3.3455,3.595,3.788,4.1043,4.4165,4.6972,4.7223,4.6993,4.6472,4.4922,4.4068,4.4229,4.3473,4.3353,4.3953,4.3273,4.3415,4.4416,4.4991,4.5969,4.7313,4.7031,4.7953,4.9836,4.901,4.8536,4.8334,4.7478,4.5982,4.3917,4.0793,3.844,0.0,0.0,0.0,0.0,0.0,0.0,0.0,0.0,0.0,0.0,0.0,0.0,0.0,0.0,0.0,0.0,0.0,0.0,0.0,0.0,0.0,0.0,0.0,0.0,0.0,0.0,0.0,0.0,0.0,0.0,0.0,0.0,0.0,0.0,0.0,0.0,0.0,4.1594,4.4438,0.0,4.3045,4.4519,4.5418,4.4984,4.7317,4.9409,5.0927,5.244,5.3946,5.5482,5.6108,5.5603,5.3849,5.3268,5.1494,4.8643,4.7815,4.636,4.4344,4.3033,4.2316,4.1965,4.0889,4.1007,4.1763,4.0094,4.0504,4.2061,4.147,4.1479,4.1681,4.106,4.0002,3.8789,0.0,0.0,0.0,0.0,0.0,0.0,0.0,0.0,3.0717,3.1241,3.3679,3.6265,3.8642,4.2036,4.5092,4.7473,4.7684,4.7108,4.574,4.4388,4.3313,4.2606,4.2701,4.3183,4.4004,4.3927,4.4211,4.494,4.5522,4.618,4.6891,4.6914,4.7645,4.8933,4.8241,4.7818,4.7569,4.715,4.5707,4.3582,4.1317,3.9524,3.7947,0.0,0.0,0.0,0.0,0.0,0.0,0.0,0.0,0.0,0.0,0.0,0.0,0.0,0.0,0.0,0.0,0.0,0.0,0.0,0.0,0.0,0.0,0.0,0.0,0.0,0.0,0.0,0.0,0.0,0.0,0.0,0.0,0.0,0.0,4.0497,4.3697,4.3339,4.651,4.7899,4.5771,4.7887,4.9286,4.9169,5.1256,5.3115,5.4338,5.5287,5.6095,5.6785,5.6897,5.5824,5.3513,5.289,5.1049,4.7919,4.7598,4.6109,4.3578,4.2478,4.1674,4.1064,3.9985,4.0168,4.097,3.9004,3.8925,4.0138,4.01,4.0283,4.0493,3.9878,3.9035,3.8082,0.0,0.0,0.0,0.0,0.0,0.0,0.0,3.0417,3.0979,3.2663,3.4106,3.6394,4.0095,4.2527,4.4691,4.6743,4.6877,4.5841,4.3382,4.2345,4.0827,3.8593,4.0273,4.1641,4.2402,4.3984,4.5137,4.5801,4.5813,4.6161,4.687,4.6852,4.7293,4.8043,4.7684,4.753,4.7434,4.5918,4.4518,4.3224,4.2315,4.1304,4.0103,0.0,0.0,0.0,0.0,0.0,0.0,0.0,0.0,0.0,0.0,0.0,0.0,0.0,0.0,0.0,0.0,0.0,0.0,0.0,0.0,0.0,0.0,0.0,0.0,0.0,0.0,0.0,0.0,0.0,0.0,0.0,0.0,0.0,3.8542,4.2818,4.558,4.4791,4.8964,5.0791,4.7961,5.1361,5.36,5.3182,5.4668,5.5915,5.6703,5.6722,5.6722,5.674,5.6049,5.493,5.3369,5.1965,5.0066,4.7868,4.7107,4.5059,4.1997,4.1997,4.1028,3.9424,3.9337,3.9337,3.9292,3.7594,3.7009,3.7083,3.7042,3.7455,3.7855,3.7303,3.7227,3.7261,0.0,0.0,0.0,0.0,0.0,0.0,0.0,2.9944,3.0263,3.2343,3.5053,3.7789,4.042,4.3665,4.6106,4.7296,4.6528,4.5396,4.409,4.1587,4.0242,4.0429,4.209,4.3691,4.5176,4.5039,4.5293,4.6016,4.5922,4.595,4.6103,4.6007,4.641,4.7197,4.622,4.597,4.6188,4.492,4.4007,4.3332,4.1915,4.0909,4.0042,0.0,0.0,0.0,0.0,0.0,0.0,0.0,0.0,0.0,0.0,0.0,0.0,0.0,0.0,0.0,0.0,0.0,0.0,0.0,0.0,0.0,0.0,0.0,0.0,0.0,0.0,0.0,0.0,0.0,0.0,0.0,3.9086,4.1368,4.1399,4.4903,4.7853,4.8861,5.0806,5.1875,5.1382,5.2645,5.3225,5.2573,5.402,5.4988,5.5203,5.4683,5.4629,5.5203,5.392,5.2821,5.1909,5.0359,4.8741,4.709,4.5728,4.3978,4.1997,4.1346,4.0432,3.9337,3.8546,3.8708,3.9175,3.6325,3.4696,3.4057,3.4182,3.4361,3.4613,3.4435,3.5007,3.5717,0.0,0.0,0.0,0.0,0.0,0.0,0.0,3.0066,3.0398,3.2266,3.5295,3.7984,3.979,4.2697,4.468,4.5127,4.4455,4.3208,4.1308,3.9526,3.9141,4.0508,4.2558,4.4121,4.5156,4.5351,4.5664,4.6094,4.6027,4.5919,4.5796,4.5719,4.593,4.6313,4.5336,4.5043,4.5231,4.4226,4.3679,4.3406,4.2242,4.1535,4.1121,3.9815,3.8712,3.7733,3.6695,3.6595,3.6702,3.502,0.0,0.0,0.0,0.0,0.0,0.0,0.0,0.0,0.0,0.0,0.0,0.0,0.0,0.0,0.0,0.0,0.0,0.0,0.0,0.0,0.0,0.0,0.0,0.0,4.1582,4.396,4.5065,4.7379,4.9551,5.1246,5.1536,5.169,5.1891,5.2163,5.199,5.1185,5.2248,5.2986,5.2986,5.2941,5.2986,5.3053,5.2298,5.1532,5.0783,4.9556,4.8224,4.6786,4.5801,4.4119,4.1933,4.0892,3.9802,3.8708,3.7587,3.7496,3.7864,3.4989,3.3192,0.0,0.0,0.0,0.0,0.0,3.2778,3.3457,0.0,0.0,0.0,0.0,0.0,0.0,0.0,3.0432,3.0902,3.2401,3.5075,3.7361,3.8663,4.0632,4.1782,4.1625,4.156,4.0293,3.739,3.7375,3.8262,4.0059,4.2457,4.3781,4.3878,4.5331,4.6113,4.6113,4.6113,4.5991,4.5812,4.5791,4.5738,4.5566,4.4895,4.4602,4.4554,4.3789,4.3497,4.3442,4.2915,4.2642,4.2522,4.1661,4.0984,4.0238,3.8807,3.8482,3.8543,3.7435,0.0,0.0,0.0,0.0,0.0,0.0,0.0,0.0,0.0,0.0,0.0,0.0,0.0,0.0,0.0,0.0,0.0,0.0,0.0,0.0,0.0,0.0,0.0,0.0,4.3699,4.5993,4.8725,4.9728,5.0713,5.2141,5.1499,5.0814,5.0488,5.0571,5.0215,4.9181,4.9742,5.0193,5.0308,5.0933,0.0,0.0,0.0,5.0307,4.9457,4.8843,4.7861,4.6397,4.6118,4.4496,4.182,4.0456,3.9061,3.7753,3.654,3.6091,3.594,3.3595,3.1816,3.0456,2.9241,2.8222,2.7575,2.9377,3.0134,3.0371,0.0,0.0,0.0,0.0,0.0,0.0,0.0,3.0017,3.0417,3.2894,3.4819,3.6501,3.7928,3.9846,4.0842,4.0395,4.0005,3.959,3.911,3.9102,4.0254,4.2734,4.3946,4.4916,4.5606,4.5924,4.6152,4.6269,4.6152,4.6013,4.589,4.5829,4.5738,4.5566,4.4895,4.4602,4.4554,4.3789,4.3497,4.3442,4.2915,4.2422,4.1904,4.1256,4.0273,3.9295,3.8957,3.9157,3.9357,3.7807,3.7563,3.762,3.6474,3.4577,0.0,0.0,0.0,0.0,0.0,0.0,0.0,0.0,0.0,0.0,0.0,0.0,0.0,0.0,0.0,0.0,0.0,0.0,0.0,4.2557,4.5713,4.8324,4.9541,5.0307,5.0856,5.1147,5.1095,5.0506,4.9145,4.9106,4.8514,4.6913,4.6614,4.6925,4.7934,4.6628,4.6516,4.7948,4.7443,4.6825,4.6174,4.5956,4.5192,4.3815,0.0,0.0,4.0878,3.9075,3.8066,3.7677,3.5775,3.517,3.5297,3.1876,2.8703,2.5899,2.4724,2.4142,2.3941,2.4127,2.477,2.5495,0.0,0.0,0.0,0.0,0.0,0.0,0.0,3.0274,3.0482,3.2011,3.3535,3.4778,3.5566,3.6858,3.7353,3.6521,3.6232,3.7063,3.9348,3.9979,4.1426,4.4043,4.4564,4.4991,4.5432,4.5052,4.4902,4.5,4.5371,4.5469,4.5312,4.5685,4.5757,4.5566,4.5068,4.4778,4.4573,4.3989,4.366,4.3424,4.2587,4.2045,4.1743,4.1106,4.0358,3.9564,3.9564,3.975,3.9851,3.9345,3.9076,3.8839,3.8211,3.6381,3.4166,0.0,0.0,0.0,0.0,0.0,0.0,0.0,0.0,0.0,0.0,0.0,0.0,0.0,0.0,3.5087,3.6467,0.0,4.2263,4.447,4.7043,4.9047,4.9835,5.0216,5.0671,5.1416,5.0923,4.9957,4.8548,4.7853,4.6699,4.4856,4.3988,4.3528,4.3438,4.3109,4.2955,4.3289,4.4611,4.4953,4.4346,4.4878,4.407,4.1907,4.1619,4.0455,3.8631,3.7289,3.6529,3.6174,3.4594,3.3591,3.2757,2.9186,2.6238,2.371,2.1947,2.1603,2.2114,2.1945,2.1823,2.1787,0.0,0.0,0.0,0.0,0.0,0.0,0.0,3.0664,3.0716,3.1058,3.2255,3.3094,3.3205,3.3902,3.3974,3.2981,3.3198,3.5122,3.9138,4.0349,4.2114,4.4824,4.4694,4.4631,4.4785,4.4163,4.3867,4.3945,4.4805,4.5117,4.4941,4.5588,4.5776,4.5566,4.5182,4.4855,4.4556,4.4088,4.3752,4.3406,4.2249,4.1795,4.1715,4.1018,4.0459,4.0104,3.9949,3.9671,3.9555,4.0116,3.9783,3.916,3.9261,3.787,3.5793,3.3677,3.2464,0.0,0.0,0.0,0.0,0.0,0.0,0.0,0.0,3.2044,3.2456,3.2504,3.4133,3.6042,3.7898,4.0738,4.3573,4.5922,4.7614,4.885,4.9677,4.9761,5.0216,5.1502,5.0485,4.9292,4.8226,4.6864,4.5331,4.3678,4.2193,4.0915,4.0053,4.0181,3.997,3.9236,4.1449,4.2408,4.1821,4.2383,4.1403,3.8998,3.9179,3.7983,3.5733,3.5032,3.4445,3.392,3.2682,3.1233,2.9509,2.6672,2.4487,2.2746,2.0459,2.0124,2.0828,1.9996,1.9069,1.8194,0.0,0.0,0.0,0.0,0.0,0.0,0.0,0.0,3.0794,3.1378,3.1902,3.2339,3.2575,3.3154,3.3354,3.2937,3.4314,3.6395,3.9219,4.0335,4.236,4.5624,4.4469,4.4073,4.4776,4.4706,4.4726,4.4844,4.5605,4.5898,4.5762,4.5801,4.5738,4.5566,4.4934,4.4631,4.4555,4.3849,4.3516,4.3391,4.2279,4.1786,4.1681,4.0612,4.0172,4.0035,3.9375,3.8292,3.7271,3.7991,3.7718,3.7319,3.8415,3.8082,3.6705,3.4122,3.2629,3.1419,2.9524,2.8713,2.8732,3.038,2.9877,3.0071,0.0,3.4896,3.4634,3.5594,3.6923,3.8169,3.8701,4.1091,4.3575,4.5484,4.6874,4.8092,4.8951,4.9068,4.9272,5.0059,4.9437,4.854,4.759,4.6143,4.5041,4.469,4.1792,4.049,4.1294,3.8345,3.7402,3.9001,3.7236,3.6292,3.6264,3.4458,3.3308,3.2836,3.2465,3.2273,3.2418,3.181,3.1508,3.1324,2.9387,2.7789,2.6708,2.5422,2.4166,2.2853,2.0404,1.9579,1.9298,1.592,1.4559,1.4198,0.0,0.0,0.0,0.0,0.0,0.0,0.0,0.0,0.0,3.0772,3.0844,3.0922,3.1024,3.0959,3.1253,3.213,3.3751,3.5843,3.8424,4.0468,4.2446,4.4355,4.3457,4.3066,4.3398,4.3379,4.3379,4.3437,4.4687,4.5226,4.5103,4.5592,4.5738,4.5586,4.5316,4.497,4.458,4.4253,4.3897,4.341,4.2266,4.1799,4.1613,4.0065,3.9197,3.8734,3.8058,3.7377,0.0,3.6186,3.6259,3.65,3.6558,3.6105,3.5166,3.3551,3.2648,3.1776,3.036,2.9673,2.9652,3.0543,3.1123,3.1998,3.4042,3.4545,3.4663,3.5121,3.664,3.8193,3.9345,4.1835,4.4102,4.5342,4.7158,4.8011,4.6947,4.7242,4.7311,4.6633,4.5977,4.6047,4.7249,4.6088,4.5008,4.4417,4.1923,4.0177,3.9564,3.6747,3.5019,3.4737,3.4121,3.3313,3.2192,3.1098,2.9815,2.8521,2.7743,2.7507,2.7623,2.7624,2.7686,2.7562,2.5798,2.5005,2.4967,2.3582,2.2682,2.1943,2.0935,1.9679,1.8126,1.5013,1.3335,1.2475,0.0,0.0,0.0,0.0,0.0,0.0,0.0,0.0,0.0,0.0,3.0167,2.9994,3.0001,2.9673,2.9963,3.1241,3.3094,3.5091,3.7168,3.9663,4.1664,4.2988,4.2187,4.2031,4.2715,4.2676,4.2767,4.2949,4.4339,4.4938,4.4876,4.547,4.5699,4.5586,4.549,4.5246,4.492,4.4558,4.4207,4.3701,4.2329,4.1701,4.1267,3.9426,3.801,3.6949,3.6502,3.6033,3.5365,3.4198,3.4411,3.5044,3.4269,3.3997,3.3685,3.253,3.2126,3.1866,3.101,3.0685,3.0686,3.1006,3.2128,3.3257,3.3588,3.4248,3.4732,3.4762,3.619,3.792,3.9428,4.185,4.3961,4.5289,4.6849,4.7388,4.5826,4.5585,4.5168,4.4041,4.3,4.3338,4.5713,4.5043,4.4442,4.4379,4.1991,3.993,3.849,3.5564,3.3325,3.1888,3.0886,2.9725,2.8049,2.6641,2.5109,2.3483,2.2542,2.2345,2.2948,2.3883,2.4328,2.4203,2.2874,2.2627,2.3103,2.1749,2.121,2.1293,2.0935,1.9761,1.7855,1.538,1.329,1.1561,0.0,0.0,0.0,0.0,0.0,0.0,0.0,0.0,0.0,0.0,0.0,0.0,0.0,3.0213,3.0379,3.0417,3.275,3.4592,3.5515,3.736,3.9525,4.2031,4.0742,4.1094,4.3516,4.3555,4.3908,4.4622,4.5389,4.5755,4.5757,4.5643,4.5586,4.5586,4.5259,4.5357,4.5687,4.4528,4.4281,4.4485,4.2567,4.139,4.0541,3.8677,3.6628,3.4785,3.4795,3.3769,3.2324,3.1692,3.1901,3.2303,3.1534,3.2313,3.2993,3.0999,3.0879,3.1434,3.1391,3.1407,3.1644,3.236,3.2509,3.2886,3.4173,3.4996,3.5489,3.5489,3.6587,3.7888,3.8743,4.0622,4.2812,4.5295,4.5421,4.5524,4.6437,4.4643,4.3201,4.3152,4.1352,4.0655,4.2134,4.2159,4.3021,4.5203,4.1914,3.9694,3.9305,3.4968,3.2424,3.2091,2.7205,2.4272,2.3553,1.9413,1.7129,1.6755,1.5675,1.6485,1.8821,2.0864,2.1837,2.1803,2.0989,2.0666,2.0608,1.9895,2.0223,2.1203,2.0034,1.9497,1.9115,1.657,1.3888,1.1354,0.0,0.0,0.0,0.0,0.0,0.0,0.0,0.0,0.0,0.0,0.0,0.0,0.0,0.0,0.0,0.0,3.2531,3.3737,3.4649,3.6954,3.8433,3.8769,4.0059,4.0879,4.1133,4.277,4.373,4.3974,4.5201,4.5796,4.5796,4.5643,4.5586,4.5586,4.547,4.5566,4.5743,4.4798,4.451,4.4557,4.3013,4.2001,4.1177,3.8665,3.6438,3.4455,0.0,3.1511,3.0807,2.9776,3.0209,3.121,3.0879,3.1153,3.1425,3.0448,3.075,3.1391,3.1391,3.1822,3.241,3.306,3.3482,3.4053,3.4951,3.534,3.537,3.4921,3.5155,3.5683,3.6596,3.8456,4.0442,4.2212,4.3711,4.435,4.3488,4.281,4.1821,4.0277,3.9543,3.9403,3.9936,4.0886,4.2162,4.3946,4.1836,4.0538,4.0568,3.6265,3.3183,3.1943,2.7492,2.4067,2.1978,1.7827,1.5642,1.5394,1.4072,1.3964,1.4791,1.5485,1.5775,1.5763,1.5481,1.6289,1.7659,1.7442,1.8458,2.0034,1.967,1.9039,1.8226,1.7375,1.5338,1.2675,0.0,0.0,0.0,0.0,0.0,0.0,0.0,0.0,0.0,0.0,0.0,0.0,0.0,0.0,0.0,0.0,0.0,3.287,3.3814,3.5503,3.6528,3.668,3.8086,3.8887,3.8906,4.0777,4.1873,4.2125,4.3699,4.4453,4.441,4.4951,4.5182,4.5163,4.5451,4.568,4.5763,4.4962,4.4218,4.3497,4.2441,4.1162,3.9686,3.7636,3.5807,0.0,3.141,3.0394,3.0077,2.8501,2.9104,3.0418,2.9989,3.0385,3.0906,3.0756,3.1501,3.2396,3.2467,3.3275,3.4089,3.4203,3.4737,3.5226,3.5149,3.513,3.4876,3.3963,3.3918,3.421,3.4835,3.6563,3.8403,3.9956,4.1541,4.2316,4.1551,4.0669,3.9544,3.7879,3.74,3.706,3.6728,3.7997,3.9879,4.2353,4.1268,4.0255,3.9904,3.5839,3.2714,3.1003,2.6253,2.2708,2.0456,1.6799,1.435,1.3206,1.2317,1.2016,1.2088,1.2602,1.2812,1.2807,1.273,1.3496,1.49,1.5196,1.6476,1.8172,1.8664,1.8411,1.7692,1.7692,1.6047,1.346,0.0,0.0,0.0,0.0,0.0,0.0,0.0,0.0,0.0,0.0,0.0,0.0,0.0,0.0,0.0,0.0,0.0,0.0,3.2914,3.3122,3.3965,3.5703,3.5176,3.5547,3.707,3.8008,3.8828,3.9512,4.1211,4.1988,4.1885,4.3525,4.4261,4.4205,4.5047,4.5509,4.563,4.48,4.336,4.1572,4.0921,3.9064,3.6577,3.5883,3.4825,3.3389,3.127,3.0402,3.0017,2.8043,2.8644,3.0082,2.9041,3.0007,3.157,3.1845,3.298,3.4192,3.4516,3.5618,3.6544,3.578,3.6106,3.6199,3.4768,3.4415,3.401,3.2632,3.2834,3.324,3.3326,3.4889,3.6767,3.8574,3.911,3.9643,4.0683,3.8524,3.6579,3.5928,3.4803,3.3759,3.2727,3.3719,3.6079,4.0135,3.9822,3.8771,3.7425,3.39,3.1138,2.9386,2.3739,2.0184,1.9139,1.5998,1.3072,1.041,1.034,1.0344,1.0613,1.1952,1.2572,1.2562,1.2254,1.2164,1.2348,1.3299,1.4423,1.5725,1.7001,1.7598,1.7598,1.7598,1.6069,1.3741,0.0,0.0,0.0,0.0,0.0,0.0,0.0,0.0,0.0,0.0,0.0,0.0,0.0,0.0,0.0,0.0,0.0,0.0,3.121,3.2478,3.3457,3.4004,3.5703,3.6836,3.7246,3.873,3.9609,3.9805,4.0781,4.1265,4.1246,4.1532,4.1971,4.2521,4.2684,4.3197,4.3889,4.3087,4.2501,4.2008,4.0852,3.9736,3.8537,3.6899,3.5503,3.4175,3.2557,3.1271,3.0252,2.9724,3.0922,3.2391,3.1584,3.2051,3.3024,3.3622,3.4074,3.4653,3.587,3.6467,3.6544,3.5873,3.6198,3.6016,3.3547,3.3074,3.2558,3.0694,2.9902,2.9526,2.9633,3.1993,3.4614,3.6774,3.8388,3.9569,4.0208,3.7968,3.5662,3.4248,3.2738,3.1472,3.0753,3.1111,3.1836,3.2975,3.5268,3.636,3.5686,3.3436,3.0966,2.8339,2.4166,2.1242,1.9884,1.5027,1.1717,1.0137,0.9103,0.861,0.8747,0.9045,0.9245,0.9245,0.9199,0.9673,1.0654,1.0895,1.2318,1.4435,1.4727,1.5412,1.6292,1.6292,1.5913,1.5076,0.0,0.0,0.0,0.0,0.0,0.0,0.0,0.0,0.0,0.0,0.0,0.0,0.0,0.0,0.0,0.0,0.0,0.0,0.0,3.2298,3.2851,3.3379,3.4805,3.543,3.5078,3.7129,3.7812,3.7051,3.8984,3.9726,3.9297,3.9964,4.044,4.0823,4.1162,4.1738,4.2366,4.1417,4.0868,0.0,0.0,3.8624,3.7569,3.6757,3.5887,3.4953,3.3784,3.3034,3.2588,3.2285,3.2891,3.3755,3.3977,3.449,3.5082,3.5634,3.5993,3.6437,3.7119,3.7716,3.7833,3.6499,3.6416,3.5931,3.3051,3.179,3.0763,2.8966,2.7876,2.7444,2.801,3.0287,3.2735,3.4859,3.6507,3.7768,3.8503,3.6201,3.3991,3.2616,3.098,2.9475,2.8128,2.8573,2.8831,2.8538,3.172,3.3441,3.2686,3.0979,2.9174,2.7294,2.3286,2.0213,1.8214,1.4016,1.1556,1.0779,0.892,0.8038,0.8038,0.8038,0.8038,0.8038,0.0,0.8432,0.9217,0.9805,1.0872,1.2323,1.3488,1.4364,1.5045,1.5629,1.5832,1.5556,0.0,0.0,0.0,0.0,0.0,0.0,0.0,0.0,0.0,0.0,0.0,0.0,0.0,0.0,0.0,0.0,0.0,0.0,0.0,0.0,3.2477,3.3359,3.3516,3.3242,3.2559,3.4707,3.5039,3.3398,3.6543,3.7637,3.6816,3.8437,3.9156,3.9108,3.986,4.0412,4.0732,3.9707,3.896,3.8365,3.7918,3.6863,3.563,0.0,3.6067,3.5493,3.4768,3.4913,3.5388,3.4947,3.4729,3.4835,3.6,3.6724,3.7178,3.7543,3.7988,3.8334,3.8091,3.889,3.9244,3.6992,3.6345,3.5507,3.2456,3.0376,2.8728,2.7349,2.6556,2.639,2.7498,2.9216,3.1175,3.3259,3.4318,3.5231,3.6194,3.3897,3.1777,3.0723,2.9144,2.7357,2.5409,2.6131,2.6508,2.5962,2.8605,2.9919,2.9189,2.7813,2.6507,2.5406,2.1527,1.8303,1.5825,1.3397,1.2042,1.1853,0.941,0.8137,0.8038,0.8038,0.8038,0.8038,0.8038,0.8028,0.8107,0.9178,0.9751,1.0117,1.2459,1.3538,1.4023,1.5089,1.5576,1.5497,0.0,0.0,0.0,0.0,0.0,0.0,0.0,0.0,0.0,0.0,3.128,3.0941,0.0,0.0,0.0,0.0,0.0,0.0,0.0,0.0,0.0,3.3398,3.4082,3.4414,3.4277,3.4707,3.4414,3.3398,3.4726,3.5293,3.5137,3.6113,3.6869,3.7428,3.7532,3.7778,3.8116,3.7715,3.7716,3.7941,3.7199,3.6874,3.6843,3.65,0.0,0.0,3.4742,3.459,3.4884,3.5999,3.6785,3.7182,3.6808,3.7199,3.7878,3.854,3.836,3.8098,3.8581,3.8474,3.7679,3.5586,3.46,3.3265,2.9728,2.7984,2.6779,2.5724,2.5433,2.5643,2.6586,2.8192,3.0332,3.3206,3.3687,3.381,3.4228,3.2075,2.9628,2.7435,2.5732,2.4476,2.4148,2.3977,2.3787,2.3692,2.4155,2.5058,2.6228,2.6077,2.4301,2.0759,1.9911,1.8303,1.5825,1.4268,1.3006,1.1848,1.0386,0.9118,0.8038,0.8038,0.8038,0.8038,0.8038,0.0,0.7851,0.8042,0.8722,0.9635,1.0265,1.1857,1.3761,1.3842,1.4515,1.52,0.0,0.0,0.0,0.0,0.0,0.0,0.0,3.1434,3.2466,3.4597,3.4186,3.3832,3.4206,3.4257,3.4249,0.0,0.0,0.0,0.0,0.0,0.0,0.0,3.3809,3.3828,3.3418,3.4258,3.4062,3.2773,0.0,3.5137,3.4726,3.5566,3.6077,3.6326,3.6288,3.6579,3.7031,3.6344,3.685,3.8044,3.7082,3.7038,3.7524,3.7013,0.0,0.0,3.5226,3.5334,3.574,3.6082,3.6675,3.7384,3.7793,3.795,3.802,3.8287,3.817,3.8017,3.8264,3.8335,3.7866,3.5761,3.4155,3.2382,2.9486,2.7121,2.5347,2.4854,2.4703,2.5021,2.6168,2.7647,2.9446,3.1852,3.1507,3.1216,3.1916,2.9125,2.6496,2.5166,2.3176,2.1816,2.1617,2.1338,2.1489,2.2129,2.2129,2.2832,2.4179,2.4277,2.283,1.9588,1.9497,1.8218,1.5605,1.4487,1.3458,1.2449,1.1326,1.0039,0.8788,0.8702,0.8423,0.7916,0.7841,0.777,0.7702,0.7702,0.803,0.8617,0.9345,1.0472,1.1706,1.2267,1.2929,1.3351,0.0,0.0,0.0,0.0,0.0,0.0,0.0,3.1723,3.3103,3.6276,3.6853,3.6876,3.6589,3.6252,3.5963,0.0,0.0,0.0,0.0,0.0,0.0,0.0,0.0,0.0,3.2226,0.0,0.0,3.2207,3.4375,0.0,0.0,0.0,0.0,0.0,3.5697,3.5988,3.6378,3.549,3.6236,0.0,0.0,3.7187,3.7844,0.0,0.0,0.0,0.0,3.5982,3.6434,3.6122,3.6203,3.6697,3.8027,3.8019,3.7463,3.72,3.756,3.7899,3.7471,3.7961,3.8095,3.561,3.3461,3.1397,2.9213,2.6416,2.4318,2.4324,2.4372,2.483,2.6101,2.7157,2.8389,3.0165,2.9094,2.8259,2.8941,2.6087,2.3456,2.2501,2.0706,1.939,1.9115,1.909,1.9555,2.0836,2.1034,2.1664,2.2677,2.2688,2.1548,1.91,1.8937,1.7781,1.5304,1.4565,1.3794,1.3018,1.191,1.0783,0.9465,0.9137,0.8494,0.776,0.7648,0.758,0.755,0.755,0.7529,0.7595,0.8629,0.9279,0.9785,1.081,1.1278,1.1528,0.0,0.0,0.0,0.0,0.0,0.0,0.0,3.1807,3.3733,3.6347,3.7379,3.8428,3.9873,3.8681,3.745,0.0,0.0,0.0,0.0,0.0,0.0,0.0,0.0,0.0,0.0,0.0,0.0,3.2207,3.3164,0.0,0.0,0.0,0.0,0.0,0.0,3.568,3.5589,3.5245,0.0,0.0,0.0,0.0,0.0,0.0,0.0,0.0,0.0,3.5543,3.5611,3.6887,3.6474,3.559,3.6393,3.6299,3.5761,3.5085,3.6366,3.7665,3.6189,3.6837,3.7054,3.3621,3.13,2.9297,2.7103,2.5087,2.3755,2.4081,2.4649,2.5394,2.6303,2.6399,2.6895,2.8681,2.7219,2.5575,2.4794,2.3584,2.1511,1.8129,1.7751,1.7749,1.7719,1.7712,1.8202,1.9571,2.035,2.0923,2.1453,2.1222,1.9965,1.747,1.7181,1.6411,1.5093,1.4933,1.4269,1.3012,1.1849,1.0662,0.9279,0.825,0.7698,0.7617,0.7604,0.7519,0.0,0.7394,0.7309,0.7197,0.7517,0.8303,0.9306,0.9298,1.0102,1.0975,0.0,0.0,0.0,0.0,0.0,0.0,3.0166,3.0976,3.2708,3.6344,3.7578,3.877,4.0431,4.0008,3.9046,3.7618,0.0,0.0,0.0,0.0,0.0,0.0,0.0,0.0,0.0,0.0,3.2695,3.3691,3.4551,0.0,0.0,0.0,0.0,0.0,0.0,3.607,3.5493,3.5383,0.0,0.0,0.0,0.0,0.0,0.0,0.0,0.0,0.0,0.0,3.5912,3.5577,3.5244,3.4765,3.3391,3.2875,3.289,3.3689,3.4881,3.5713,3.4636,3.537,3.5853,3.3169,3.0434,2.8188,2.7282,2.4987,2.3197,2.3703,2.4284,2.4902,2.5509,2.505,2.4987,2.6196,2.3973,2.1999,2.1739,1.9724,1.7548,1.5677,1.5473,1.5146,1.4248,1.4626,1.5589,1.7137,1.799,1.858,1.8775,1.9861,1.9393,1.7039,1.6831,1.6155,1.4696,1.4877,1.4231,1.2552,1.2348,1.1161,0.9171,0.8623,0.8007,0.7458,0.7363,0.7288,0.0,0.7231,0.7193,0.7146,0.7207,0.7645,0.8178,0.8087,0.8446,0.8796,0.0,0.0,0.0,0.0,0.0,2.7681,2.9712,3.0234,3.1872,3.5984,3.7051,3.8166,4.0094,4.0333,3.9796,3.8493,3.7777,0.0,0.0,0.0,0.0,0.0,0.0,0.0,0.0,0.0,3.3398,3.5078,3.5676,3.6557,0.0,0.0,3.7878,3.7007,0.0,0.0,0.0,0.0,0.0,0.0,0.0,0.0,0.0,0.0,0.0,0.0,0.0,0.0,0.0,0.0,0.0,3.4601,3.2193,3.1141,3.0971,3.1903,3.2872,3.3541,3.2742,3.3637,3.4263,3.218,2.9439,2.7273,2.7025,2.4747,2.2847,2.3475,2.3891,2.4148,2.4197,2.3646,2.3264,2.3437,2.1117,1.9183,1.8924,1.6436,1.4363,1.3437,1.3016,1.1964,0.9742,1.1255,1.2893,1.4008,1.5518,1.6357,1.6402,1.7904,1.7935,1.6191,1.6017,1.5345,1.3851,1.405,1.3411,1.1815,1.1728,1.0755,0.8983,0.8597,0.7997,0.7295,0.7187,0.7139,0.0,0.7139,0.7139,0.7139,0.7139,0.7207,0.7302,0.7302,0.7302,0.7302,0.0,0.0,0.0,0.0,0.0,0.0,2.8985,2.9858,3.1646,3.5152,3.5628,3.6587,3.9146,3.9412,3.9381,3.9285,3.8674,0.0,0.0,0.0,0.0,0.0,0.0,0.0,0.0,0.0,3.4238,3.5996,3.592,3.6823,3.8574,3.8394,3.7831,3.6998,0.0,0.0,0.0,0.0,0.0,0.0,0.0,0.0,0.0,0.0,0.0,0.0,0.0,0.0,0.0,0.0,0.0,0.0,0.0,3.2056,3.0475,2.9354,3.0227,3.1381,3.0541,3.1533,3.2244,3.0154,2.8109,2.6445,2.5771,2.4103,2.2847,2.3475,2.3535,2.3273,2.254,2.2307,2.179,2.0548,1.9108,1.7616,1.615,1.4214,1.2465,1.108,1.0203,0.8245,0.4447,0.8062,1.0592,1.0352,1.3001,0.0,1.4602,1.5061,1.5129,1.4502,1.4249,1.3561,1.2334,1.2334,1.1729,1.0611,0.9497,0.8894,0.8894,0.7665,0.7139,0.7143,0.7139,0.7139,0.0,0.7139,0.7139,0.7139,0.7139,0.7143,0.7143,0.7143,0.7143,0.7143,0.0,0.0,0.0,0.0,0.0,0.0,0.0,2.8168,2.9809,3.2682,3.4661,3.6551,3.849,3.9695,4.0104,3.9419,3.8712,0.0,0.0,0.0,0.0,0.0,0.0,0.0,0.0,0.0,3.6035,3.7773,3.8257,3.9147,4.0372,4.0075,3.9218,3.7892,3.7719,3.6853,0.0,0.0,0.0,0.0,0.0,0.0,3.9405,0.0,0.0,0.0,0.0,0.0,0.0,0.0,0.0,0.0,0.0,0.0,0.0,2.961,2.9909,3.0267,2.9265,2.9641,3.0053,2.8565,2.6375,2.471,2.5455,2.34,2.165,2.2742,2.2951,2.2738,2.2062,2.1889,2.145,2.0089,1.8254,1.6392,1.4855,1.2871,1.1139,1.0172,0.7519,0.4627,0.1592,0.4186,0.6789,0.8404,0.9271,1.0622,1.2869,1.3035,1.3361,1.4208,1.3935,1.3271,1.2165,1.2246,1.1299,0.9289,0.9,0.8452,0.7665,0.7316,0.7088,0.7,0.7099,0.7085,0.7004,0.7099,0.7085,0.6997,0.6997,0.6997,0.6997,0.6997,0.7058,0.7139,0.0,0.0,0.0,0.0,0.0,0.0,0.0,2.7409,2.883,3.1134,3.3467,3.5679,3.7698,3.9077,3.9858,3.9877,3.9227,0.0,0.0,0.0,0.0,0.0,0.0,0.0,0.0,3.5762,3.7313,3.9032,3.9441,4.0139,4.1024,4.0754,3.9946,3.8715,3.8546,3.7738,0.0,0.0,0.0,0.0,0.0,0.0,3.9166,0.0,0.0,0.0,0.0,0.0,0.0,0.0,0.0,0.0,0.0,0.0,0.0,0.0,2.9313,2.8819,2.8049,2.8164,2.8294,2.7381,2.5524,2.4116,2.5018,2.3086,2.1419,2.2672,2.2387,2.1779,2.1255,2.0851,2.0205,1.9081,1.7272,1.5449,1.3923,1.2,0.9466,0.6123,0.2258,-0.0184,-0.0,0.1599,0.3574,0.582,0.674,0.8285,1.07,1.1303,1.2113,1.3156,1.3323,1.2982,1.1893,1.1543,1.0454,0.8505,0.8271,0.7718,0.6976,0.7034,0.698,0.6848,0.6936,0.6922,0.0,0.6939,0.6922,0.6848,0.6905,0.6929,0.6936,0.699,0.7065,0.7139,0.0,0.0,0.0,0.0,0.0,0.0,0.0,2.7393,2.863,3.0388,3.2246,3.4316,3.6758,3.785,3.8981,4.0489,0.0,0.0,0.0,0.0,0.0,0.0,0.0,0.0,3.5957,3.6914,3.8151,3.9704,3.9749,4.0156,4.0889,4.0754,4.0254,3.9499,3.9427,3.8873,0.0,0.0,0.0,0.0,0.0,0.0,0.0,0.0,0.0,0.0,0.0,0.0,0.0,0.0,0.0,0.0,0.0,0.0,0.0,0.0,0.0,0.0,0.0,2.7026,2.6992,2.6436,2.5292,2.4353,2.4477,2.2999,0.0,2.2906,2.1824,2.0604,2.0366,1.9535,1.8647,1.7819,1.6411,1.4844,1.3182,1.1082,0.709,0.008,-0.4489,-0.5359,-0.0976,-0.0,0.1112,0.2767,0.5486,0.7372,0.8233,0.9968,1.1138,1.1523,1.2422,1.2422,1.1375,1.0418,0.9289,0.8065,0.7256,0.6837,0.6705,0.6848,0.6827,0.0,0.6695,0.6695,0.6685,0.6695,0.6695,0.6698,0.6841,0.6902,0.6926,0.7048,0.7112,0.7139,0.0,0.0,0.0,0.0,0.0,0.0,0.0,0.0,0.0,0.0,3.2461,3.4844,3.6113,3.8083,3.9438,0.0,0.0,0.0,0.0,0.0,0.0,0.0,0.0,0.0,3.5976,3.7519,3.8756,3.9704,4.0915,4.1609,4.18,4.2277,4.1739,4.0389,4.0273,3.9392,0.0,0.0,0.0,0.0,0.0,0.0,0.0,0.0,0.0,0.0,3.5996,3.5388,0.0,0.0,0.0,0.0,0.0,0.0,0.0,0.0,2.8713,2.7689,2.7301,0.0,2.617,2.5637,2.4534,2.3621,0.0,2.2251,2.1015,2.1268,2.1005,2.0678,2.0624,2.0822,2.0458,1.8837,1.7618,1.5873,1.2816,0.7148,0.2581,0.0724,-0.4022,-0.6676,-0.5546,-0.2075,0.0263,0.0682,0.4339,0.6642,0.6987,0.8141,0.9096,0.9842,1.0067,1.0153,1.0095,0.9938,0.8891,0.6925,0.6761,0.6736,0.6702,0.6736,0.6671,0.6532,0.6651,0.6634,0.6536,0.6654,0.663,0.6529,0.6566,0.6651,0.6746,0.6661,0.6848,0.7126,0.0,0.0,0.0,0.0,0.0,0.0,0.0,0.0,0.0,0.0,0.0,0.0,0.0,0.0,0.0,0.0,0.0,0.0,0.0,0.0,0.0,0.0,0.0,3.6484,3.7754,3.8711,3.972,4.0803,4.1667,4.2244,4.2569,4.2931,4.2412,4.1162,4.0315,3.945,0.0,0.0,0.0,0.0,3.7803,0.0,0.0,0.0,0.0,0.0,3.5133,3.447,0.0,3.2853,3.2346,3.1971,0.0,0.0,0.0,0.0,2.9052,2.8084,2.7844,2.7459,2.686,2.5832,2.5336,2.4816,2.3646,2.2405,2.1396,2.1045,2.0591,2.0314,2.0458,2.091,2.0821,1.9535,1.8555,1.6428,1.2166,0.5396,-0.0,-0.2298,-0.4948,-0.6739,-0.708,-0.3794,-0.1178,-0.0081,0.3036,0.5292,0.643,0.7261,0.7977,0.8473,0.8891,0.9168,0.9392,0.9067,0.8291,0.6961,0.6729,0.6563,0.6502,0.6566,0.6515,0.638,0.6464,0.6454,0.6383,0.6464,0.6447,0.6383,0.6447,0.6522,0.6593,0.658,0.6729,0.6926,0.0,0.0,0.0,0.0,0.0,0.0,0.0,0.0,0.0,0.0,0.0,0.0,0.0,0.0,0.0,0.0,0.0,0.0,0.0,0.0,0.0,0.0,3.8027,3.8242,3.9863,3.9902,4.057,4.1933,4.2168,4.2588,4.3124,4.3374,4.2951,4.1912,3.9969,3.9104,0.0,0.0,0.0,0.0,3.731,0.0,0.0,0.0,0.0,0.0,0.0,0.0,0.0,3.2014,3.1492,3.1201,3.1072,0.0,0.0,0.0,0.0,0.0,2.8398,2.8397,2.8056,2.664,2.6708,2.6499,2.4219,2.3147,2.2354,2.1584,2.0541,1.9935,2.0361,2.0603,2.0464,1.9677,1.8307,1.5886,1.1696,0.5167,-0.1035,-0.5915,-0.623,-0.6331,-0.6848,-0.4886,-0.2604,-0.0155,0.1654,0.368,0.6108,0.6884,0.7237,0.7233,0.7937,0.8411,0.8568,0.797,0.7551,0.7278,0.6666,0.6352,0.6342,0.6386,0.6373,0.6338,0.0,0.0,0.6338,0.6338,0.6338,0.6274,0.6393,0.6454,0.6485,0.6593,0.6661,0.6702,0.0,0.0,0.0,0.0,0.0,0.0,0.0,0.0,0.0,0.0,0.0,0.0,0.0,0.0,0.0,0.0,0.0,0.0,0.0,0.0,0.0,4.0801,3.9258,3.8867,3.9883,3.9902,4.0312,4.1167,4.2536,4.3205,4.3203,4.4586,4.4393,4.2758,3.9604,3.82,3.8104,0.0,0.0,0.0,3.6249,0.0,0.0,0.0,0.0,0.0,0.0,0.0,0.0,3.0954,3.0436,3.0265,2.9586,0.0,0.0,0.0,0.0,0.0,2.8311,2.8366,2.8201,2.771,2.7336,2.6759,2.5456,2.4321,2.3218,2.2188,2.1033,2.0406,2.1029,2.0918,2.019,1.871,1.4675,1.1979,1.2578,0.628,-0.0156,-0.5047,-0.6105,-0.6388,-0.5946,-0.4484,-0.2633,-0.0148,0.0295,0.2063,0.5663,0.6082,0.6208,0.605,0.6169,0.6246,0.6143,0.6928,0.7005,0.625,0.6149,0.6156,0.6338,0.6285,0.6281,0.6338,0.0,0.6338,0.6338,0.6338,0.6338,0.6342,0.6285,0.6366,0.6461,0.6366,0.6485,0.6702,0.0,0.0,0.0,0.0,0.0,0.0,0.0,0.0,0.0,0.0,0.0,0.0,0.0,0.0,0.0,0.0,0.0,0.0,0.0,0.0,4.1407,4.121,4.0859,4.0644,4.0605,4.0605,4.0952,4.1694,4.2364,4.2878,4.3203,4.3451,4.2874,4.1585,3.9104,3.8007,3.7892,3.6219,0.0,0.0,0.0,0.0,0.0,0.0,0.0,0.0,0.0,0.0,0.0,0.0,2.9549,2.9347,2.8077,0.0,0.0,0.0,0.0,0.0,2.7662,2.8019,2.8536,2.8793,2.8936,2.8623,2.7212,2.6208,2.5196,2.3831,2.2353,2.131,2.1406,2.1499,2.068,1.7994,1.5269,1.2426,0.9169,0.5792,0.1307,-0.5096,-0.5925,-0.5972,-0.6023,-0.5294,-0.3487,-0.0215,-0.0,0.0794,0.2564,0.47,0.5775,0.5768,0.561,0.5532,0.5467,0.6003,0.6121,0.5793,0.5871,0.5945,0.6013,0.6013,0.6057,0.6135,0.0,0.6183,0.6338,0.6338,0.6338,0.6338,0.6338,0.6302,0.6349,0.6285,0.6346,0.6474,0.0,0.0,0.0,0.0,0.0,0.0,0.0,0.0,0.0,0.0,0.0,0.0,0.0,0.0,0.0,0.0,0.0,0.0,0.0,0.0,4.1613,4.121,4.1797,4.1836,4.1211,4.1191,4.1487,4.2035,4.2074,4.2457,4.3145,4.2239,4.145,4.0719,3.9046,3.818,3.7892,3.6411,3.6411,0.0,0.0,0.0,0.0,0.0,0.0,0.0,0.0,0.0,0.0,0.0,0.0,0.0,0.0,0.0,0.0,2.7236,2.7227,2.7473,2.7075,2.7472,2.8201,2.9,2.9817,3.02,2.9345,2.8391,2.737,2.6189,2.4373,2.283,2.219,2.1745,2.0372,1.7042,1.5245,1.1989,0.5384,0.3971,0.116,-0.5374,-0.5783,-0.565,-0.6118,-0.6015,-0.4652,-0.1518,-0.0487,-0.0,-0.0,0.2792,0.4763,0.5521,0.5428,0.5377,0.5308,0.5501,0.56,0.5593,0.5698,0.5769,0.58,0.58,0.5864,0.5976,0.5976,0.6064,0.6207,0.6207,0.623,0.6338,0.6338,0.6338,0.6338,0.6338,0.6338,0.6352,0.0,0.0,0.0,0.0,0.0,0.0,0.0,0.0,0.0,0.0,0.0,0.0,0.0,0.0,0.0,0.0,0.0,0.0,0.0,0.0,4.0992,4.1191,4.1269,4.1269,4.1191,4.1191,4.1233,4.1288,4.184,4.2449,4.3085,4.222,4.1777,4.1643,3.995,3.8757,3.795,3.7007,3.6257,3.5652,3.5264,0.0,0.0,0.0,0.0,0.0,0.0,0.0,0.0,0.0,0.0,0.0,0.0,0.0,2.693,2.7747,2.6991,2.6078,2.7027,2.6734,2.6447,2.7497,2.8814,3.0275,3.1837,3.0603,2.9195,2.9325,2.7407,2.5311,2.3979,2.1105,1.8104,1.5476,1.1639,0.7438,0.3087,0.0285,-0.2449,-0.5463,-0.5785,-0.5786,-0.5862,-0.6125,-0.5906,-0.51,-0.1905,-0.0,-0.0,0.0252,0.1861,0.5051,0.5297,0.5293,0.5145,0.5773,0.5937,0.5589,0.5599,0.5674,0.58,0.58,0.5806,0.5817,0.5817,0.5905,0.6047,0.6047,0.6132,0.6338,0.6338,0.6338,0.6338,0.6338,0.6338,0.6416,0.0,0.0,0.0,0.0,0.0,0.0,0.0,0.0,0.0,0.0,0.0,0.0,0.0,0.0,0.0,0.0,0.0,0.0,0.0,4.0412,4.0973,4.1191,4.1191,4.0957,4.0391,4.0391,4.0123,3.9571,4.0225,4.0757,4.1169,4.1058,4.0869,4.0634,3.9714,3.8815,3.795,3.7065,3.6526,3.6185,3.5595,0.0,0.0,0.0,0.0,0.0,0.0,0.0,0.0,0.0,2.7921,2.7781,2.6578,2.6718,2.7132,2.6135,2.5867,2.5888,2.5857,2.6914,2.7961,2.7871,2.9467,3.1204,3.1862,3.1882,3.1445,3.0199,2.9239,2.7818,2.5257,2.2243,1.9362,1.7013,1.125,0.543,0.0592,-0.235,-0.4473,-0.5635,-0.3685,-0.2169,-0.2174,-0.4313,-0.4734,-0.2199,-0.0745,-0.0,-0.0,-0.0,0.0615,0.1905,0.392,0.5078,0.5075,0.5308,0.5549,0.5863,0.6303,0.6776,0.7135,0.6946,0.6689,0.6491,0.6491,0.6239,0.5888,0.5888,0.5922,0.5986,0.6081,0.6115,0.6129,0.6227,0.6338,0.6412,0.0,0.0,0.0,0.0,0.0,0.0,0.0,0.0,0.0,0.0,0.0,0.0,0.0,0.0,0.0,0.0,0.0,0.0,3.8869,3.9649,4.0283,4.0761,4.0527,4.0093,3.9501,3.9208,3.8767,3.8195,3.8303,3.8802,3.9623,3.9828,4.0096,4.0386,3.9789,3.9119,3.8334,3.7199,3.6565,3.6276,3.5718,3.5493,0.0,0.0,0.0,0.0,0.0,0.0,0.0,0.0,2.7505,2.7214,2.6021,2.6191,2.6617,2.5347,2.5321,2.5632,2.5251,2.6543,2.7938,2.7687,2.9299,3.1086,3.1607,3.248,3.2894,3.1946,3.0598,2.877,2.6074,2.3162,2.0165,1.7148,1.1734,0.5808,-0.0186,-0.3488,-0.5118,-0.4842,-0.2961,-0.1243,-0.0122,-0.2233,-0.2653,-0.0182,-0.0,-0.0,-0.0,-0.0,-0.0,-0.0,0.2591,0.4252,0.4927,0.509,0.558,0.6404,0.6983,0.7444,0.7681,0.7469,0.7288,0.7092,0.6826,0.6495,0.6149,0.5874,0.5762,0.5813,0.5918,0.5986,0.604,0.6149,0.6447,0.6949,0.0,0.0,0.0,0.0,0.0,0.0,0.0,0.0,0.0,0.0,0.0,0.0,0.0,0.0,0.0,0.0,0.0,0.0,3.7166,3.7878,3.8769,3.9824,3.9043,3.8584,3.8587,3.766,3.7226,3.7308,3.6221,3.6757,3.8804,3.8728,3.9623,4.1226,4.0366,3.9735,3.9161,3.745,3.6238,3.5512,3.5493,3.5507,3.5315,0.0,0.0,0.0,0.0,0.0,0.0,0.0,2.7339,2.6274,2.7661,2.6589,2.4993,2.5774,2.5575,2.5177,2.5426,2.5467,2.5632,2.6576,2.7967,2.9597,3.1387,3.2372,3.3344,3.4944,3.1533,2.787,2.646,2.3646,1.9949,1.5207,1.2745,0.8773,0.1081,-0.2818,-0.4323,-0.2889,-0.4273,-0.3901,-0.0294,-0.0,-0.0,-0.0,-0.0,-0.0,-0.0,-0.0,-0.0,-0.0,0.144,0.293,0.4468,0.5374,0.6263,0.7279,0.7572,0.7489,0.7121,0.7121,0.7234,0.7437,0.6625,0.6456,0.6796,0.5993,0.5671,0.5796,0.58,0.5891,0.6023,0.6027,0.6798,0.7931,0.0,0.0,0.0,0.0,0.0,0.0,0.0,0.0,0.0,0.0,0.0,0.0,0.0,0.0,0.0,0.0,0.0,0.0,3.6363,3.6528,3.7051,3.8027,3.7246,3.7058,3.7674,3.6213,3.5966,3.701,3.6132,3.6632,3.8464,3.8669,3.8814,3.893,3.9083,3.8765,3.8049,3.7102,3.6565,3.6295,3.5738,3.5141,3.4449,0.0,0.0,0.0,0.0,0.0,0.0,0.0,0.0,0.0,2.716,2.7178,2.7201,2.5779,2.564,2.5834,2.5341,2.6167,2.7067,2.6628,2.8731,3.1112,3.1798,3.2474,3.2978,3.2982,2.9731,2.7005,2.7325,2.4697,2.1213,1.7305,1.4121,0.9678,0.2573,-0.0171,-0.2069,-0.376,-0.2573,-0.034,0.2849,0.1241,-0.0,-0.0,-0.0,-0.0,-0.0,-0.0,-0.0,-0.0,0.141,0.2949,0.4502,0.4759,0.527,0.6039,0.6643,0.76,0.8903,0.8706,0.8415,0.811,0.7865,0.7239,0.6423,0.6358,0.6376,0.6431,0.6559,0.6569,0.6561,0.6043,0.6621,0.7729,0.0,0.0,0.0,0.0,0.0,0.0,0.0,0.0,0.0,0.0,3.5469,3.6186,0.0,0.0,0.0,0.0,0.0,0.0,0.0,3.511,3.5449,3.6738,3.5957,3.5879,3.672,3.5743,3.5775,3.6933,3.5447,3.5615,3.737,3.7842,3.803,3.7958,3.8395,3.8042,3.7028,3.6093,3.5718,3.5661,3.518,3.4661,3.4103,0.0,0.0,0.0,0.0,0.0,0.0,0.0,0.0,0.0,2.7275,2.7335,2.7477,2.5597,2.5371,2.559,2.507,2.5939,2.6928,2.6755,2.884,3.0983,3.1187,3.2483,3.3327,3.2177,2.9506,2.7456,2.7774,2.5206,2.1784,1.7881,1.4262,0.9814,0.3801,0.1679,-0.0,-0.1987,-0.0482,0.1457,0.3408,0.2389,0.1351,0.0766,0.0274,-0.0,-0.0,-0.0,-0.0,-0.0,0.1452,0.2961,0.4497,0.4473,0.5007,0.5928,0.6367,0.7554,0.9332,0.9145,0.8942,0.8685,0.8492,0.7724,0.6591,0.6913,0.6994,0.7012,0.7281,0.714,0.6894,0.6937,0.7402,0.8309,0.0,0.0,0.0,0.0,0.0,0.0,0.0,0.0,0.0,0.0,3.5391,3.5887,0.0,0.0,0.0,0.0,0.0,0.0,0.0,0.0,3.4043,3.5684,3.5234,3.5273,3.6016,3.609,3.6357,3.6888,3.4497,3.4227,3.5962,3.6591,3.7188,3.7648,3.7826,3.7211,3.5945,3.4621,3.4051,3.4083,3.4083,3.4026,3.3891,3.3173,0.0,0.0,0.0,0.0,0.0,0.0,0.0,0.0,2.7845,2.7379,2.6688,2.5395,2.4952,2.4851,2.4685,2.5073,2.5795,2.6859,2.8441,2.9804,3.0075,3.2192,3.3608,3.1893,3.0129,2.8603,2.777,2.528,2.1951,1.7629,1.3739,0.9649,0.5002,0.3123,0.2032,0.1457,0.1755,0.2088,0.2319,0.3348,0.3434,0.2109,0.0952,0.0265,0.0159,0.0164,0.0167,0.0223,0.1613,0.3065,0.4494,0.4473,0.5171,0.648,0.6588,0.7343,0.8699,0.8857,0.8998,0.9212,0.8622,0.7913,0.7171,0.7446,0.7598,0.7618,0.7968,0.7659,0.7179,0.8206,0.8776,0.929,0.0,0.0,0.0,0.0,0.0,0.0,0.0,0.0,0.0,0.0,0.0,0.0,0.0,0.0,0.0,0.0,0.0,0.0,0.0,0.0,3.3555,3.3945,3.5742,3.6816,3.6992,3.7001,3.6678,3.5974,3.4795,3.4947,3.6361,3.6215,3.5747,3.5025,3.5072,3.4692,3.398,3.3239,3.3039,3.3179,3.3179,3.2795,3.2218,3.2109,3.141,0.0,0.0,0.0,0.0,0.0,0.0,0.0,2.8519,2.8436,2.835,2.5871,2.5364,2.5399,2.4487,2.4646,2.5307,2.639,2.8259,2.9948,3.0336,3.0337,3.0017,2.904,2.834,2.7691,2.7038,2.5245,2.2674,1.9168,1.5674,1.1743,0.6919,0.5646,0.4695,0.3257,0.3304,0.3471,0.3515,0.3811,0.3859,0.3467,0.3062,0.2397,0.1476,0.1436,0.1514,0.1719,0.3065,0.398,0.4484,0.4525,0.4897,0.576,0.6312,0.7074,0.799,0.9093,0.9598,0.9626,0.8503,0.7886,0.7738,0.8094,0.8201,0.8224,0.8533,0.8538,0.8359,0.8213,0.8719,0.9616,0.0,0.0,0.0,0.0,0.0,0.0,0.0,0.0,0.0,0.0,0.0,0.0,0.0,0.0,0.0,0.0,0.0,0.0,0.0,0.0,3.2559,3.3359,3.5898,3.7109,3.6699,3.709,3.6804,3.5795,3.5316,3.5321,3.5825,3.5874,3.5277,3.42,3.42,3.3665,3.275,3.2205,3.2096,3.2333,3.2333,3.2064,3.1723,3.1768,3.1086,3.0076,2.9927,0.0,0.0,0.0,0.0,0.0,0.0,0.0,2.832,2.5974,2.5225,2.4963,2.4164,2.4158,2.4633,2.5764,2.7479,2.8911,2.8783,2.8493,2.8006,2.721,2.7028,2.6931,2.6614,2.5369,2.3193,1.9584,1.6771,1.3411,0.8639,0.6963,0.5773,0.4544,0.4485,0.4619,0.4674,0.4376,0.4222,0.4297,0.3875,0.3337,0.2693,0.2643,0.2748,0.2852,0.3634,0.4174,0.4375,0.4681,0.5251,0.6036,0.6799,0.7859,0.9221,0.9599,0.9814,0.9769,0.9078,0.8613,0.8379,0.8651,0.8763,0.8788,0.912,0.9059,0.8825,0.9156,0.9426,0.9807,0.0,0.0,0.0,0.0,0.0,0.0,0.0,0.0,0.0,0.0,0.0,0.0,0.0,0.0,0.0,0.0,0.0,0.0,0.0,0.0,0.0,3.3555,3.5703,3.6504,3.5781,3.6484,3.6387,3.5435,3.5334,3.523,3.5176,3.559,3.5157,3.4045,3.3869,3.3066,3.1845,3.1263,3.1207,3.1487,3.1487,3.1487,3.1496,3.1565,3.0916,3.0009,3.0335,3.0273,3.0113,3.0412,0.0,0.0,0.0,0.0,2.7746,2.5901,2.4903,2.4302,2.3877,2.3789,2.4086,2.5197,2.6431,2.7269,2.6841,2.6773,2.6619,2.5937,2.6043,2.6255,2.6168,2.5401,2.3525,1.98,1.7574,1.4804,1.0352,0.8076,0.658,0.583,0.5642,0.5592,0.5601,0.4967,0.4631,0.4796,0.4125,0.3758,0.3758,0.3646,0.363,0.3652,0.3797,0.3966,0.417,0.488,0.5688,0.6582,0.7587,0.9013,1.0762,1.0364,1.0064,0.9969,0.9865,0.9413,0.8824,0.901,0.911,0.9137,0.9492,0.9323,0.9011,1.0099,1.0181,0.9886,0.0,0.0,0.0,0.0,0.0,0.0,0.0,0.0,0.0,0.0,3.2363,3.2617,0.0,0.0,0.0,0.0,0.0,0.0,3.0897,0.0,0.0,3.4453,3.4863,3.498,3.4883,3.498,3.4588,3.3651,3.357,3.4211,3.5537,3.531,3.4603,3.3466,3.2545,3.1722,3.0997,3.024,3.0179,3.0571,3.0641,3.066,3.0659,3.0719,3.0367,2.985,3.0132,2.9931,2.9588,3.0073,3.0296,0.0,0.0,0.0,2.7793,2.582,2.4831,2.4279,2.3689,2.3756,2.4173,2.5108,2.5308,2.5427,2.5989,2.548,2.4891,2.4949,2.5396,2.5675,2.5254,2.4833,2.3645,2.0911,1.8631,1.601,1.2476,1.0262,0.861,0.7583,0.7058,0.6573,0.6087,0.5524,0.5183,0.5217,0.4648,0.4296,0.4296,0.3846,0.3651,0.3775,0.3775,0.3897,0.3999,0.4645,0.5435,0.6452,0.8534,0.9953,1.0813,1.1316,1.1216,1.061,1.0064,0.9413,0.8811,0.8851,0.8864,0.8891,0.913,0.9207,0.9249,0.9914,1.0139,1.0089,0.0,0.0,0.0,0.0,0.0,0.0,0.0,0.0,0.0,0.0,0.0,3.1495,0.0,0.0,0.0,3.1219,3.0876,3.0679,3.0702,3.1562,3.2441,3.3262,3.373,3.3965,3.3965,3.3965,3.3758,3.3303,3.3239,3.3779,3.4864,3.4678,3.4914,3.5413,3.3877,3.2826,3.2165,3.0903,3.038,3.0398,3.0467,3.0506,3.0477,3.0403,3.0146,2.9782,2.9646,2.9495,2.9455,2.9772,3.0071,3.0044,2.8594,0.0,0.0,0.0,2.5067,2.4537,2.3476,2.3342,2.3549,2.349,2.3867,2.4308,2.4649,2.4506,2.4357,2.4462,2.4756,2.5032,2.5006,2.482,2.3951,2.1786,2.008,1.7749,1.4028,1.1912,1.0233,0.8859,0.8269,0.775,0.7161,0.6573,0.6112,0.583,0.526,0.4739,0.4434,0.4176,0.4083,0.4153,0.3848,0.4064,0.484,0.5173,0.6057,0.7544,0.9438,1.0517,1.0864,1.194,1.2039,1.1366,1.1065,1.0517,0.9917,0.9917,0.971,0.9375,0.951,0.9411,0.9216,0.9469,0.9733,0.9913,0.0,0.0,0.0,0.0,0.0,0.0,0.0,0.0,0.0,0.0,0.0,0.0,0.0,0.0,0.0,0.0,3.0607,3.0665,3.0664,3.1305,3.1738,3.1855,3.2441,3.2754,3.2754,3.2754,3.2734,3.2695,3.2588,3.3048,3.4013,3.4135,3.513,3.6732,3.488,3.3679,3.2938,3.1506,3.0804,3.0599,3.0285,3.0173,3.0161,2.9957,2.971,2.9448,2.9157,2.9079,2.9175,2.9398,2.9749,2.9844,2.8496,2.8131,0.0,0.0,0.0,2.4593,2.3274,2.2972,2.2886,2.213,2.2692,2.345,2.3544,2.3819,2.4094,2.417,2.4321,2.4526,2.4885,2.4905,2.4296,2.2519,2.132,1.9362,1.5766,1.369,1.2003,1.0391,0.9527,0.8869,0.8357,0.7634,0.7049,0.6647,0.5953,0.5346,0.487,0.4696,0.4652,0.4652,0.4224,0.4536,0.5545,0.5935,0.69,0.8427,1.0004,1.0813,1.0864,1.2264,1.2608,1.208,1.1864,1.1416,1.0813,1.0813,1.0415,0.9814,0.9814,0.9602,0.9343,0.9267,0.9596,1.0115,0.0,0.0,0.0,0.0,0.0,0.0,0.0,0.0,0.0,0.0,0.0,0.0,3.0698,3.0633,3.0587,3.051,3.0506,3.0537,3.0609,3.0704,3.082,3.0957,3.1016,0.0,3.1035,3.1035,3.1035,3.1016,3.0825,3.1604,3.3272,3.3898,3.4824,3.588,3.4185,3.3015,3.2204,3.1299,3.1027,3.113,2.9811,2.9273,2.9258,2.9032,2.8828,2.8689,2.8772,2.8646,2.8535,2.8968,2.927,2.9281,2.8303,2.8084,2.7838,0.0,0.0,0.0,2.3155,2.28,2.2529,2.172,2.2152,2.2815,2.3077,2.3428,2.3816,2.4133,2.4209,2.4339,2.4746,2.4956,2.4581,2.31,2.2116,2.0625,1.7976,1.5894,1.4105,1.2628,1.1082,0.9914,0.9478,0.8472,0.7829,0.7829,0.6774,0.6136,0.6093,0.5567,0.526,0.526,0.5216,0.537,0.5677,0.6847,0.7716,0.8427,1.0004,1.0813,1.0864,1.2264,1.2881,1.2822,1.208,1.1416,1.0813,1.0813,1.0415,0.9814,0.9814,0.9777,0.9725,0.9343,1.005,1.1172,0.0,0.0,0.0,0.0,0.0,0.0,0.0,0.0,0.0,0.0,0.0,0.0,0.0,3.0544,3.0506,3.0448,3.0487,3.0525,3.0602,3.0181,3.0214,3.0879,3.0351,3.0332,3.0898,3.0898,3.0898,3.0898,3.0735,3.1251,3.2362,3.2582,3.3058,3.3823,3.4642,3.416,3.2673,3.1975,3.1238,3.0566,3.0191,2.9976,2.9873,2.9584,2.9187,2.8742,2.8358,2.8166,2.8121,2.8421,2.8849,2.9079,2.8012,2.7894,2.7757,2.5781,2.4779,2.4204,2.3722,2.2976,2.2262,2.1967,2.2107,2.2327,2.2443,2.3088,2.3735,2.3837,2.4154,2.4478,2.4746,2.486,2.4764,2.4323,2.3509,2.2264,2.0323,1.8399,1.6403,1.4265,1.2666,1.125,1.006,0.9022,0.8275,0.7919,0.7154,0.6556,0.6221,0.6007,0.5873,0.5873,0.548,0.5629,0.6276,0.7474,0.8163,0.8427,1.0004,1.0813,1.0864,1.2264,1.2881,1.2881,1.2608,1.2353,1.2157,1.2157,1.1733,1.1065,1.1065,1.0813,1.0431,1.0298,1.0553,1.1009,0.0,0.0,0.0,0.0,0.0,0.0,0.0,0.0,0.0,3.0687,0.0,0.0,0.0,0.0,3.0467,3.0448,3.0487,3.0544,3.0602,3.0148,3.0156,3.08,3.0273,3.0254,3.0898,3.0898,3.0898,3.0898,3.0762,3.0957,3.1478,3.1703,3.1864,3.211,3.3866,3.389,3.256,3.1954,3.1383,3.0828,3.018,3.0121,3.0326,2.9658,2.8961,2.8293,2.794,2.7528,2.7198,2.7611,2.8004,2.8204,2.7535,2.7266,2.6928,2.5572,2.4763,2.4256,2.4008,2.3122,2.2235,2.1984,2.2046,2.2147,2.2096,2.2762,2.3392,2.3522,2.3903,2.4318,2.4579,2.4724,2.4868,2.5093,2.4482,2.3496,2.2156,2.0212,1.8152,1.6143,1.4223,1.2569,1.135,0.9997,0.894,0.8406,0.7714,0.707,0.652,0.6477,0.6477,0.6477,0.6212,0.6381,0.7019,0.7928,0.8568,0.886,1.016,1.0914,1.1166,1.2353,1.2881,1.2881,1.2881,1.2881,1.2881,1.2881,1.2452,1.1814,1.1814,1.1516,1.1116,1.0864,1.1124,1.1519,0.0,0.0,0.0,0.0,0.0,0.0,0.0,0.0,3.0625,3.0687,0.0,0.0,0.0,0.0,0.0,3.0487,3.0564,3.0595,3.0595,3.0564,3.0602,3.0682,3.0683,3.0742,3.0898,3.0898,3.0898,3.0898,3.0762,3.0669,3.0619,3.139,3.1451,3.0903,3.1751,3.1994,3.1712,3.1129,3.1381,3.1976,2.9741,2.9557,3.0428,2.9098,2.7992,2.7181,2.7435,2.6702,2.5678,2.6587,2.6783,2.6667,2.6939,2.6272,2.5381,2.5311,2.4811,2.4238,0.0,0.0,0.0,2.1803,2.1957,2.2248,2.213,2.2398,2.2797,2.3117,2.3477,2.3826,2.4222,2.4576,2.4922,2.5338,2.4904,2.4238,2.3437,2.1342,1.9419,1.8219,1.5715,1.3895,1.3362,1.1386,0.9904,0.9349,0.8445,0.767,0.7034,0.7027,0.6979,0.6979,0.7352,0.7661,0.7929,0.8272,0.891,0.9814,1.0517,1.1166,1.1814,1.2559,1.2881,1.2881,1.2881,1.2881,1.2881,1.2881,1.2501,1.1814,1.1814,1.1814,1.1765,1.1116,1.1742,1.2774,0.0,0.0,0.0,0.0,0.0,3.0621,3.0621,3.0525,3.0509,0.0,0.0,0.0,3.1441,3.1217,3.0891,3.0475,3.0491,3.0528,3.0528,2.9976,2.9946,3.0604,3.0125,3.0117,3.0742,3.0859,3.0898,3.0898,3.0859,3.0767,3.06,3.0839,3.0682,3.025,3.0513,3.0478,3.0302,3.077,3.1097,3.1265,3.0484,3.0197,3.0136,2.9026,2.7535,2.606,2.6225,2.5567,2.4792,2.6133,2.6852,2.72,2.7314,2.6427,2.5283,2.5012,2.4639,2.4222,2.3832,0.0,0.0,0.0,0.0,0.0,2.182,2.2224,2.2797,2.3117,2.3477,2.3862,2.4352,2.4556,2.4771,2.5127,2.5,2.469,2.4164,2.2912,2.1358,1.9526,1.7508,1.5657,1.3986,1.2278,1.0801,0.0,0.879,0.8041,0.7385,0.7141,0.6979,0.6979,0.7701,0.8243,0.8609,0.9356,0.9982,1.0517,1.1216,1.1616,1.1814,1.2559,1.2881,1.2881,1.2881,1.2881,1.2881,1.2881,1.2774,1.2608,1.2608,1.2608,1.2559,1.2412,1.2569,1.2881,0.0,0.0,0.0,0.0,0.0,3.1013,3.066,3.0789,3.0855,0.0,0.0,0.0,3.1787,3.1828,3.1563,3.0891,3.0644,3.053,3.0492,3.0051,3.0021,3.0544,3.0144,3.0157,3.0684,3.0781,3.084,3.0898,3.0898,3.0816,3.0641,3.0616,3.0419,3.0073,2.9935,2.9861,2.9848,3.0319,3.0685,3.0956,3.0325,3.0185,3.014,2.8737,2.7041,2.5425,2.5346,2.474,2.4089,2.4934,2.5999,2.6889,2.6638,2.6157,2.5699,2.5587,2.4962,2.4222,2.3835,2.3234,2.2626,2.2415,0.0,0.0,2.2108,2.2286,2.259,2.2798,2.3063,2.3446,2.3987,2.4228,2.4516,2.5015,2.5038,2.4887,2.4579,2.3676,2.2517,2.1065,1.9163,1.7269,1.5371,1.3625,1.1993,1.051,0.9813,0.9105,0.8305,0.8068,0.7864,0.7731,0.8211,0.8715,0.9236,0.9721,1.0406,1.1216,1.1616,1.1972,1.2295,1.2715,1.2881,1.2929,1.3152,1.3286,1.3286,1.3286,1.3152,1.2881,1.2881,1.2881,1.2881,1.2881,1.2881,1.2881,0.0,0.0,3.0671,3.0611,3.1236,3.1482,3.0725,3.1134,3.1365,0.0,3.1411,3.2081,3.2619,3.2603,3.2238,3.1499,3.0922,3.0564,3.0506,3.0482,3.0451,3.0451,3.0456,3.0516,3.0637,3.0683,3.0762,3.0879,3.0898,3.082,3.0703,3.0622,3.0471,3.0213,2.9905,2.988,3.0037,2.9931,3.0258,3.0769,2.973,2.9792,3.024,2.8285,2.6502,2.5047,2.4626,2.4054,2.3518,2.3615,2.4713,2.5915,2.5524,2.5747,2.6186,2.6486,2.5521,2.4288,2.3934,2.3343,2.2797,2.2772,2.2581,0.0,2.2712,2.2581,2.2405,2.2443,2.2643,2.2986,2.3487,2.3833,2.4245,2.4917,2.4995,2.4927,2.4764,2.3998,2.3202,2.2534,2.06,1.8708,1.7156,1.5271,1.3488,1.1799,1.1168,1.041,0.9416,0.9348,0.9206,0.8848,0.884,0.9207,0.9881,0.9893,1.0565,1.1922,1.1922,1.2286,1.3017,1.3017,1.3017,1.3104,1.3695,1.3909,1.3909,1.3815,1.3457,1.2968,1.2929,1.2881,1.2881,1.2881,1.2881,1.2881,3.066,3.0646,3.0624,3.0599,3.0704,3.0732,3.0631,3.0623,3.0888,3.1565,3.2476,3.327,3.381,3.2861,3.2069,3.1738,3.0987,3.0506,3.0506,3.036,3.0204,3.0095,3.019,3.0263,3.0289,3.057,3.0703,3.0742,3.0859,3.082,3.0703,3.0624,3.0537,3.0436,3.0318,3.0286,3.0323,3.0414,3.0249,2.9964,3.0113,2.9966,2.9422,2.7709,2.5931,2.4342,2.3932,2.3392,2.3043,2.4287,2.4414,2.4373,2.6172,2.5938,2.5196,2.6163,2.561,2.462,2.4155,2.3783,2.3437,2.3165,2.3045,0.0,2.3093,2.3063,2.3087,2.3364,2.3477,2.361,2.3979,2.4114,2.4266,2.4561,2.4739,2.488,2.4996,2.463,2.3963,2.2927,2.1524,1.9857,1.7824,1.6571,1.5175,1.3382,1.1995,1.0775,0.9829,0.9768,0.9734,0.9667,0.9769,1.024,1.1064,1.1174,1.1719,1.2666,1.2666,1.3035,1.3637,1.3637,1.3873,1.434,1.4468,1.4514,1.4468,1.4003,1.3732,1.36,1.3104,1.2881,1.2881,1.2881,1.2881,1.2881,3.0794,3.1005,3.1114,3.0676,3.0923,3.1059,3.0662,3.0876,3.1282,3.1835,3.2775,3.3488,3.3775,3.2768,3.2071,3.2007,3.1082,3.0502,3.0501,3.0297,3.0145,2.9999,2.9961,3.0027,3.0206,3.0354,3.0521,3.0654,3.0758,3.0762,3.0703,3.0626,3.0374,2.9971,3.0132,3.0037,2.9825,3.0159,3.015,2.9944,2.991,2.9392,2.8492,2.7214,2.5654,2.4138,2.3719,2.2951,2.2439,2.3834,2.4213,2.4364,2.5615,2.5833,2.5758,2.6378,2.5784,2.4839,2.4327,2.4062,2.384,2.3526,2.3401,0.0,0.0,2.3401,2.3365,2.3437,2.3437,2.3544,2.3896,2.4039,2.4229,2.4591,2.4828,2.5012,2.5182,2.4904,2.4441,2.3674,2.2538,2.1013,1.898,1.8009,1.6703,1.4722,1.3613,1.2706,1.2014,1.1985,1.1885,1.1667,1.1427,1.1774,1.274,1.2491,1.2691,1.3324,1.3658,1.3789,1.3815,1.4097,1.4422,1.4709,1.5017,1.5141,1.5152,1.4824,1.4675,1.4595,1.3382,1.3055,1.3334,1.3017,1.2881,1.2881,3.116,3.146,3.1605,3.0755,3.1157,3.1375,3.0695,3.1074,3.1562,3.1911,3.2939,3.3658,3.3721,3.2959,3.2614,3.2975,3.1497,3.0689,3.1028,3.0395,2.9872,2.958,2.9547,2.9595,2.9761,3.0042,3.0326,3.0574,3.0654,3.0696,3.0703,3.0648,3.0263,2.9635,2.996,2.9864,2.9481,2.9917,3.0117,3.0097,2.9646,2.8861,2.7855,2.696,2.573,2.446,2.383,2.2822,2.2001,2.3288,2.4071,2.4612,2.527,2.5892,2.648,2.683,2.608,2.5027,2.4591,2.4339,2.4133,2.3901,2.3769,2.3715,0.0,0.0,0.0,2.3541,2.3516,2.3581,2.3864,2.4024,2.43,2.4734,2.4988,2.509,2.5043,2.4797,2.4551,2.4332,2.3235,2.1856,2.0258,1.9221,1.7846,1.596,1.5452,1.4989,1.454,1.4454,1.4184,1.3815,1.3169,1.327,1.4214,1.3619,1.3534,1.3956,1.4468,1.4514,1.4179,1.4641,1.4926,1.5062,1.5555,1.5764,1.5764,1.5632,1.5676,1.5588,1.3931,1.3563,1.3909,1.343,1.3248,1.3248,3.2177,3.1913,3.1568,3.0739,3.0586,3.0564,3.0515,3.0342,3.0684,3.2005,3.3515,3.4576,3.4872,3.4182,3.4311,3.5788,3.2712,3.1352,3.2966,3.0724,2.8923,2.8003,2.8584,2.8711,2.8257,2.9522,3.0306,3.0513,3.0653,3.0697,3.0703,3.0683,3.0609,3.0448,3.0441,3.0421,3.0367,3.0423,3.0211,2.9842,2.9782,2.9126,2.8092,2.732,2.6505,2.5628,2.4441,2.3248,2.2417,2.362,2.3798,2.3932,2.6623,2.6666,2.5995,2.7421,2.6596,2.5157,2.5033,2.4784,2.4505,2.4447,2.4408,2.4389,2.4408,0.0,2.4663,2.4613,0.0,2.4632,2.4682,0.0,0.0,2.4794,2.5009,2.492,2.4179,2.4022,2.4083,2.4267,2.3031,2.1879,2.12,1.971,1.8293,1.7083,1.6959,1.6658,1.6093,1.5615,1.531,1.5251,1.4399,1.4138,1.4619,1.4194,1.4183,1.4606,1.4652,1.4926,1.541,1.5454,1.5776,1.6293,1.638,1.638,1.638,1.582,1.5908,1.6281,1.4971,1.4525,1.4606,1.4525,1.4479,1.4479,3.1568,3.159,3.1565,3.0799,3.0451,3.0307,3.0364,3.1053,3.1447,3.1085,3.262,3.3589,3.3172,3.2497,3.2714,3.428,3.2486,3.158,3.2262,3.0695,2.9314,2.8378,2.8487,2.8534,2.8482,2.9412,3.0056,3.0333,3.0541,3.0665,3.0704,3.0706,3.0417,2.9926,3.0314,3.026,2.9899,3.0278,3.0219,2.9849,2.9765,2.8897,2.7576,2.7091,2.599,2.4623,2.4221,2.3258,2.2311,0.0,2.3786,2.4167,2.557,2.6116,2.6284,2.6496,2.5995,2.5334,2.5149,2.4908,2.4701,0.0,0.0,0.0,2.4673,0.0,2.4998,0.0,0.0,0.0,0.0,0.0,0.0,0.0,2.52,2.5215,2.4764,2.4135,2.3798,2.399,2.308,2.2285,2.181,2.0639,1.9637,1.9002,1.8654,1.8275,1.7783,1.7544,1.7289,1.7014,1.6296,1.6014,1.6219,1.5697,1.5362,1.5231,1.5567,1.5688,1.5632,1.5952,1.6238,1.6522,1.6522,1.6522,1.6466,1.6238,1.6281,1.6436,1.592,1.5511,1.5186,1.4835,1.4698,1.4698,3.1261,3.1457,3.1567,3.0797,3.0411,3.0199,3.0202,3.1087,3.1445,3.0601,3.1995,3.2809,3.2123,3.1897,3.2389,3.3847,3.2847,3.2123,3.2105,3.0805,2.9448,2.816,2.8084,2.818,2.8333,2.9134,2.975,3.019,3.0475,3.0623,3.0691,3.0735,3.0394,2.9751,3.0298,3.0229,2.9764,3.0199,3.0212,2.9883,2.9751,2.853,2.6738,2.641,2.5214,2.372,2.3842,2.3221,2.2443,2.3273,2.3981,0.0,2.5105,2.5818,2.6422,2.5933,2.5642,2.541,2.5146,0.0,0.0,0.0,0.0,0.0,0.0,0.0,0.0,0.0,0.0,0.0,0.0,0.0,2.5226,2.521,0.0,2.5398,2.5043,2.4282,2.3853,2.411,2.35,2.2901,2.247,2.1628,2.0924,2.0589,2.0091,1.9712,1.9403,1.9163,1.8844,1.8507,1.7813,1.7464,1.7504,1.7066,1.6676,1.6293,1.6727,1.6714,1.6305,1.6727,1.6951,1.6951,1.6951,1.6951,1.6951,1.6951,1.6951,1.6909,1.6795,1.6429,1.6027,1.541,1.5197,1.5197,3.1873,3.1825,3.1541,3.074,3.0378,3.0145,2.9938,2.9621,2.9861,3.1111,3.2231,3.2926,3.2949,3.3798,3.493,3.6344,3.443,3.3277,3.3613,3.1282,2.882,2.6387,2.6966,2.7285,2.717,2.8458,2.9476,3.019,3.0472,3.0637,3.0691,3.0833,3.0767,3.0555,3.0598,3.0583,3.054,3.045,3.0212,2.9883,2.9751,2.8077,2.5612,2.522,2.4499,2.3671,2.3499,0.0,0.0,2.3715,2.4327,0.0,0.0,0.0,0.0,0.0,0.0,0.0,0.0,0.0,0.0,2.4798,0.0,0.0,0.0,0.0,2.5484,0.0,0.0,0.0,2.5485,2.5534,2.5557,2.5502,2.5551,0.0,0.0,2.4206,2.4379,2.4889,2.4372,2.3781,2.3295,2.2538,2.1893,2.1497,2.1133,2.0959,2.0926,2.0078,1.957,1.9534,1.8584,1.8052,1.8066,1.8066,1.8027,1.8013,1.8027,1.8027,1.8013,1.8027,1.8066,1.8066,1.8066,1.8066,1.8066,1.8066,1.8066,1.7987,1.7463,1.7271,1.7188,1.6625,1.6423,1.6423,3.2221,3.1708,3.1285,3.1306,3.0525,2.9839,2.9704,3.0646,3.1585,3.2283,3.2974,3.3707,3.4662,3.4325,3.4699,3.6555,3.4958,3.3826,3.3876,3.2195,3.009,2.7757,2.7895,2.7914,2.7647,2.8603,2.9401,3.0007,3.0367,3.064,3.0825,3.0795,3.0708,3.0594,3.0598,3.0602,3.0579,3.0469,3.0311,3.0032,2.8454,2.7258,2.6313,0.0,2.4378,2.3107,2.3573,2.349,0.0,2.362,2.4135,2.461,2.4849,2.5041,2.5185,2.516,2.4943,0.0,0.0,0.0,2.4817,2.4964,0.0,0.0,0.0,0.0,0.0,0.0,0.0,0.0,0.0,2.5544,2.5531,2.5503,2.5485,2.5332,0.0,2.4928,2.4905,2.4872,2.4674,2.4279,2.3632,2.332,2.301,2.2651,2.2522,2.2228,2.1753,2.1437,2.1037,2.0534,1.9904,1.939,1.9096,1.8788,1.8458,1.8106,1.8106,1.8106,1.8106,1.8106,1.8106,1.8106,1.8106,1.8106,1.8106,1.8106,1.8106,1.8066,1.7907,1.7827,1.7706,1.6837,1.6522,1.6522,3.1544,3.0566,3.0007,3.1243,3.0772,3.0377,3.0821,3.2277,3.3442,3.3713,3.4286,3.4873,3.5597,3.4915,3.494,3.6288,3.5312,3.4296,3.343,3.2509,3.0827,2.8304,2.7944,2.7774,2.7695,2.825,2.8912,2.9715,3.0236,3.0618,3.0821,3.0736,3.0658,3.0607,3.0617,3.0641,3.0617,3.0489,3.0204,2.9663,2.7683,2.6508,2.5888,0.0,2.42,2.2993,0.0,2.3189,2.3069,2.3259,2.3531,2.37,2.3418,2.3303,2.3195,2.2902,2.3102,2.342,2.3695,2.4182,0.0,2.4992,2.5116,0.0,2.5466,0.0,2.5644,0.0,0.0,0.0,0.0,2.5582,2.5535,2.5505,2.5432,2.539,0.0,2.5303,2.519,2.4847,2.4804,2.4604,2.4041,2.3819,2.361,2.3392,2.3277,2.3003,2.2513,2.2245,2.1869,2.1428,2.083,2.04,2.0112,1.9798,1.9405,1.8873,1.8873,1.8812,1.865,1.865,1.865,1.865,1.865,1.865,1.865,1.865,1.865,1.865,1.8458,1.838,1.8302,1.7394,1.7076,1.7034,2.9828,2.8508,2.7906,3.0516,3.1117,3.167,3.2936,3.4211,3.5066,3.5322,3.6006,3.6285,3.5844,3.5647,3.5583,3.5646,3.5497,3.4519,3.2395,3.2215,3.0881,2.7923,2.7045,2.6824,2.7251,2.7392,2.8064,2.9338,3.01,3.0533,3.0633,3.0685,3.0644,3.0547,3.0649,3.0679,3.0617,3.0501,2.9866,2.8848,2.7476,2.5962,2.4506,2.4382,2.3946,2.3308,2.2592,2.25,2.2721,2.2703,2.2626,2.2479,2.2099,2.1225,2.0217,1.9845,2.0444,2.1292,2.1609,2.2858,2.4216,2.4757,0.0,0.0,0.0,0.0,2.5546,0.0,0.0,0.0,0.0,0.0,2.5582,2.5505,2.5447,2.536,2.5303,2.5274,2.5149,2.4799,2.4741,2.4632,2.4495,2.3983,2.3692,2.3692,2.3392,2.3212,2.3212,2.26,2.2197,2.2152,2.1475,2.1087,2.1055,2.1023,2.0797,2.0348,2.0314,2.0089,1.9726,1.9726,1.969,1.969,1.969,1.969,1.969,1.969,1.969,1.9639,1.9132,1.893,1.8855,1.8302,1.8106,1.8027,2.6568,2.683,2.7827,3.0144,3.1231,3.1898,3.2245,3.3723,3.5078,3.5948,3.5966,3.6319,3.7298,3.5934,3.4944,3.5017,3.4032,3.2914,3.1876,3.0782,2.9566,2.8108,2.6508,2.5911,2.6472,2.6668,2.7321,2.842,2.957,3.0013,2.9809,3.0376,3.032,2.9804,3.0427,3.0359,2.9794,2.9655,2.9233,2.8531,2.7573,2.6792,2.5976,0.0,2.345,2.3321,2.2784,2.2815,2.3045,2.2728,2.218,2.1487,2.0661,1.9058,1.7277,1.6395,1.6725,1.7554,1.8506,1.9926,2.1491,2.3057,2.3156,2.312,0.0,0.0,0.0,0.0,0.0,0.0,0.0,0.0,2.5524,2.5495,2.5409,2.5273,2.5099,2.4924,2.4639,2.4243,2.3724,2.3521,2.3864,2.3548,2.3414,2.3692,2.361,2.3566,2.3566,2.3968,2.3797,2.2947,2.2801,2.2434,2.1811,2.1274,2.0926,2.0829,2.0483,2.0246,2.0124,1.9854,1.969,1.969,1.969,1.969,1.969,1.969,1.969,1.969,1.9566,1.9479,1.9369,1.8458,1.8106,1.8066,2.5334,2.6337,2.7775,2.9513,3.108,3.2435,3.3544,3.455,3.5515,3.6328,3.5765,3.5481,3.6067,3.4257,3.2967,3.3026,3.169,3.033,2.9124,2.8786,2.7872,2.6154,2.4981,2.4652,2.5162,2.5255,2.5942,2.7308,2.8685,2.9387,2.9472,3.0278,3.0414,3.0054,3.0554,3.0536,3.0069,2.9191,2.8558,2.8044,2.6729,2.5871,0.0,2.3756,2.3067,2.288,2.26,2.2643,2.273,2.23,2.1578,2.0607,1.934,1.7159,1.4809,1.3365,1.3974,1.5136,1.5483,1.7739,2.0246,2.1281,2.1675,2.1979,2.269,2.3457,2.4163,0.0,0.0,0.0,0.0,0.0,0.0,2.5428,2.5282,2.5019,2.4571,2.4105,2.3492,2.2584,2.2021,2.1708,2.1661,2.2435,2.3064,2.3406,2.3592,2.3756,2.3917,2.4208,2.4078,2.3432,2.318,2.2826,2.2388,2.1832,2.1462,2.1244,2.1007,2.0781,2.0583,2.0364,2.0139,1.9965,1.9965,1.9874,1.969,1.969,1.969,1.969,1.969,1.969,1.9639,1.9006,1.8817,1.8765,2.5164,2.6294,2.7519,2.8783,3.0666,3.2764,3.5105,3.5676,3.592,3.6203,3.5121,3.4056,3.3419,3.1451,3.0091,3.0018,2.8769,2.7225,2.541,2.6182,2.5654,2.339,2.2881,2.2962,2.3555,2.3435,2.4294,2.6186,2.7528,2.8534,2.9199,3.0118,3.0488,3.0404,3.0749,3.0762,3.0469,2.8867,2.7948,2.7379,2.5687,2.4487,2.3699,2.3356,2.2865,2.2349,2.231,2.2254,2.2135,2.1688,2.0847,1.9732,1.8086,1.5557,1.2769,1.0899,1.1893,1.3374,1.252,1.5702,1.9257,1.917,1.9914,2.0748,2.0996,2.2265,2.3429,2.3624,2.4523,2.5259,0.0,0.0,2.533,2.5262,2.5077,2.4623,2.3722,2.2894,2.182,2.0221,1.9798,0.0,1.8661,2.077,2.2349,2.2772,2.317,2.3574,2.4018,0.0,2.3822,2.3774,2.336,2.304,2.2822,2.262,2.2259,2.1744,2.1642,2.143,2.1086,2.1023,2.0797,2.0382,2.0382,2.0193,1.9889,1.9818,1.9747,1.969,1.969,1.969,1.969,1.969,1.969,1.9639,2.4657,2.5068,2.6107,2.8232,3.0028,3.1644,3.2959,3.4466,3.5182,3.4535,3.3085,3.1845,3.1008,2.8712,2.6859,2.5864,2.5118,2.4141,2.2855,2.2419,2.2164,2.2081,2.0628,2.0433,2.1736,2.1674,2.2889,2.5488,2.6182,2.7033,2.8028,2.912,2.9299,2.8774,3.0253,3.0098,2.873,2.8359,2.7598,2.6605,2.6255,2.5623,2.4805,2.3825,2.31,2.2599,2.2388,2.2032,2.1658,2.1244,2.0203,1.8734,1.7088,1.444,1.1544,0.9524,1.0084,1.1013,0.9891,1.2413,1.5433,1.563,1.6222,1.7228,1.8933,2.0041,2.1012,2.219,2.3274,2.4031,2.4031,0.0,0.0,0.0,0.0,0.0,0.0,2.0977,1.9599,1.7809,1.7033,1.6586,1.6465,1.8586,2.0285,2.1059,2.1475,2.2192,2.3239,0.0,2.4505,0.0,2.5018,0.0,0.0,0.0,2.329,2.2495,2.189,2.1552,2.1491,2.115,2.0975,2.0862,2.0862,2.0829,2.0731,2.0348,2.0,1.969,1.969,1.969,1.969,1.969,1.969,1.969,2.4928,2.4962,2.5869,2.8526,2.9639,3.0751,0.0,3.2724,3.2647,3.2313,3.0253,2.8425,2.7399,2.5356,2.3714,2.2879,2.195,2.0908,1.9733,1.9642,1.9407,1.8997,1.8438,1.8516,1.9465,2.0071,2.136,2.3389,2.4563,2.5963,2.7462,2.8709,2.9383,2.9551,3.0019,2.9766,2.8906,2.7988,0.0,2.661,2.6014,2.5442,2.4847,2.4063,2.3382,2.2803,2.2351,2.182,2.1244,2.1055,2.0353,1.9214,1.7343,1.4829,1.213,1.0186,1.0971,1.1929,0.9834,1.2239,1.5226,1.4772,1.5346,1.637,1.7532,1.9083,2.0354,2.0728,2.177,2.2738,2.3116,2.4005,0.0,0.0,0.0,0.0,0.0,0.0,1.7791,1.597,1.516,1.4763,1.4798,1.6111,1.7658,1.9325,2.0289,2.1383,2.2625,0.0,2.4436,0.0,0.0,0.0,2.4942,0.0,0.0,2.3568,2.2816,2.2424,2.2415,2.204,2.177,2.1562,2.1383,2.1181,2.0991,2.0764,2.0565,2.0379,2.0379,2.0243,2.0,2.0,1.9874,1.969,2.5743,2.5751,2.6566,2.8396,2.9295,3.0032,3.1054,3.0379,2.9785,2.9807,2.7357,2.5192,2.4065,2.2287,2.1016,2.0785,1.9514,1.828,1.7252,1.7503,1.7183,1.6102,1.6426,1.6907,1.749,1.8418,1.9775,0.0,0.0,0.0,0.0,2.8296,2.9544,3.0449,2.9863,0.0,0.0,0.0,2.6855,2.6522,2.5643,2.5084,2.4745,2.4324,2.3822,2.3218,2.2617,2.2005,2.1409,2.1274,2.0652,1.9637,1.7993,1.5807,1.3528,1.2035,1.2882,1.3703,1.0904,1.3004,1.5654,1.438,1.5016,1.6081,1.6503,1.8374,1.9856,1.9321,2.0408,2.1713,2.2538,2.3578,0.0,0.0,0.0,0.0,0.0,0.0,1.6652,1.4822,1.4046,1.3752,1.3914,1.44,1.5521,1.7573,1.9051,2.0476,2.1881,2.3076,2.4198,0.0,0.0,2.5574,2.6191,0.0,2.4497,2.4497,2.3626,2.3189,2.3189,2.2848,2.2521,2.2207,2.1907,2.1507,2.1118,2.1118,2.1086,2.0991,2.0991,2.0748,2.0449,2.0449,2.0193,1.9854,2.6996,2.7968,2.8393,2.6793,2.866,2.9607,2.7311,2.7269,2.746,2.7239,2.5101,2.3217,2.2225,2.027,1.9251,1.985,1.845,1.7264,1.6524,1.6101,1.5534,1.488,1.4915,1.5431,1.6524,1.6663,1.8198,0.0,0.0,2.3265,0.0,2.7412,2.8903,0.0,0.0,0.0,0.0,2.707,2.6474,2.5636,2.5585,2.5366,2.5033,2.4803,2.4536,2.4207,2.3667,2.3175,2.274,2.2184,2.0686,1.8962,1.8579,1.6995,1.5151,1.4949,1.509,1.486,1.2576,1.3547,1.4799,1.3129,1.3778,1.5019,1.5723,1.7208,1.8327,1.7957,1.9524,2.1289,2.2417,2.3529,2.4351,0.0,0.0,0.0,0.0,0.0,1.6758,1.4776,1.4025,1.3896,1.4383,1.4585,1.5039,1.578,1.7223,1.884,2.0749,2.2722,2.4141,2.4906,2.5932,2.6478,2.6551,2.5411,2.4838,2.4838,2.372,2.3189,2.3189,2.2848,2.2695,2.2643,2.2354,2.1974,2.1552,2.1552,2.1337,2.0991,2.0991,2.0959,2.0926,2.0926,2.0616,2.0246,0.0,0.0,0.0,0.0,0.0,0.0,0.0,2.5938,2.503,2.3695,2.3354,2.2765,2.179,2.0023,1.9018,1.9283,1.7827,1.6707,1.6441,1.5567,1.4778,1.419,1.4143,1.4549,1.5342,1.6046,1.7354,0.0,0.0,0.0,0.0,0.0,0.0,0.0,0.0,2.7637,2.6915,2.6384,2.5896,2.5493,2.534,2.5222,2.5055,2.4736,2.4421,2.4082,2.3593,2.3244,2.2978,2.2815,2.1746,2.0405,1.9767,1.8709,1.7653,1.7314,1.7878,1.809,1.5628,1.6005,1.6778,1.558,1.5501,1.5958,1.6864,1.7651,1.8067,1.7546,1.8485,1.9726,2.0842,2.2189,2.3281,0.0,0.0,0.0,0.0,0.0,1.7166,1.6081,1.5183,1.4888,1.5528,1.562,1.5901,1.652,1.705,1.825,2.0303,2.1624,0.0,2.5768,0.0,2.6644,2.731,2.6395,2.5673,2.5181,2.4257,2.3795,2.3795,2.3437,2.3069,2.2695,2.2426,2.218,2.2032,2.2032,2.1945,2.1781,2.1781,2.1615,2.1368,2.1368,2.1086,2.0682,2.8197,0.0,2.5837,0.0,2.5534,2.4905,2.4943,2.4366,2.3253,2.1579,2.197,2.1931,2.0748,1.912,1.8263,1.8635,1.7304,1.6336,1.6076,1.5132,1.4294,1.3563,1.3552,0.0,1.4422,1.5196,1.6255,1.7531,1.9315,0.0,0.0,0.0,0.0,0.0,2.6914,2.6593,2.627,2.5672,2.5354,2.5274,2.5106,2.4975,2.4879,2.4599,2.4283,2.3926,2.3535,2.3271,2.3149,2.326,2.2793,2.2039,2.1147,2.0317,1.9687,1.9451,2.0083,2.0401,1.8313,1.8193,1.8485,1.7762,1.7276,1.7142,1.7822,1.8263,1.8347,1.759,1.8013,1.8901,2.0168,2.1571,2.2707,2.3275,0.0,0.0,0.0,1.9272,0.0,1.7638,1.6585,1.6076,1.6545,1.6587,1.6778,1.7211,1.7508,1.8381,1.9935,0.0,0.0,0.0,0.0,0.0,2.7616,2.6716,2.5952,2.5403,2.4575,2.419,2.419,2.3735,2.3236,2.2695,2.2426,2.231,2.231,2.231,2.231,2.231,2.231,2.2106,2.1794,2.1794,2.1538,2.1118,2.7343,2.7128,2.6453,2.4249,2.4079,2.3482,2.1368,2.1939,2.2335,2.1592,2.1029,2.0184,1.881,1.7082,1.652,1.7792,1.6906,1.599,1.5245,1.4692,1.3957,0.0,0.0,1.319,1.3815,1.3815,1.4664,1.6421,0.0,0.0,2.0397,0.0,2.5066,2.5176,2.5898,2.573,2.4911,2.4911,2.4874,2.481,2.4873,2.4703,2.443,2.4486,2.4257,2.3866,2.3683,2.3539,2.3483,2.3506,2.3533,2.3441,2.2627,2.1585,2.0782,2.1297,2.1323,2.1022,2.0197,1.9634,1.9195,1.8781,1.8489,1.8253,1.8115,1.8757,1.9085,1.8,1.8329,1.932,2.1074,2.2158,2.3018,2.3683,0.0,0.0,0.0,2.038,0.0,1.9194,1.8045,1.7271,1.7312,1.7312,1.7312,1.7325,0.0,0.0,0.0,0.0,0.0,2.4347,2.5119,0.0,2.7211,2.6005,2.5421,2.5403,2.4575,2.419,2.417,2.3522,2.3021,2.2695,2.2426,2.231,2.231,2.231,2.231,2.231,2.231,2.231,2.2282,2.2282,2.2003,2.1582,2.81,2.6605,2.5093,2.4184,2.2705,2.1202,1.9897,2.0196,2.0348,1.9655,1.8774,1.8043,1.7728,1.7223,1.6895,0.0,1.6112,1.5397,0.0,1.4524,1.3967,1.2949,1.2881,1.32,1.3779,1.3815,1.4272,1.5219,0.0,0.0,0.0,2.1182,2.2179,2.2858,2.3145,2.3284,2.3362,2.3679,2.3761,2.3728,2.3877,2.3873,2.3764,2.3669,2.3531,2.343,2.351,2.3566,2.3628,2.3948,2.4005,2.3923,2.3793,2.327,2.2737,2.2994,2.3217,2.3198,2.2339,2.1478,2.0696,2.0296,1.9311,1.849,1.8736,1.8547,1.8082,1.7272,1.7692,1.877,2.0644,2.146,2.2014,2.2555,2.1933,0.0,2.0197,0.0,1.8741,1.8301,1.7987,1.7639,1.7287,1.7558,1.8288,1.9542,0.0,0.0,0.0,0.0,0.0,0.0,2.5412,0.0,2.6369,2.6279,2.5658,2.4575,2.4318,2.419,2.419,2.3735,2.3369,2.3021,2.273,2.2463,2.231,2.231,2.231,2.231,2.231,2.231,2.231,2.231,2.2209,2.2032,2.7769,2.5572,2.351,2.3102,2.0925,1.9019,1.8489,1.8646,1.8713,1.8333,1.7687,1.7021,1.6585,1.6516,0.0,1.572,1.5214,1.4746,1.4223,1.4123,1.373,1.2949,1.2881,1.3055,1.3467,1.3457,0.0,1.4376,1.5577,1.6803,1.8083,1.8857,1.9542,2.0156,2.0466,2.0901,2.1432,2.1702,2.2065,2.2422,2.2544,2.274,2.2976,2.2828,2.2822,2.2883,2.2992,2.3126,2.3316,2.3676,2.3855,2.3898,2.392,2.3648,2.3431,2.3914,2.4299,2.4423,2.3647,2.2656,2.1745,2.1358,2.0148,1.9058,1.9152,1.8442,1.7682,1.7403,1.7726,1.8729,2.079,2.1208,2.1366,2.181,2.1056,2.0293,1.9941,0.0,1.9073,0.0,0.0,0.0,0.0,1.8009,1.8864,0.0,0.0,0.0,0.0,0.0,0.0,2.3733,2.4763,0.0,2.535,2.5885,2.5493,2.419,2.419,2.419,2.419,2.3837,2.3588,2.3369,2.2898,2.2599,2.2436,2.2349,2.231,2.231,2.231,2.231,2.231,2.231,2.231,2.2254,2.6415,2.409,2.1926,0.0,1.8897,0.0,1.7054,1.7213,1.7324,1.7346,1.7313,1.6721,1.5226,1.4997,1.4758,1.4341,0.0,0.0,0.0,1.3486,1.332,1.29,1.2881,1.2881,1.2881,1.2881,1.32,1.3732,1.4824,1.5351,1.5351,1.6585,1.7145,1.7149,1.7863,1.8494,1.9043,1.9132,1.9791,2.0801,2.0923,2.1354,2.1967,2.204,2.2136,2.2254,2.2282,2.2463,2.2703,2.2898,2.3223,2.3476,2.3168,2.2965,2.3082,2.407,2.4545,2.4605,2.406,2.3144,2.2259,2.1933,2.0844,1.9756,1.9363,1.8486,1.7842,1.8149,1.837,1.9165,2.1403,2.1325,2.1056,2.1447,2.0634,2.0087,2.0528,2.0223,2.0116,0.0,0.0,0.0,0.0,1.8541,1.9067,0.0,0.0,0.0,0.0,0.0,2.14,2.2064,2.3414,2.4196,2.4307,2.5059,2.4999,2.419,2.417,2.417,2.419,2.3837,2.3692,2.3671,2.3045,2.2746,2.2669,2.2426,2.2338,2.231,2.231,2.231,2.231,2.231,2.231,2.231,0.0,0.0,2.1482,2.0568,1.7849,1.5655,1.5482,1.5122,1.4869,1.4675,1.4292,1.4058,1.3972,1.3171,1.2769,1.3214,1.3561,1.3511,1.3047,1.333,1.332,1.29,1.2881,1.2881,1.2881,1.2881,1.2978,1.3104,1.383,1.393,1.3448,1.4209,1.4499,1.4435,1.4628,1.498,1.5539,1.6363,1.7141,1.7927,1.9226,2.0104,2.0719,2.1456,2.1731,2.1794,2.218,2.2349,2.2409,2.2695,2.283,2.2891,2.2683,2.263,2.2655,2.2966,2.3016,2.3014,2.3061,2.2372,2.1607,2.1477,2.0391,1.9314,1.9112,1.8728,1.8413,1.8489,1.8914,1.9796,2.1629,2.1546,2.13,2.1591,2.0415,1.9481,1.9535,1.9564,1.9505,0.0,1.9365,1.9075,1.8458,1.8544,1.9519,0.0,0.0,0.0,0.0,2.3092,2.2831,2.2131,2.356,2.439,2.4538,2.5254,2.5153,2.4208,2.3937,2.3937,2.419,2.3837,2.3692,2.3692,2.3522,2.3165,2.2695,2.2634,2.2473,2.231,2.231,2.231,2.231,2.231,2.231,2.231,2.2797,2.1602,2.0332,1.9183,1.6681,1.4725,1.4614,1.3647,1.3007,1.3191,1.2573,1.2232,1.2574,1.2322,1.2191,1.2363,1.2928,1.3125,1.29,1.3096,1.3125,1.2891,1.2881,1.2881,1.2881,1.2559,1.2246,1.195,1.2577,1.2556,1.1867,1.2236,1.2354,1.226,1.226,1.257,1.316,1.3742,1.4649,1.5847,1.705,1.8309,1.9562,2.0389,2.107,2.1628,2.1899,2.2106,2.2271,2.208,2.2022,2.1902,2.1243,2.1021,2.1005,2.0904,2.1551,2.2353,2.2604,2.2,2.1168,2.0649,1.987,1.9191,1.9052,1.8896,1.8789,1.8789,1.9173,2.0007,2.169,2.1471,2.1096,2.1342,2.0448,1.9746,1.9798,2.0321,0.0,2.1409,2.1115,2.0838,2.0798,2.0416,2.087,2.2518,2.2893,0.0,2.347,2.3536,2.3227,2.2495,2.3692,2.4403,2.446,2.493,2.4872,2.4321,2.3901,2.3795,2.3976,2.3795,2.3692,2.3692,2.3692,2.3414,2.2923,2.2772,2.2537,2.231,2.231,2.231,2.231,2.231,2.231,2.231,2.1042,2.0051,1.8865,1.7577,1.5524,1.3965,1.3828,1.2273,1.1322,1.1908,1.1161,1.0745,1.1211,1.1774,1.2006,1.1801,1.2344,1.2774,1.2881,1.2881,1.2881,1.2881,1.2774,1.2715,1.2715,1.203,1.1366,1.0813,1.1366,1.1316,1.0669,1.0669,1.0559,1.0348,1.0458,1.0746,1.1098,1.1306,1.2436,1.4133,1.4921,1.6475,1.8347,1.9273,2.0286,2.1305,2.1521,2.1869,2.2091,2.1431,2.123,2.0994,1.9659,1.9268,1.9208,1.8823,2.0083,2.1664,2.1952,2.1525,2.0772,1.9828,1.9471,1.9289,1.9102,1.9052,1.9052,1.9052,1.9308,2.0045,2.175,2.1413,2.1006,2.1429,2.0998,2.0728,2.0993,0.0,2.312,2.4433,2.3657,2.3221,2.3724,2.2874,2.2535,2.3097,2.3613,2.375,2.3464,2.3464,2.3379,2.3253,2.388,2.4293,2.4404,2.4503,2.4528,2.4495,2.3903,2.3649,2.3692,2.3606,2.3588,2.3692,2.3692,2.3544,2.3236,2.2923,2.2599,2.2349,2.231,2.231,2.231,2.231,2.231,2.2327,1.8337,1.8035,1.7571,1.6772,1.4721,1.2923,1.2188,1.0533,0.9319,0.9088,0.8826,0.8993,0.9971,1.0148,1.0632,1.1724,1.1913,1.2236,1.2871,1.2881,1.2881,1.2881,1.2295,1.1972,1.1972,1.1316,1.0914,1.0813,1.0914,1.061,0.9961,0.9961,0.934,0.819,0.8837,0.883,0.8389,0.9585,1.0872,1.23,1.3939,1.5465,1.6959,1.8867,1.9713,2.0047,2.118,2.1658,2.1648,2.1305,2.1327,2.1171,1.9495,1.9133,1.9178,1.8481,1.8538,1.8967,1.9699,1.9951,1.995,1.9673,1.9587,1.9499,1.9289,1.9243,1.9243,1.9243,1.9436,2.0148,2.2009,2.2006,2.2193,2.3634,2.3091,2.2708,2.3348,0.0,2.4805,2.5425,2.5178,2.4986,2.5008,2.3855,2.3435,2.4188,2.4292,2.4403,2.4613,2.4632,2.4692,2.4845,2.4273,2.4257,2.4886,2.4795,2.467,2.4495,2.3681,2.3414,2.3692,2.3117,2.3165,2.3692,2.3692,2.3671,2.3606,2.3259,2.2923,2.2625,2.2388,2.231,2.231,2.231,2.231,2.2395,1.5792,1.5715,1.5429,1.4525,1.3143,1.1788,1.079,0.912,0.8066,0.8235,0.7723,0.7847,0.9113,0.9562,1.021,1.1166,1.1616,1.1922,1.2295,1.2666,1.2881,1.2881,1.2187,1.1466,1.0762,1.0762,1.0466,0.971,1.0064,0.9917,0.9263,0.9263,0.8896,0.8315,0.8646,0.8593,0.8315,0.8995,1.0005,1.1332,1.2532,1.3982,1.5624,1.7248,1.8355,1.9199,2.0187,2.0975,2.1447,2.0528,2.0439,2.0448,1.899,1.8511,1.8442,1.8249,1.841,1.8698,1.9075,1.9354,1.9518,1.9452,1.9442,1.9409,1.932,1.9305,1.9305,1.9305,1.9884,2.0828,2.2157,2.2539,2.2843,2.3437,2.3203,0.0,0.0,2.3879,2.4822,2.5887,2.5559,2.5408,2.5791,2.486,2.4377,2.4735,2.4849,2.4948,2.5111,2.5163,2.5232,2.5351,2.4822,2.4685,2.501,2.4752,2.4591,2.4495,2.401,2.3685,2.3432,2.3377,2.3292,2.3165,2.3544,2.3588,2.3414,2.3259,2.2996,2.2695,2.2546,2.2527,2.2527,2.2527,2.2527,2.2603,1.3862,1.3844,1.3578,1.2814,1.1764,1.0763,0.9788,0.816,0.7275,0.7802,0.729,0.7343,0.8646,0.9263,0.9814,1.0517,1.1065,1.1416,1.1566,1.2089,1.2412,1.2412,1.1733,1.0762,0.9614,1.0064,0.9814,0.8804,0.9309,0.9316,0.8804,0.8804,0.8699,0.854,0.8699,0.8699,0.854,0.8752,0.9465,1.061,1.1364,1.2705,1.4312,1.5692,1.699,1.8208,1.9046,2.0119,2.097,1.9792,1.9658,1.9764,1.8586,1.8103,1.8035,1.8229,1.8641,1.9001,1.9052,1.9182,1.9305,1.9305,1.9305,1.9305,1.9305,1.9305,1.9375,1.9604,2.0396,2.1396,2.2553,2.3095,2.3346,2.3341,0.0,0.0,0.0,2.364,2.4718,2.6013,2.5687,2.5593,2.6223,2.5521,2.5014,2.497,2.5152,2.5261,2.5271,2.5349,2.5418,2.5493,2.5303,2.5132,2.501,2.4708,2.4561,2.4495,2.4208,2.3749,2.3224,2.3423,2.3239,2.2721,2.3236,2.3369,2.3189,2.3189,2.2996,2.2721,2.2797,2.2876,2.2998,2.2972,2.3093,2.3327,1.3038,1.3111,1.3053,1.2976,1.1499,1.0086,0.918,0.7926,0.7099,0.6977,0.7334,0.7937,0.8699,0.8857,0.9159,0.9814,0.9917,1.021,1.0813,1.0914,1.0965,1.0965,1.032,0.9614,0.891,0.891,0.891,0.8804,0.8857,0.8857,0.8804,0.8804,0.8427,0.783,0.848,0.8427,0.783,0.8533,0.9211,0.9961,1.1223,1.2201,1.3137,1.4914,1.5997,1.6764,1.817,1.9126,1.971,1.9489,1.9598,1.9622,1.8547,1.8351,1.8547,1.8566,1.877,1.9035,1.923,1.9289,1.9305,1.9305,1.9305,1.9305,1.9305,1.9305,1.9567,2.0494,2.0756,2.1446,2.3499,2.3665,2.3796,2.4771,0.0,0.0,2.404,2.4769,2.5406,2.571,2.5971,2.6135,2.6186,2.5532,2.5037,2.4917,2.505,2.5141,2.5196,2.5272,2.5381,2.5503,2.5487,2.5318,2.501,2.4836,2.4685,2.4495,2.3653,2.3242,2.3165,2.2667,2.2515,2.2695,2.2746,2.2947,2.3189,2.3189,2.2996,2.2721,2.3045,2.347,2.3892,2.3821,2.4271,2.4964,1.1439,1.1238,1.0946,1.0946,1.0186,0.928,0.8342,0.7773,0.7461,0.7428,0.7589,0.799,0.8699,0.8804,0.9061,0.9762,0.9814,0.9917,1.0167,1.0167,1.0167,1.0167,0.9909,0.9465,0.8804,0.8804,0.8804,0.8804,0.8804,0.8804,0.8804,0.8804,0.8646,0.8374,0.8699,0.8646,0.8427,0.8699,0.9211,0.9865,1.0348,1.0948,1.1738,1.326,1.4152,1.4923,1.6978,1.8289,1.8992,1.9026,1.9246,1.941,1.868,1.841,1.841,1.8752,1.8914,1.9035,1.9261,1.9305,1.9305,1.9305,1.9305,1.9305,1.9305,1.9693,2.0178,2.0695,2.1695,2.2795,2.3796,2.4239,2.4426,2.4426,0.0,2.3239,2.2937,2.3267,2.3652,2.3928,2.4591,2.5011,2.5011,2.4959,2.4898,2.4842,2.4884,2.4955,2.508,2.526,2.5391,2.5499,2.5339,2.5139,2.4883,2.4591,2.4393,2.4303,2.4028,2.3642,2.32,2.3052,2.2802,2.2463,2.2634,2.2772,2.2898,2.2898,2.2822,2.2781,2.3622,2.406,2.4294,2.4743,2.5094,2.5382,1.0504,1.037,1.0078,0.9833,0.9472,0.8837,0.7979,0.7848,0.7817,0.7711,0.7931,0.8262,0.8752,0.8804,0.9008,0.9465,0.9465,0.9465,0.9465,0.9465,0.9465,0.9465,0.9465,0.9256,0.8804,0.8804,0.891,0.9106,0.891,0.891,0.9113,0.891,0.8804,0.8804,0.8804,0.8804,0.8804,0.8804,0.9211,0.9814,0.9814,1.032,1.1216,1.2141,1.2974,1.3911,1.5936,1.7303,1.8177,1.8339,1.8763,1.911,1.8512,1.8373,1.8547,1.8966,1.9134,1.9214,1.9368,1.9419,1.9434,1.9335,1.9491,1.9675,1.9675,2.0317,2.1041,2.155,2.2651,2.3733,2.434,2.4709,2.4728,2.4076,2.3319,2.2606,2.2023,2.2133,2.241,2.2621,2.3422,2.3952,2.3952,2.4225,2.4416,2.4454,2.4519,2.4674,2.4962,2.5235,2.5427,2.5505,2.5187,2.4947,2.4804,2.4461,2.4247,2.4208,2.4014,2.3696,2.32,2.3103,2.2784,2.231,2.25,2.2573,2.2573,2.266,2.266,2.2694,2.39,2.4466,2.4689,2.5174,2.5481,2.5697,1.0628,1.0905,1.0863,1.0244,0.9482,0.884,0.8293,0.8215,0.8072,0.7735,0.8336,0.8804,0.8804,0.8804,0.8804,0.8804,0.8804,0.8804,0.8804,0.8804,0.8804,0.8804,0.8804,0.8804,0.8804,0.8811,0.9106,0.9814,0.9159,0.9159,0.9814,0.9106,0.8811,0.8811,0.8804,0.8804,0.8804,0.8811,0.9211,0.9814,0.9814,1.0618,1.1814,1.1814,1.2638,1.3946,1.5071,1.623,1.7237,1.7441,1.8068,1.8667,1.7933,1.8301,1.9035,1.9227,1.9438,1.9614,1.9596,1.9707,1.9719,1.9394,1.9913,2.0503,2.0503,2.118,2.214,2.3263,2.3564,2.398,2.5182,2.5078,2.4605,2.3998,2.317,2.2356,2.1685,2.1886,2.2096,2.2096,2.2737,2.3206,2.3206,2.3374,2.3548,2.3692,2.3888,2.4281,2.4865,2.5224,2.5447,2.5505,2.5072,2.482,2.4823,2.461,2.4393,2.419,2.3522,2.3206,2.3165,2.2571,2.231,2.231,2.231,2.231,2.2321,2.2573,2.2537,2.2434,2.3772,2.4638,2.509,2.5034,2.5519,2.6135,1.2202,1.1815,1.1368,1.1392,1.0359,0.9493,0.9361,0.8911,0.8577,0.8468,0.8685,0.8804,0.8804,0.8804,0.8804,0.8804,0.8804,0.8804,0.8804,0.8804,0.8804,0.8804,0.8804,0.8804,0.8804,0.9263,0.9614,0.9814,1.0064,1.032,1.0466,0.9814,0.951,0.9465,0.9008,0.8804,0.8857,0.9309,0.9614,0.9865,1.0312,1.0762,1.1166,1.1616,1.2346,1.3301,1.4914,1.623,1.7237,1.7441,1.8068,1.8752,1.843,1.8624,1.9069,1.9413,1.9555,1.9623,1.9701,1.9774,1.9743,1.955,2.0125,2.0674,2.0517,2.162,2.2807,2.3376,2.3986,2.4626,2.5281,2.5071,2.4599,2.3994,2.317,2.2275,2.1305,2.1505,2.1837,2.2067,2.3034,2.3676,2.3676,2.3929,2.3875,2.3382,2.3874,2.4414,2.4884,2.58,2.6348,2.6417,2.6699,2.6715,2.6487,2.5577,2.4818,2.4208,2.4335,2.3973,2.3189,2.2764,2.249,2.231,2.231,2.231,2.231,2.2388,2.236,2.2434,2.3613,2.4495,2.509,2.509,2.5548,2.6135,1.2746,1.2251,1.1761,1.1701,1.1064,1.0371,0.9851,0.9573,0.9252,0.8871,0.8804,0.8804,0.8804,0.8804,0.8804,0.8804,0.8804,0.8804,0.8804,0.8804,0.8804,0.8804,0.8804,0.8804,0.8804,0.9465,0.9917,1.0218,1.0618,1.0965,1.1166,1.0517,1.0064,0.9762,0.9361,0.9061,0.8857,0.951,0.9961,1.021,1.0669,1.1124,1.1633,1.1774,1.2395,1.3348,1.4722,1.6028,1.7156,1.7001,1.7423,1.8039,1.831,1.8605,1.8948,1.9456,1.9636,1.9776,2.0263,2.0435,2.0522,2.0727,2.1084,2.1452,2.1649,2.2752,2.378,2.4047,2.4559,2.5043,2.5317,2.5079,2.4624,2.3984,2.3005,2.2006,2.1118,2.1213,2.1535,2.2035,2.307,2.3824,2.4116,2.4285,2.4165,2.3671,2.4313,2.4928,2.5352,2.6238,2.6909,2.7259,2.7574,2.7618,2.7361,2.6767,2.6018,2.5162,2.531,2.4782,2.3667,2.3658,2.3302,2.275,2.3038,2.309,2.2914,2.279,2.2632,2.2549,2.3412,2.4207,2.4844,2.4551,2.4883,2.5506,1.2638,1.2503,1.2236,1.1578,1.163,1.1357,1.021,1.0272,1.0095,0.9136,0.8976,0.891,0.891,0.8857,0.8804,0.8804,0.8804,0.8804,0.8804,0.8804,0.8804,0.8804,0.8857,0.891,0.891,0.9562,1.0218,1.0864,1.0965,1.1316,1.1864,1.1216,1.0568,0.9961,0.9917,0.9562,0.9008,0.971,1.0312,1.0914,1.0965,1.1792,1.292,1.2227,1.2783,1.405,1.456,1.5847,1.7089,1.6463,1.6448,1.691,1.7791,1.8281,1.8698,1.9361,1.9732,2.0108,2.1058,2.1455,2.1805,2.2545,2.2604,2.264,2.3345,2.4148,2.4814,2.4974,2.5094,2.5203,2.5279,2.507,2.4651,2.3916,2.2794,2.1809,2.1183,2.1119,2.144,2.2178,2.3008,2.3819,2.4509,2.4557,2.4452,2.4416,2.5051,2.5663,2.617,2.6702,2.7337,2.8086,2.8066,2.7975,2.7828,2.8135,2.7715,2.6615,2.6372,2.5637,2.4573,2.4989,2.4614,2.3629,2.4279,2.4355,2.3974,2.3653,2.3204,2.2807,2.3317,2.3866,2.4337,2.3646,2.3816,2.4421,1.4298,1.3708,1.3189,1.3025,1.2622,1.2246,1.1974,1.1536,1.1174,1.0942,1.0128,0.9562,0.9562,0.9106,0.8804,0.8804,0.8804,0.8804,0.8804,0.8804,0.8804,0.8804,0.9309,0.9562,0.9562,1.0269,1.0914,1.1566,1.2147,1.252,1.2666,1.1931,1.1516,1.1366,1.0813,1.0517,1.0415,1.1065,1.1458,1.1616,1.2197,1.289,1.36,1.3437,1.4122,1.5219,1.5365,1.6219,1.7263,1.7227,1.6849,1.6565,1.7495,1.7979,1.8344,1.9073,2.0009,2.0887,2.1211,2.1895,2.2716,2.3563,2.3746,2.3665,2.353,2.4046,2.4651,2.4949,2.4966,2.5019,2.526,2.507,2.4651,2.3916,2.3285,2.2659,2.1875,2.2037,2.2606,2.3642,2.4174,2.4713,2.5323,2.4831,2.4704,2.52,2.553,2.6111,2.6996,2.7975,2.8646,2.8922,2.962,2.9832,2.9479,2.9544,2.8657,2.6841,2.7245,2.6832,2.5733,2.5823,2.5608,2.5121,2.5004,2.4919,2.4819,2.4403,2.3858,2.3323,2.4011,2.4002,2.3613,2.346,2.3494,2.3714,1.4489,1.3805,1.3213,1.3213,1.2903,1.2661,1.2494,1.2009,1.1627,1.1492,1.0785,1.0167,0.9814,0.9465,0.9159,0.8804,0.8804,0.8956,0.9263,0.8956,0.9061,0.9718,0.9762,1.0115,1.0762,1.1116,1.1466,1.1814,1.2559,1.2881,1.2881,1.2501,1.2138,1.1765,1.1408,1.1116,1.0864,1.1516,1.1814,1.1864,1.2919,1.3505,1.3815,1.4097,1.4949,1.5971,1.5971,1.6468,1.7176,1.748,1.7228,1.687,1.7313,1.7946,1.8606,1.9064,2.0094,2.1221,2.1774,2.2652,2.3629,2.4466,2.4678,2.463,2.4404,2.4555,2.4823,2.5077,2.5084,2.5101,2.5263,2.507,2.4651,2.3916,2.3303,2.2684,2.2085,2.2362,2.3014,2.4076,2.4788,2.5447,2.6049,2.5778,2.5699,2.6047,2.6226,2.6771,2.7805,2.8593,2.9253,2.9754,3.0303,3.0458,3.0196,3.0075,2.9406,2.8239,2.8457,2.7897,2.6682,2.7037,2.681,2.618,2.6352,2.631,2.6065,2.5743,2.4912,2.3932,2.454,2.4432,2.3917,2.3917,2.4137,2.4509,1.4109,1.3442,1.2881,1.2881,1.2939,1.2931,1.2779,1.2446,1.2139,1.1947,1.1447,1.0836,1.0218,1.0064,0.9762,0.9211,0.9159,0.9361,0.9909,0.9458,0.9666,1.0762,1.0364,1.0661,1.1765,1.1922,1.1972,1.1972,1.2608,1.2881,1.2881,1.2881,1.2559,1.1972,1.1972,1.1674,1.1174,1.1774,1.1972,1.207,1.3331,1.3862,1.4039,1.4586,1.5525,1.6536,1.6388,1.6514,1.6829,1.7361,1.7392,1.7228,1.7293,1.8138,1.9139,1.9253,2.035,2.1682,2.2532,2.3504,2.4466,2.5139,2.5303,2.5303,2.5303,2.5152,2.5065,2.5264,2.5253,2.5211,2.5286,2.507,2.4651,2.3916,2.3178,2.2583,2.2213,2.2524,2.3127,2.4253,2.5193,2.6031,2.664,2.6691,2.6779,2.6884,2.704,2.7584,2.864,2.9025,2.9597,3.0388,3.0533,3.0544,3.0417,3.0182,2.9939,2.9696,2.9663,2.8926,2.761,2.8232,2.8026,2.721,2.7753,2.7754,2.736,2.7032,2.6038,2.4733,2.5049,2.4893,2.4506,2.4506,2.4966,2.5609,1.4106,1.346,1.2881,1.2881,1.3184,1.3523,1.384,1.3811,1.3763,1.3758,1.2871,1.2075,1.1601,1.1015,1.0618,1.0517,1.0517,1.0568,1.0661,1.0568,1.061,1.0813,1.1266,1.1616,1.1814,1.2403,1.2764,1.2764,1.2832,1.2881,1.2881,1.2881,1.2832,1.2764,1.2764,1.2715,1.2618,1.2715,1.2764,1.2813,1.3494,1.4097,1.4642,1.5126,1.6077,1.7085,1.6394,1.6124,1.6207,1.68,1.6899,1.6894,1.7508,1.8597,1.9621,1.9697,2.1373,2.3213,2.3334,2.424,2.5149,2.5264,2.5303,2.5303,2.5303,2.5152,2.5065,2.5264,2.5251,2.5228,2.5281,2.507,2.4651,2.3916,2.3426,2.3049,2.287,2.292,2.3487,2.4916,2.5938,2.659,2.6674,2.6691,2.6985,2.7699,2.7924,2.8471,2.949,2.9895,3.0241,3.0482,3.0562,3.0564,3.0487,3.0386,3.0128,2.9696,3.0376,3.0032,2.8764,2.8874,2.885,2.8693,2.8435,2.8296,2.8206,2.7502,2.6735,2.5941,2.5641,2.5113,2.4506,2.4506,2.4966,2.5609,1.4133,1.3611,1.3144,1.2939,1.3037,1.3367,1.4028,1.3898,1.3867,1.4048,1.3499,1.2763,1.1909,1.1216,1.0813,1.0813,1.0813,1.0965,1.1316,1.1015,1.1174,1.195,1.1873,1.1972,1.2403,1.2715,1.2881,1.2881,1.2881,1.2881,1.2881,1.2881,1.2881,1.2881,1.2881,1.2881,1.2881,1.2881,1.3104,1.3467,1.4061,1.4641,1.5262,1.5736,1.6415,1.7176,1.7043,1.675,1.6537,1.7413,1.7696,1.7791,1.8515,1.9636,2.0629,2.0463,2.1876,2.3496,2.3496,2.4381,2.5303,2.5303,2.5303,2.5303,2.5303,2.5224,2.5184,2.5274,2.5246,2.5222,2.5299,2.5176,2.4847,2.4184,2.368,2.3425,2.3635,2.377,2.438,2.587,2.6436,2.6691,2.6691,2.6906,2.7272,2.7869,2.8286,2.8872,2.966,3.0089,3.0349,3.0505,3.0591,3.0851,3.1205,3.1205,3.1224,3.1317,3.1678,3.0847,2.9012,2.9934,2.9861,2.9012,2.9296,2.915,2.8707,2.8386,2.7317,2.5928,2.6603,2.6253,2.533,2.533,2.553,2.583]},{"header":{"parameterUnit":"m.s-1","parameterCategory":1,"la1":30.6,"la2":28.766,"lo1":-90.7593,"lo2":-88.6598,"dy":0.0162,"dx":0.0183,"nx":116,"ny":114,"refTime":"2023-08-30T18:00:00:Z","depth":0,"parameterNumber":3,"parameterNumberName":"V-component_of_WINDS"},"data":[0.0,0.0,0.0,0.0,0.0,0.0,0.0,0.0,0.0,0.0,0.0,0.0,0.0,0.0,0.0,0.0,0.0,0.0,0.0,0.0,0.0,0.0,0.0,0.0,0.0,0.0,0.0,0.0,0.0,0.0,0.0,0.0,0.0,0.0,0.0,0.0,0.0,0.0,0.0,0.0,0.0,0.0,0.0,0.0,0.0,0.0,0.0,0.0,0.0,0.0,0.0,0.0,0.0,0.0,0.0,0.0,0.0,0.0,0.0,0.0,0.0,0.0,0.0,0.0,0.0,0.0,0.0,0.0,0.0,0.0,0.0,0.0,0.0,0.0,0.0,0.0,0.0,0.0,0.0,0.0,0.0,0.0,0.0,0.0,0.0,0.0,0.0,0.0,0.0,0.0,0.0,0.0,0.0,0.0,0.0,0.0,0.0,0.0,0.0,0.0,0.0,0.0,0.0,0.0,0.0,0.0,0.0,0.0,0.0,0.0,0.0,0.0,0.0,0.0,0.0,0.0,0.0,0.0,0.0,0.0,0.0,0.0,0.0,0.0,0.0,0.0,0.0,0.0,0.0,0.0,0.0,0.0,0.0,0.0,0.0,0.0,0.0,0.0,0.0,0.0,0.0,0.0,0.0,0.0,0.0,0.0,0.0,0.0,0.0,0.0,0.0,0.0,0.0,0.0,0.0,0.0,0.0,0.0,0.0,0.0,0.0,0.0,0.0,0.0,0.0,0.0,0.0,0.0,0.0,0.0,0.0,0.0,0.0,0.0,0.0,0.0,0.0,0.0,0.0,0.0,0.0,0.0,0.0,0.0,0.0,0.0,0.0,0.0,0.0,0.0,0.0,0.0,0.0,0.0,0.0,0.0,0.0,0.0,0.0,0.0,0.0,0.0,0.0,0.0,0.0,0.0,0.0,0.0,0.0,0.0,0.0,0.0,0.0,0.0,0.0,0.0,0.0,0.0,0.0,0.0,0.0,0.0,0.0,0.0,0.0,0.0,0.0,0.0,0.0,0.0,0.0,0.0,0.0,0.0,0.0,0.0,0.0,0.0,0.0,0.0,0.0,0.0,0.0,0.0,0.0,0.0,0.0,0.0,0.0,0.0,0.0,0.0,0.0,0.0,0.0,0.0,0.0,0.0,0.0,0.0,0.0,0.0,0.0,0.0,0.0,0.0,0.0,0.0,0.0,0.0,0.0,0.0,0.0,0.0,0.0,0.0,0.0,0.0,0.0,0.0,0.0,0.0,0.0,0.0,0.0,0.0,0.0,0.0,0.0,0.0,0.0,0.0,0.0,0.0,0.0,0.0,0.0,0.0,0.0,0.0,0.0,0.0,0.0,0.0,0.0,0.0,0.0,0.0,0.0,0.0,0.0,0.0,0.0,0.0,0.0,0.0,0.0,0.0,0.0,0.0,0.0,0.0,0.0,0.0,0.0,0.0,0.0,0.0,0.0,0.0,0.0,0.0,0.0,0.0,0.0,0.0,0.0,0.0,0.0,0.0,0.0,0.0,0.0,0.0,0.0,0.0,0.0,0.0,0.0,0.0,0.0,0.0,0.0,0.0,0.0,0.0,0.0,0.0,0.0,0.0,0.0,0.0,0.0,0.0,0.0,0.0,0.0,0.0,0.0,0.0,0.0,0.0,0.0,0.0,0.0,0.0,0.0,0.0,0.0,0.0,0.0,0.0,0.0,0.0,0.0,0.0,0.0,0.0,0.0,0.0,0.0,0.0,0.0,0.0,0.0,0.0,0.0,0.0,0.0,0.0,0.0,0.0,0.0,0.0,0.0,0.0,0.0,0.0,0.0,0.0,0.0,0.0,0.0,0.0,0.0,0.0,0.0,0.0,0.0,0.0,0.0,0.0,0.0,0.0,0.0,0.0,0.0,0.0,0.0,0.0,0.0,0.0,0.0,0.0,0.0,0.0,0.0,0.0,0.0,0.0,0.0,0.0,0.0,0.0,0.0,0.0,0.0,0.0,0.0,0.0,0.0,0.0,0.0,0.0,0.0,0.0,0.0,0.0,0.0,0.0,0.0,0.0,0.0,0.0,0.0,0.0,0.0,0.0,0.0,0.0,0.0,0.0,0.0,0.0,0.0,0.0,0.0,0.0,0.0,0.0,0.0,0.0,0.0,0.0,0.0,0.0,0.0,0.0,0.0,0.0,0.0,0.0,0.0,0.0,0.0,0.0,0.0,0.0,0.0,0.0,0.0,0.0,0.0,0.0,0.0,0.0,0.0,0.0,0.0,0.0,0.0,0.0,0.0,0.0,0.0,0.0,0.0,0.0,0.0,0.0,0.0,0.0,0.0,0.0,0.0,0.0,0.0,0.0,0.0,0.0,0.0,0.0,0.0,0.0,0.0,0.0,0.0,0.0,0.0,0.0,0.0,0.0,0.0,0.0,0.0,0.0,0.0,0.0,0.0,0.0,0.0,0.0,0.0,0.0,0.0,0.0,0.0,0.0,0.0,0.0,0.0,0.0,0.0,0.0,0.0,0.0,0.0,0.0,0.0,0.0,0.0,0.0,0.0,0.0,0.0,0.0,0.0,0.0,0.0,0.0,0.0,0.0,0.0,0.0,0.0,0.0,0.0,0.0,0.0,0.0,0.0,0.0,0.0,0.0,0.0,0.0,0.0,0.0,0.0,0.0,0.0,0.0,0.0,0.0,0.0,0.0,0.0,0.0,0.0,0.0,0.0,0.0,0.0,0.0,0.0,0.0,0.0,0.0,0.0,0.0,0.0,0.0,0.0,0.0,0.0,0.0,0.0,0.0,0.0,0.0,0.0,0.0,0.0,0.0,0.0,0.0,0.0,0.0,0.0,0.0,0.0,0.0,0.0,0.0,0.0,0.0,0.0,0.0,0.0,0.0,0.0,0.0,0.0,0.0,0.0,0.0,0.0,0.0,0.0,0.0,0.0,0.0,0.0,0.0,0.0,0.0,0.0,0.0,0.0,0.0,0.0,0.0,0.0,0.0,0.0,0.0,0.0,0.0,0.0,0.0,0.0,0.0,0.0,0.0,0.0,0.0,0.0,0.0,0.0,0.0,0.0,0.0,0.0,0.0,0.0,0.0,0.0,0.0,0.0,0.0,0.0,0.0,0.0,0.0,0.0,0.0,0.0,0.0,0.0,0.0,0.0,0.0,0.0,0.0,0.0,0.0,0.0,0.0,0.0,0.0,0.0,0.0,0.0,0.0,0.0,0.0,0.0,0.0,0.0,0.0,0.0,0.0,0.0,0.0,0.0,0.0,0.0,0.0,0.0,0.0,0.0,0.0,0.0,0.0,0.0,0.0,0.0,0.0,0.0,0.0,0.0,0.0,0.0,0.0,0.0,0.0,0.0,0.0,0.0,0.0,0.0,0.0,0.0,0.0,0.0,0.0,0.0,0.0,0.0,0.0,0.0,0.0,0.0,0.0,0.0,0.0,0.0,0.0,0.0,0.0,0.0,0.0,0.0,0.0,0.0,0.0,0.0,0.0,0.0,0.0,0.0,0.0,0.0,0.0,0.0,0.0,0.0,0.0,0.0,0.0,0.0,0.0,0.0,0.0,0.0,0.0,0.0,0.0,0.0,0.0,0.0,0.0,0.0,0.0,0.0,0.0,0.0,0.0,0.0,0.0,0.0,0.0,0.0,0.0,0.0,0.0,0.0,0.0,0.0,0.0,0.0,0.0,0.0,0.0,0.0,0.0,0.0,0.0,0.0,0.0,0.0,0.0,0.0,0.0,0.0,0.0,0.0,0.0,0.0,0.0,0.0,0.0,0.0,0.0,0.0,0.0,0.0,0.0,0.0,0.0,0.0,0.0,0.0,0.0,0.0,0.0,0.0,0.0,0.0,0.0,0.0,0.0,0.0,0.0,0.0,0.0,0.0,0.0,0.0,0.0,0.0,0.0,0.0,0.0,0.0,0.0,0.0,0.0,0.0,0.0,0.0,0.0,0.0,0.0,0.0,0.0,0.0,0.0,0.0,0.0,0.0,0.0,0.0,0.0,0.0,0.0,0.0,0.0,0.0,0.0,0.0,0.0,0.0,0.0,0.0,0.0,0.0,0.0,0.0,0.0,0.0,0.0,0.0,0.0,0.0,0.0,0.0,0.0,0.0,0.0,0.0,0.0,0.0,0.0,0.0,0.0,0.0,0.0,0.0,0.0,0.0,0.0,0.0,0.0,0.0,0.0,0.0,0.0,0.0,0.0,0.0,0.0,0.0,0.0,0.0,0.0,0.0,0.0,0.0,0.0,0.0,0.0,0.0,0.0,0.0,0.0,0.0,0.0,0.0,0.0,0.0,0.0,0.0,0.0,0.0,0.0,0.0,0.0,0.0,0.0,0.0,0.0,0.0,0.0,0.0,0.0,0.0,0.0,0.0,0.0,0.0,0.0,0.0,0.0,0.0,0.0,0.0,0.0,0.0,0.0,0.0,0.0,0.0,0.0,0.0,0.0,0.0,0.0,0.0,0.0,0.0,0.0,0.0,0.0,0.0,0.0,0.0,0.0,0.0,0.0,0.0,0.0,0.0,0.0,0.0,0.0,0.0,0.0,0.0,0.0,0.0,0.0,0.0,0.0,0.0,0.0,0.0,0.0,0.0,0.0,0.0,0.0,0.0,0.0,0.0,0.0,0.0,0.0,0.0,0.0,0.0,0.0,0.0,0.0,0.0,0.0,0.0,0.0,0.0,0.0,0.0,0.0,0.0,0.0,0.0,0.0,0.0,0.0,0.0,0.0,0.0,0.0,0.0,0.0,0.0,0.0,0.0,0.0,0.0,0.0,0.0,0.0,0.0,0.0,0.0,0.0,0.0,0.0,0.0,0.0,0.0,0.0,0.0,0.0,0.0,0.0,0.0,0.0,0.0,0.0,0.0,0.0,0.0,0.0,0.0,0.0,0.0,0.0,0.0,0.0,0.0,0.0,0.0,0.0,0.0,0.0,0.0,0.0,0.0,0.0,0.0,0.0,0.0,0.0,0.0,0.0,0.0,0.0,0.0,0.0,0.0,0.0,0.0,0.0,0.0,0.0,0.0,0.0,0.0,0.0,0.0,0.0,0.0,0.0,0.0,0.0,0.0,0.0,0.0,0.0,0.0,0.0,0.0,0.0,0.0,0.0,0.0,0.0,0.0,0.0,0.0,0.0,0.0,0.0,0.0,0.0,0.0,0.0,0.0,0.0,0.0,0.0,0.0,0.0,0.0,0.0,0.0,0.0,0.0,0.0,0.0,0.0,0.0,0.0,0.0,0.0,0.0,0.0,0.0,0.0,0.0,0.0,0.0,0.0,0.0,0.0,0.0,0.0,0.0,0.0,0.0,0.0,0.0,0.0,0.0,0.0,0.0,0.0,0.0,0.0,0.0,0.0,0.0,0.0,0.0,0.0,0.0,0.0,0.0,0.0,0.0,0.0,0.0,0.0,0.0,0.0,0.0,0.0,0.0,0.0,0.0,0.0,0.0,0.0,0.0,0.0,0.0,0.0,0.0,0.0,0.0,0.0,0.0,0.0,0.0,0.0,0.0,0.0,0.0,0.0,0.0,0.0,0.0,0.0,0.0,0.0,0.0,0.0,0.0,0.0,0.0,0.0,0.0,0.0,0.0,0.0,0.0,0.0,0.0,0.0,0.0,0.0,0.0,0.0,0.0,0.0,0.0,0.0,0.0,0.0,0.0,0.0,0.0,0.0,0.0,0.0,0.0,0.0,0.0,0.0,0.0,0.0,0.0,0.0,0.0,0.0,0.0,0.0,0.0,0.0,0.0,0.0,0.0,0.0,0.0,0.0,0.0,0.0,0.0,0.0,0.0,0.0,0.0,0.0,0.0,0.0,0.0,0.0,0.0,0.0,0.0,0.0,0.0,0.0,0.0,0.0,0.0,0.0,0.0,0.0,0.0,0.0,0.0,0.0,0.0,0.0,0.0,0.0,0.0,0.0,0.0,0.0,0.0,0.0,0.0,0.0,0.0,0.0,0.0,0.0,0.0,0.0,0.0,0.0,0.0,0.0,0.0,0.0,0.0,0.0,0.0,0.0,0.0,0.0,0.0,0.0,0.0,0.0,0.0,0.0,0.0,0.0,0.0,0.0,0.0,0.0,0.0,0.0,0.0,0.0,-0.658,0.0,0.0,0.0,0.0,0.0,0.0,0.0,0.0,0.0,0.0,0.0,0.0,0.0,0.0,0.0,0.0,0.0,0.0,0.0,0.0,0.0,0.0,0.0,0.0,0.0,0.0,0.0,0.0,0.0,0.0,0.0,0.0,0.0,0.0,0.0,0.0,0.0,0.0,-0.6912,-0.6738,-0.6599,-0.6492,-0.6902,-0.4567,0.0,0.0,0.0,0.0,0.0,0.0,0.0,0.0,0.0,0.0,0.0,0.0,0.0,0.0,0.0,0.0,0.0,0.0,0.0,0.0,0.0,0.0,0.0,0.0,0.0,0.0,0.0,0.0,0.0,0.0,0.0,0.0,0.0,0.0,0.0,0.0,0.0,0.0,0.0,0.0,0.0,0.0,0.0,0.0,0.0,0.0,0.0,0.0,0.0,0.0,0.0,0.0,0.0,0.0,0.0,0.0,0.0,0.0,0.0,0.0,0.0,0.0,0.0,0.0,0.0,0.0,0.0,0.0,0.0,0.0,0.0,0.0,-0.6753,0.0,0.0,0.0,0.0,0.0,0.0,0.0,0.0,0.0,0.0,0.0,0.0,0.0,0.0,0.0,0.0,0.0,0.0,0.0,0.0,0.0,0.0,0.0,0.4776,0.7984,0.7977,0.8001,0.8011,0.0,0.0,0.0,0.0,0.0,0.0,-0.6966,-0.7077,-0.7141,-0.7139,-0.7139,-0.7048,-0.6945,-0.7163,-0.5094,-0.1179,-0.0355,0.0,0.0,0.0,0.0,0.0,0.0,0.0,0.0,0.0,0.0,0.0,0.0,0.0,0.0,0.0,0.0,0.0,0.0,0.0,0.0,0.0,0.0,0.0,0.0,0.0,0.0,0.0,0.0,0.0,0.0,0.0,0.0,0.0,0.0,0.0,0.0,0.0,0.0,0.0,0.0,0.0,0.0,0.0,0.0,0.0,0.0,0.0,0.0,0.0,0.0,0.0,0.0,0.0,0.0,0.0,0.0,0.0,0.0,0.0,0.0,0.0,0.0,0.0,-1.5231,-1.5251,-1.4904,-1.4596,-1.3684,-1.2281,-0.9836,-0.8418,-0.7727,-0.7547,0.0,0.0,0.0,0.0,0.0,0.0,0.0,0.0,0.0,0.0,0.0,0.0,0.0,0.0,0.0,0.0,0.0,0.0,0.0,0.0,0.0,0.475,0.7982,0.8007,0.8039,0.8,0.8031,0.0,0.0,0.0,0.0,0.0,-0.7015,-0.7129,-0.7141,-0.7139,-0.7139,-0.7385,-0.7872,-0.7866,-0.7243,-0.6032,-0.18,-0.0381,-0.125,0.0,0.0,0.0,0.0,0.0,0.0,0.0,0.0,0.0,0.0,0.0,0.0,0.0,0.0,0.0,0.0,0.0,0.0,0.0,0.0,0.0,0.0,0.0,0.0,0.0,0.0,0.0,0.0,0.0,0.0,0.0,0.0,0.0,0.0,0.0,0.0,0.0,0.0,0.0,0.0,0.0,-0.9155,-0.9341,0.0,0.0,0.0,0.0,0.0,0.0,0.0,0.0,0.0,0.0,0.0,0.0,0.0,-1.378,-1.521,-1.7372,-1.8361,-1.8275,-2.0032,-2.0126,-1.8777,-1.8342,-1.7394,-1.6199,-1.5758,0.0,-1.0433,-1.0282,0.0,0.0,0.0,0.0,0.0,0.0,0.0,0.0,0.0,0.0,0.0,0.0,0.0,0.0,0.0,0.0,0.0,0.0,0.0,0.0,0.0,0.4459,0.7482,0.7501,0.7816,0.7959,0.8041,0.8021,0.0,0.0,0.0,-0.2259,-0.6955,-0.7124,-0.7082,-0.7085,-0.7426,-0.7719,-0.8056,-0.8391,-0.8223,-0.7496,-0.5807,-0.31,-0.0097,-0.2254,0.0,0.0,0.0,0.0,0.0,0.0,0.0,0.0,0.0,0.0,0.0,0.0,0.0,0.0,0.0,0.0,0.0,0.0,0.0,0.0,0.0,0.0,0.0,0.0,0.0,0.0,0.0,0.0,0.0,0.0,0.0,0.0,0.0,0.0,0.0,0.0,0.0,0.0,0.0,-1.0444,-0.9959,-0.918,-0.934,-0.8895,0.0,0.0,0.0,0.0,0.0,0.0,0.0,0.0,0.0,-1.4479,-1.4139,-1.5445,-1.8511,-1.8901,-2.0189,-2.23,-2.2128,-2.2078,-2.2248,-2.2294,-2.1218,-1.9359,-1.9686,-1.8567,-1.6324,-1.3634,-1.1645,-1.0202,0.0,0.0,0.0,0.0,-1.2441,-1.4844,0.0,0.0,0.0,0.0,0.0,0.0,0.0,0.0,0.0,0.0,0.0,0.0,0.146,0.4901,0.715,0.7288,0.7834,0.8264,0.8251,0.797,0.7644,0.7367,0.2584,-0.2182,-0.6964,-0.7057,-0.7169,-0.7293,-0.7818,-0.8038,-0.8049,-0.866,-0.8623,-0.8295,-0.8718,-0.5545,0.0,0.0,-0.0746,-0.2304,0.0,0.0,0.0,0.0,0.0,0.0,0.0,0.0,0.0,0.0,0.0,0.0,0.0,0.0,0.0,0.0,0.0,0.0,0.0,0.0,0.0,0.0,0.0,0.0,0.0,0.0,0.0,0.0,0.0,0.0,0.0,0.0,0.0,0.0,0.0,0.0,0.0,-1.1061,-1.0469,-0.9407,-0.9851,-0.9673,0.0,0.0,0.0,0.0,0.0,0.0,-1.4128,-1.4418,-1.5285,-1.648,-1.5922,-1.7402,-2.1218,-2.0619,-2.1961,-2.5267,-2.3939,-2.4061,-2.5343,-2.5631,-2.4879,-2.3299,-2.368,-2.3343,-2.1967,-1.7298,-1.4242,-1.2513,-1.2195,-1.1821,-1.1739,-1.2979,-1.507,-1.7582,0.0,0.0,0.0,0.0,0.0,0.0,0.0,0.0,0.0,0.0,0.0,0.1548,0.5564,0.6637,0.7322,0.7888,0.846,0.8873,0.8862,0.7777,0.7341,0.7942,0.2889,-0.2214,-0.6983,-0.7053,-0.7349,-0.7987,-0.8011,-0.8038,-0.8027,-0.8649,-0.8934,-0.8803,-0.8903,-0.5537,0.0,0.0,-0.2961,-0.7551,-0.6621,0.0,0.0,0.0,0.0,0.0,0.0,0.0,0.0,0.0,0.0,0.0,0.0,0.0,0.0,0.0,0.0,0.0,0.0,0.0,0.0,0.0,0.0,0.0,0.0,0.0,0.0,0.0,0.0,0.0,0.0,0.0,0.0,0.0,0.0,0.0,0.0,0.0,0.0,-1.0444,-1.0014,0.0,0.0,0.0,0.0,-1.4672,-1.5738,-1.6491,-1.6981,-1.749,-1.822,-1.9225,-1.9442,-2.0552,-2.2608,-2.357,-2.4699,-2.6082,-2.6513,-2.7232,-2.7949,-2.7672,-2.7985,-2.8973,-2.902,-2.813,-2.6214,-2.0998,-1.7644,-1.5771,-1.5113,-1.4116,-1.3254,-1.455,-1.7303,-2.0796,0.0,0.0,0.0,0.0,0.0,0.0,0.0,0.0,0.4919,0.3668,0.3812,0.4653,0.6169,0.7145,0.7887,0.8494,0.8752,0.871,0.8299,0.7517,0.7177,0.7401,0.2659,-0.0757,-0.2496,-0.5889,-0.7753,-0.8032,-0.8034,-0.8002,-0.8024,-0.8611,-0.8888,-0.89,-0.8862,-0.7687,-0.5721,-0.5305,-0.6258,-0.7941,-0.7101,-0.6605,0.0,0.0,0.0,0.0,0.0,0.0,0.0,0.0,0.0,0.0,0.0,0.0,0.0,0.0,0.0,0.0,0.0,0.0,0.0,0.0,0.0,0.0,0.0,0.0,0.0,0.0,0.0,0.0,0.0,0.0,0.0,0.0,0.0,0.0,0.0,0.0,0.0,-0.989,-1.2533,0.0,-1.1635,-1.4037,-1.5972,-1.6373,-1.8163,-1.909,-1.8662,-1.8957,-1.9502,-2.0194,-1.9183,-2.0375,-2.3975,-2.3162,-2.4286,-2.7102,-2.6096,-2.6497,-2.825,-2.8618,-2.8947,-2.9385,-2.9981,-2.9521,-2.8302,-2.5543,-2.2568,-1.9837,-1.9669,-1.8576,-1.7371,-1.8604,-2.0824,-2.3422,0.0,0.0,0.0,0.0,0.0,0.0,0.0,0.0,0.5416,0.5368,0.5712,0.6232,0.6814,0.7696,0.8459,0.8906,0.8945,0.8625,0.8065,0.7627,0.657,0.476,0.1678,0.0,0.0,-0.3457,-0.5331,-0.5319,-0.7108,-0.8039,-0.8057,-0.8378,-0.8616,-0.8628,-0.8832,-0.8755,-0.8709,-1.0022,-1.0657,-1.0564,-1.0206,-0.9307,-0.8586,0.0,0.0,0.0,0.0,0.0,0.0,0.0,0.0,0.0,0.0,0.0,0.0,0.0,0.0,0.0,0.0,0.0,0.0,0.0,0.0,0.0,0.0,0.0,0.0,0.0,0.0,0.0,0.0,0.0,0.0,0.0,0.0,0.0,0.0,-1.1612,-1.2427,-1.0405,-1.3667,-1.5332,-1.3341,-1.5559,-1.7453,-1.7896,-1.9675,-2.0389,-1.9912,-1.9986,-2.0279,-2.0668,-2.0009,-2.1289,-2.467,-2.3964,-2.4898,-2.7666,-2.6248,-2.6621,-2.8571,-2.9194,-2.9863,-3.0664,-3.124,-3.1101,-3.0594,-2.9794,-2.7765,-2.4959,-2.3857,-2.2444,-2.1192,-2.2447,-2.3921,-2.5445,0.0,0.0,0.0,0.0,0.0,0.0,0.0,0.5432,0.5393,0.5393,0.5402,0.6172,0.8066,0.8652,0.889,0.8874,0.89,0.86,0.804,0.7848,0.5466,0.0253,0.0,0.0,0.0,0.0,0.0,-0.0,-0.5422,-0.8036,-0.7948,-0.8051,-0.802,-0.804,-0.8623,-0.8595,-0.8577,-1.3602,-1.5765,-1.5839,-1.5821,-1.4424,-1.2452,0.0,0.0,0.0,0.0,0.0,0.0,0.0,0.0,0.0,0.0,0.0,0.0,0.0,0.0,0.0,0.0,0.0,0.0,0.0,0.0,0.0,0.0,0.0,0.0,0.0,0.0,0.0,0.0,0.0,0.0,0.0,0.0,0.0,-0.9788,-1.1273,-1.2213,-1.2211,-1.3464,-1.4684,-1.5584,-1.6812,-1.8064,-1.9488,-2.0033,-2.049,-2.0779,-2.0785,-2.0785,-2.0792,-2.222,-2.36,-2.4887,-2.5909,-2.6902,-2.7637,-2.7197,-2.7883,-2.9407,-2.9407,-3.0777,-3.3081,-3.3154,-3.3154,-3.3116,-3.3554,-3.2743,-3.0979,-2.7661,-2.5502,-2.4583,-2.5758,-2.631,-2.6701,0.0,0.0,0.0,0.0,0.0,0.0,0.0,0.5415,0.5404,0.5412,0.5787,0.8032,1.3133,1.0382,0.8234,0.8233,0.8204,0.8209,0.7973,0.4371,0.1581,0.0088,0.0,0.0,0.0,0.0,0.0,-0.0,-0.5334,-0.7999,-0.8026,-0.8009,-0.7975,-0.8004,-0.815,-1.0297,-1.3791,-1.5139,-1.58,-1.5772,-1.5776,-1.5397,-1.4872,0.0,0.0,0.0,0.0,0.0,0.0,0.0,0.0,0.0,0.0,0.0,0.0,0.0,0.0,0.0,0.0,0.0,0.0,0.0,0.0,0.0,0.0,0.0,0.0,0.0,0.0,0.0,0.0,0.0,0.0,0.0,-1.0931,-1.1472,-1.0035,-1.1717,-1.3158,-1.3321,-1.6999,-1.9138,-1.8322,-2.1003,-2.2867,-2.2996,-2.3489,-2.3909,-2.4003,-2.3777,-2.3754,-2.4003,-2.4007,-2.4631,-2.6022,-2.5798,-2.619,-2.7187,-2.7612,-2.8423,-2.9407,-3.0316,-3.1589,-3.3154,-3.3953,-3.3797,-3.3164,-3.3873,-3.4245,-3.4057,-3.1875,-3.0134,-2.8787,-2.9151,-2.8986,-2.8795,0.0,0.0,0.0,0.0,0.0,0.0,0.0,0.4426,0.5428,0.5399,0.7825,1.1161,1.5373,1.3054,1.0418,0.816,0.8039,0.7911,0.7656,0.2851,0.0,0.0,0.0,0.0,0.0,0.0,0.0,-0.0,-0.3118,-0.5842,-0.7972,-0.7959,-0.7995,-0.7958,-0.7994,-1.0918,-1.5795,-1.577,-1.579,-1.5798,-1.5793,-1.584,-1.5991,-1.804,-1.8465,-1.7796,-1.7111,-1.6389,-1.5203,-1.1548,0.0,0.0,0.0,0.0,0.0,0.0,0.0,0.0,0.0,0.0,0.0,0.0,0.0,0.0,0.0,0.0,0.0,0.0,0.0,0.0,0.0,0.0,0.0,0.0,-1.3411,-1.3861,-1.3456,-1.4034,-1.4678,-1.4937,-1.8758,-2.1279,-2.1097,-2.3772,-2.5639,-2.594,-2.6478,-2.6707,-2.6707,-2.5964,-2.5558,-2.5733,-2.5366,-2.5553,-2.6295,-2.6488,-2.6731,-2.7012,-2.8205,-2.9064,-2.9498,-3.1377,-3.281,-3.3797,-3.4897,-3.4966,-3.4393,-3.4837,-3.5438,0.0,0.0,0.0,0.0,0.0,-3.1653,-3.1336,0.0,0.0,0.0,0.0,0.0,0.0,0.0,0.3064,0.5379,0.5422,1.039,1.4342,1.5621,1.5192,1.2974,0.8185,0.7797,0.7559,0.693,0.2532,0.0,0.0,-0.0556,-0.086,-0.0862,-0.0297,0.0,0.0,0.0,-0.241,-0.7153,-0.7766,-0.7962,-0.8035,-0.8017,-1.0914,-1.5778,-1.583,-1.5832,-1.5812,-1.5832,-1.5837,-1.6323,-2.1228,-2.307,-2.2882,-2.14,-2.0894,-2.0493,-1.7556,0.0,0.0,0.0,0.0,0.0,0.0,0.0,0.0,0.0,0.0,0.0,0.0,0.0,0.0,0.0,0.0,0.0,0.0,0.0,0.0,0.0,0.0,0.0,0.0,-1.5905,-1.6627,-1.8582,-1.761,-1.6845,-1.7193,-1.964,-2.2095,-2.3946,-2.5767,-2.7406,-2.8682,-2.9154,-2.9272,-2.9192,-2.8087,0.0,0.0,0.0,-2.7031,-2.6714,-2.8058,-2.8192,-2.733,-2.9099,-2.9872,-2.9692,-3.247,-3.4105,-3.4746,-3.5908,-3.6249,-3.6097,-3.6184,-3.66,-3.711,-3.611,-3.6122,-3.6594,-3.5011,-3.4361,-3.4178,0.0,0.0,0.0,0.0,0.0,0.0,0.0,0.3089,0.5432,0.5431,0.9656,1.3466,1.5613,1.1614,0.8217,0.676,0.6605,0.6359,0.5758,0.2135,0.0,0.0,-0.4135,-0.6412,-0.641,-0.2206,0.0,0.0,0.0,-0.0502,-0.1603,-0.5932,-0.7962,-0.8035,-0.8017,-1.0914,-1.5778,-1.583,-1.5832,-1.5812,-1.5832,-1.5756,-1.6296,-2.1248,-2.3135,-2.3031,-2.2719,-2.2607,-2.2494,-2.1938,-1.8728,-1.4914,-1.3819,-1.2756,0.0,0.0,0.0,0.0,0.0,0.0,0.0,0.0,0.0,0.0,0.0,0.0,0.0,0.0,0.0,0.0,0.0,0.0,0.0,-1.7086,-1.9522,-2.1642,-2.2317,-2.1095,-2.0161,-2.0276,-2.2085,-2.4361,-2.6962,-2.8926,-3.0462,-3.1494,-3.2791,-3.3163,-3.218,-3.2498,-3.242,-3.1736,-3.1402,-3.0992,-3.0418,-3.0852,-3.0482,-2.9415,0.0,0.0,-3.0944,-3.3373,-3.4577,-3.4828,-3.6724,-3.6739,-3.5606,-3.7322,-3.8263,-3.8578,-3.8809,-3.9013,-3.9068,-3.8424,-3.778,-3.727,0.0,0.0,0.0,0.0,0.0,0.0,0.0,0.152,0.3338,0.5142,0.9458,1.3003,1.4732,1.0049,0.6586,0.6358,0.6307,0.6202,0.5881,0.2183,0.0,0.0,-0.5176,-0.8034,-0.8011,-0.2756,0.0,0.0,0.0,0.0,-0.0099,-0.5508,-0.7965,-0.8035,-0.8048,-1.0854,-1.5784,-1.5794,-1.5783,-1.5805,-1.5817,-1.7308,-1.9687,-2.2203,-2.3066,-2.3073,-2.3073,-2.3065,-2.3124,-2.3061,-2.1438,-1.9364,-1.874,-1.6484,-1.3717,0.0,0.0,0.0,0.0,0.0,0.0,0.0,0.0,0.0,0.0,0.0,0.0,0.0,0.0,-1.4355,-1.4641,0.0,-2.1767,-2.1092,-2.2818,-2.4321,-2.4711,-2.3283,-2.2032,-2.1429,-2.2672,-2.4772,-2.7747,-3.0193,-3.2396,-3.4264,-3.562,-3.6363,-3.6288,-3.6013,-3.6044,-3.6163,-3.4231,-3.2961,-3.2368,-3.1863,-3.1145,-3.0308,-3.2225,-3.2906,-3.2416,-3.5386,-3.6529,-3.6332,-3.7919,-3.8135,-3.7517,-3.8731,-3.9267,-3.946,-4.0422,-4.0629,-4.0309,-4.0001,-3.9778,-3.9508,0.0,0.0,0.0,0.0,0.0,0.0,0.0,0.0,0.1274,0.4919,0.9249,1.2374,1.3331,0.9084,0.6067,0.5964,0.6078,0.6193,0.6462,0.3353,0.1103,0.0,-0.4107,-0.6471,-0.6494,-0.2218,0.0,0.0,0.0,0.0,-0.0098,-0.5497,-0.7969,-0.8035,-0.7967,-1.0356,-1.437,-1.5396,-1.5817,-1.5798,-1.6324,-1.9157,-2.3123,-2.3089,-2.3124,-2.3038,-2.2717,-2.2217,-2.1701,-2.2581,-2.2969,-2.3067,-2.2896,-2.0136,-1.6596,-1.4731,-1.699,0.0,0.0,0.0,0.0,0.0,0.0,0.0,0.0,-2.1614,-2.8338,-2.4272,-2.3023,-2.2631,-2.2324,-2.4842,-2.6571,-2.5324,-2.5852,-2.6523,-2.6553,-2.4946,-2.3283,-2.2127,-2.2742,-2.4442,-2.7563,-3.0434,-3.3238,-3.5846,-3.7494,-3.8658,-3.9188,-3.8972,-3.8937,-3.9236,-3.6832,-3.5114,-3.4322,-3.3562,-3.2786,-3.2005,-3.4208,-3.4958,-3.4356,-3.7567,-3.8762,-3.834,-3.9122,-3.9619,-3.9879,-3.9729,-3.9764,-4.0,-4.1261,-4.149,-4.1098,-4.1227,-4.1363,-4.135,0.0,0.0,0.0,0.0,0.0,0.0,0.0,0.0,0.1277,0.49,0.8548,1.0821,1.0978,0.773,0.5283,0.4776,0.5205,0.5927,0.6915,0.7112,0.5014,0.0199,-0.0582,-0.0865,-0.0879,-0.0293,0.0,0.0,0.0,0.0,-0.01,-0.5522,-0.7962,-0.8035,-0.8024,-0.8373,-0.9166,-1.3825,-1.5838,-1.6008,-1.8164,-2.072,-2.3104,-2.3094,-2.3076,-2.2882,-2.1379,-1.8884,-1.6887,-2.0735,-2.2551,-2.2982,-2.2291,-2.1655,-2.1191,-2.091,-1.9606,-1.8507,-1.9727,-2.0387,-2.1749,-2.5719,-2.4738,-2.2763,0.0,-2.547,-2.8424,-2.8823,-2.9633,-2.9821,-2.8637,-3.0267,-3.0796,-2.76,-2.8584,-2.9326,-2.8262,-2.6365,-2.4701,-2.3343,-2.2922,-2.4069,-2.7338,-3.0109,-3.2574,-3.4447,-3.7795,-3.9271,-3.8339,-4.0941,-4.1357,-3.9001,-4.0106,-3.978,-3.7882,-3.8777,-3.8486,-3.6952,-3.818,-3.8292,-3.7293,-3.9282,-4.0148,-4.0093,-3.9896,-4.0244,-4.0736,-3.9522,-3.9435,-4.0187,-4.1375,-4.175,-4.186,-4.3153,-4.3198,-4.2743,0.0,0.0,0.0,0.0,0.0,0.0,0.0,0.0,0.0,0.5218,0.6697,0.8358,1.0381,0.7504,0.53,0.5017,0.527,0.5918,0.7035,0.7683,0.5588,0.0194,0.0,0.0,0.0,0.0,0.0,0.0,0.0,-0.1579,-0.4741,-0.6915,-0.7962,-0.8038,-0.7991,-0.9661,-1.2678,-1.4914,-1.5761,-1.6015,-1.8488,-2.0954,-2.3066,-2.2553,-2.2064,-2.1692,-2.1973,-2.0188,0.0,-1.8637,-1.9381,-1.9921,-1.9234,-1.9706,-2.0611,-2.0459,-1.9231,-1.8438,-2.0478,-2.1362,-2.2345,-2.5403,-2.6231,-2.6494,-2.72,-2.8225,-2.9214,-2.9732,-3.0473,-3.0516,-2.8717,-2.984,-3.0452,-2.8609,-2.8757,-2.9421,-3.0053,-2.7001,-2.476,-2.4665,-2.3427,-2.3462,-2.5788,-2.852,-3.0789,-3.2271,-3.5177,-3.7302,-3.8374,-4.0633,-4.2106,-4.2516,-4.2136,-4.1507,-4.0653,-4.0712,-4.0478,-3.9801,-4.0938,-4.1167,-4.076,-4.1934,-4.243,-4.2441,-4.2305,-4.203,-4.1552,-4.1052,-4.0709,-4.0625,-4.1087,-4.1725,-4.2444,-4.3601,-4.3959,-4.3866,0.0,0.0,0.0,0.0,0.0,0.0,0.0,0.0,0.0,0.0,0.5387,0.6375,0.8887,0.6919,0.5418,0.5368,0.5538,0.603,0.7057,0.753,0.5393,0.0188,0.0,0.0,0.0,0.0,-0.0746,-0.2251,-0.2227,-0.4228,-0.8014,-0.8018,-0.7955,-0.8038,-0.8021,-1.0134,-1.3733,-1.5234,-1.5763,-1.6014,-1.8295,-2.0226,-2.1942,-2.1854,-2.1505,-2.1118,-2.2259,-2.0909,-1.8606,-1.7803,-1.7818,-1.7952,-1.7367,-1.8267,-1.9546,-1.9353,-1.8924,-1.8864,-2.0525,-2.1386,-2.2294,-2.4333,-2.6367,-2.8154,-2.9327,-2.964,-2.9796,-2.9821,-3.0099,-2.976,-2.7865,-2.8763,-2.9513,-2.8437,-2.885,-2.9611,-3.0765,-2.8071,-2.5946,-2.5942,-2.4701,-2.4023,-2.4563,-2.6931,-2.8999,-3.0359,-3.2955,-3.5483,-3.7824,-4.0198,-4.2272,-4.4091,-4.3703,-4.325,-4.2986,-4.2841,-4.2627,-4.2364,-4.3534,-4.3854,-4.3387,-4.4216,-4.4574,-4.4576,-4.4175,-4.3467,-4.255,-4.2228,-4.1627,-4.0903,-4.1087,-4.1664,-4.258,-4.3431,-4.381,-4.3914,0.0,0.0,0.0,0.0,0.0,0.0,0.0,0.0,0.0,0.0,0.0,0.0,0.0,0.5463,0.5425,0.5432,0.5922,0.6489,0.7064,0.7093,0.5028,0.0183,0.0,0.0,0.0,0.0,-0.2589,-0.7768,-0.7799,-0.7862,-0.7965,-0.8048,-0.8038,-0.8038,-0.798,-0.81,-0.8571,-1.3614,-1.5789,-1.5972,-1.7632,-1.8536,-1.9121,-2.1109,-2.19,-2.1842,-2.1532,-1.9595,-1.7459,-1.9231,-1.9263,-1.8463,-1.8115,-1.8562,-1.9337,-1.9276,-1.9578,-1.9833,-1.9902,-2.0986,-2.2467,-2.4496,-2.6208,-2.7595,-2.8674,-2.9365,-2.9779,-2.9779,-2.9365,-2.8551,-2.7381,-2.8443,-2.8877,-2.6814,-2.9356,-3.1142,-2.9726,-2.9689,-2.9139,-2.7359,-2.737,-2.6654,-2.4326,-2.5962,-2.7672,-2.8936,-3.2162,-3.4658,-3.6174,-4.0227,-4.2255,-4.1821,-4.4833,-4.589,-4.4768,-4.6014,-4.6121,-4.5114,-4.6511,-4.6231,-4.461,-4.5782,-4.63,-4.623,-4.4756,-4.4067,-4.3943,-4.2422,-4.1464,-4.0949,-4.1534,-4.181,-4.1943,-4.2887,-4.2742,-4.2372,0.0,0.0,0.0,0.0,0.0,0.0,0.0,0.0,0.0,0.0,0.0,0.0,0.0,0.0,0.0,0.0,0.559,0.5949,0.65,0.6599,0.4634,0.0169,0.0,0.0,0.0,-0.346,-0.6146,-0.7952,-0.797,-0.7972,-0.7972,-0.8048,-0.8038,-0.8038,-0.8018,-0.8035,-0.8375,-1.4448,-1.6531,-1.5888,-1.6404,-1.772,-1.942,-2.1212,-2.1571,-2.1114,0.0,-2.0366,-1.8694,-1.9522,-1.8512,-1.677,-1.6766,-1.6915,-1.7151,-1.7846,-1.8936,-1.9902,-1.9902,-2.1871,-2.4202,-2.5253,-2.6993,-2.8574,-2.9327,-2.9654,-2.9679,-2.9302,-2.8341,-2.7257,-2.5984,-2.6184,-2.6515,-2.6505,-2.8116,-2.9774,-3.102,-3.0255,-2.942,-2.8996,-2.8076,-2.7081,-2.6183,-2.6298,-2.6474,-2.6406,-2.9023,-3.1388,-3.3293,-3.7065,-3.9899,-4.1442,-4.3783,-4.5026,-4.5062,-4.6442,-4.6749,-4.6008,-4.6756,-4.6768,-4.6206,-4.6616,-4.6808,-4.6771,-4.6268,-4.5368,-4.4263,-4.3719,-4.2705,-4.1534,-4.1707,-4.2021,-4.2422,-4.2736,-4.272,-4.2791,0.0,0.0,0.0,0.0,0.0,0.0,0.0,0.0,0.0,0.0,0.0,0.0,0.0,0.0,0.0,0.0,0.0,0.5574,0.5962,0.4753,0.2875,0.008,0.0,0.0,0.0,-0.3388,-0.5141,-0.5172,-0.5172,-0.605,-0.7731,-0.7926,-0.7967,-0.7963,-0.8014,-0.7952,-0.8378,-1.4826,-1.6863,-1.5832,-1.5763,-1.6735,-1.8506,-2.1293,-2.1409,0.0,-2.1087,-2.1085,-2.0479,-1.9497,-1.7922,-1.6344,-1.5778,-1.5482,-1.5663,-1.6786,-1.8095,-1.9273,-1.9798,-2.2129,-2.4654,-2.5424,-2.714,-2.8781,-2.9363,-2.9478,-2.9264,-2.8499,-2.698,-2.5546,-2.4619,-2.3631,-2.3418,-2.4846,-2.5958,-2.7611,-3.0466,-3.0507,-3.0343,-3.0811,-3.0286,-2.9744,-2.9346,-2.8633,-2.7665,-2.6465,-2.823,-3.0472,-3.2748,-3.5839,-3.8814,-4.1518,-4.3263,-4.4568,-4.541,-4.6471,-4.6937,-4.6826,-4.6785,-4.6883,-4.7167,-4.7032,-4.6996,-4.6977,-4.6694,-4.5929,-4.4856,-4.4447,-4.3487,-4.2297,-4.2167,-4.2342,-4.2711,-4.2711,-4.2919,-4.3349,0.0,0.0,0.0,0.0,0.0,0.0,0.0,0.0,0.0,0.0,0.0,0.0,0.0,0.0,0.0,0.0,0.0,0.0,0.5434,0.2026,0.0,0.0,0.0,0.0,0.0,0.0,0.0,0.0,0.0,-0.2292,-0.6728,-0.7577,-0.7904,-0.7994,-0.7943,-0.8024,-0.856,-1.4881,-1.6862,-1.5854,-1.5913,-1.5982,-1.6573,-2.1242,-2.1445,-1.9472,-2.0307,-2.1585,-2.2313,-1.9094,-1.7812,-1.7193,-1.5441,-1.4798,-1.4974,-1.6401,-1.7351,-1.8276,-1.9628,-2.172,-2.3732,-2.4937,-2.6595,-2.8155,-2.8661,-2.875,-2.8412,-2.7381,-2.5195,-2.3492,-2.3335,-2.0964,-1.9756,-2.1935,-2.3153,-2.5013,-2.8355,-3.0507,-3.2079,-3.2922,-3.4052,-3.4353,-3.3449,-3.2562,-3.1225,-2.916,-3.0008,-3.1819,-3.4294,-3.6513,-3.8971,-4.1773,-4.3271,-4.4547,-4.5642,-4.6133,-4.6741,-4.7446,-4.6641,-4.666,-4.7381,-4.7061,-4.6919,-4.6881,-4.6135,-4.5795,-4.5685,-4.4541,-4.3738,-4.3204,-4.2886,-4.275,-4.275,-4.275,-4.3265,-4.3916,0.0,0.0,0.0,0.0,0.0,0.0,0.0,0.0,0.0,0.0,0.0,0.0,0.0,0.0,0.0,0.0,0.0,0.0,0.5433,0.1986,0.0,0.0,0.0,0.0,0.0,0.0,0.0,0.0,0.0,-0.063,-0.1891,-0.5192,-0.6929,-0.7306,-0.7622,-0.869,-1.0537,-1.4521,-1.6102,-1.5915,-1.7026,-1.8213,-1.953,-2.0771,-2.0809,-2.0332,-2.0542,-2.0018,-1.918,-1.8664,-1.858,-1.8701,-1.787,-1.7675,-1.7931,-1.8829,-1.918,-1.9506,-2.0605,-2.2129,-2.3732,-2.477,-2.5701,-2.6651,-2.7532,-2.6783,-2.5898,-2.5528,-2.3048,-2.0963,-2.0846,-1.9034,-1.8019,-1.9451,-2.2838,-2.6066,-2.8285,-3.2142,-3.5045,-3.562,-3.6042,-3.6045,-3.5377,-3.501,-3.4591,-3.3998,-3.2888,-3.2882,-3.4461,-3.6649,-3.8583,-4.0098,-4.2068,-4.3313,-4.3632,-4.4587,-4.5306,-4.5726,-4.5763,-4.5898,-4.6071,-4.5994,-4.5954,-4.5954,-4.5724,-4.5507,-4.5247,-4.4948,-4.4417,-4.3775,-4.3698,-4.3523,-4.3286,-4.3286,-4.3426,-4.3476,0.0,0.0,0.0,0.0,0.0,0.0,0.0,0.0,0.0,0.0,0.0,0.0,0.0,0.0,0.0,0.0,0.0,0.0,0.0,0.2046,0.0,0.0,0.0,0.0,0.0,0.0,0.0,0.0,0.0,0.0,-0.0086,-0.2444,-0.4786,-0.6923,-0.7258,-0.8113,-0.9587,-1.3158,-1.4774,0.0,0.0,-1.8011,-2.0611,-2.0585,-2.0615,-2.0589,-2.0602,-2.0144,-1.9484,-1.9495,-1.9085,-1.8711,-1.8834,-1.8629,-1.8556,-1.955,-1.9951,-2.0197,-2.1215,-2.2439,-2.3526,-2.4158,-2.4563,-2.4926,-2.5361,-2.4725,-2.3819,-2.3352,-2.1197,-1.9306,-1.9072,-1.6788,-1.5526,-1.719,-2.0029,-2.3371,-2.7211,-3.1887,-3.5353,-3.6704,-3.7918,-3.8412,-3.7839,-3.7406,-3.7404,-3.8044,-3.5853,-3.4933,-3.6142,-3.7413,-3.8715,-4.0086,-4.158,-4.2617,-4.317,-4.4116,-4.4682,-4.4896,-4.5362,-4.5586,-4.5586,-4.5586,-4.5586,-4.5586,0.0,-4.5495,-4.5302,-4.5159,-4.4853,-4.4436,-4.4117,-4.3881,-4.3693,-4.3529,-4.3497,-4.3327,0.0,0.0,0.0,0.0,0.0,0.0,0.0,0.0,0.0,0.0,0.0,0.0,0.0,0.0,0.0,0.0,0.0,0.0,0.0,0.0,0.0496,0.0,0.0,0.0,0.0,0.0,0.0,0.0,0.0,0.0,0.0,0.0,-0.2223,-0.6282,-0.676,-0.7126,-0.7549,-1.1105,-1.313,-1.4058,-1.4083,-1.6509,-2.0159,0.0,-2.0614,-2.0595,-2.048,-2.0771,-2.1158,-2.0791,-1.9649,-1.8522,-1.9243,-1.8914,-1.8536,-1.9752,-2.0412,-2.0922,-2.1992,-2.2794,-2.3348,-2.3794,-2.3716,-2.3391,-2.3044,-2.2683,-2.2044,-2.0986,-1.9472,-1.8222,-1.7687,-1.4806,-1.3233,-1.5421,-1.6831,-1.9832,-2.6176,-3.1061,-3.4831,-3.727,-3.9566,-4.0751,-4.0271,-3.9479,-3.9486,-4.0753,-3.8482,-3.7445,-3.8385,-3.8457,-3.9298,-4.1056,-4.1574,-4.2346,-4.3479,-4.4165,-4.4553,-4.4624,-4.5243,-4.5568,-4.5586,-4.5586,-4.5586,-4.5586,-4.5586,-4.5528,-4.5395,-4.5111,-4.4911,-4.4709,-4.4175,-4.3938,-4.3806,-4.3513,-4.3382,-4.3162,0.0,0.0,0.0,0.0,0.0,0.0,0.0,0.0,0.0,0.0,0.5375,0.5386,0.0,0.0,0.0,0.0,0.0,0.0,0.0,0.0,0.0,0.0146,0.0,0.0,0.0,0.0,0.0,0.0,0.0,0.0,0.0,0.0,-0.1368,-0.3769,-0.5609,-0.7087,-0.8276,-0.9229,-1.1172,-1.3622,-1.4001,-1.5652,-1.8069,-1.9921,0.0,0.0,-2.0059,-1.9971,-2.0242,-2.0889,-2.1131,-2.1144,-2.0931,-2.1153,-2.154,-2.1916,-2.2035,-2.233,-2.3875,-2.4158,-2.4352,-2.5618,-2.468,-2.3184,-2.2504,-2.1376,-2.0088,-1.869,-1.8057,-1.7378,-1.5974,-1.4365,-1.3743,-1.5396,-1.8101,-2.2061,-2.7841,-3.2639,-3.6751,-3.9919,-4.0783,-4.1141,-4.0995,-4.0301,-3.9982,-4.022,-3.9807,-3.9523,-3.9626,-3.9585,-4.0244,-4.1635,-4.1744,-4.2346,-4.3479,-4.3912,-4.4261,-4.4606,-4.4988,-4.5322,-4.5586,-4.5586,-4.5586,-4.5586,-4.5586,0.0,-4.4528,-4.4474,-4.3848,-4.3016,-4.3593,-4.3491,-4.2988,-4.2921,-4.276,-4.2334,0.0,0.0,0.0,0.0,0.0,0.0,0.0,0.5401,0.5506,0.579,0.6105,0.6194,0.5878,0.604,0.6193,0.0,0.0,0.0,0.0,0.0,0.0,0.0,0.0,0.0,0.0,0.0,0.0,0.0,0.0,0.0,0.0,0.0,-0.1102,-0.3178,-0.5342,-0.6697,-0.745,-0.8057,-0.9702,-1.1904,-1.2588,-1.4311,-1.6609,-1.8253,0.0,0.0,-2.0236,-2.04,-2.0635,-2.0311,-2.1281,-2.2462,-2.204,-2.2466,-2.3185,-2.3347,-2.3276,-2.3525,-2.5206,-2.5134,-2.4708,-2.5508,-2.4362,-2.2674,-2.162,-2.0252,-1.9101,-1.8391,-1.7702,-1.6798,-1.5491,-1.3709,-1.2804,-1.3932,-1.6752,-2.0956,-2.7259,-3.2489,-3.6975,-4.047,-4.1596,-4.1908,-4.1527,-4.1209,-4.0844,-4.0546,-4.0546,-4.0356,-4.0043,-4.0007,-4.0559,-4.1768,-4.181,-4.2149,-4.2873,-4.3614,-4.3677,-4.3061,-4.3793,-4.4367,-4.4691,-4.425,-4.4364,-4.4893,-4.447,-4.4066,-4.3682,-4.3682,-4.3325,-4.2833,-4.304,-4.3202,-4.3309,-4.3133,-4.296,-4.2667,0.0,0.0,0.0,0.0,0.0,0.0,0.0,0.5451,0.5837,0.6396,0.683,0.6918,0.6534,0.6311,0.626,0.0,0.0,0.0,0.0,0.0,0.0,0.0,0.0,0.0,0.0,0.0,0.0,0.0,0.0,0.0,0.0,0.0,0.0,0.0,-0.5335,-0.6346,-0.6496,-0.7382,-0.8783,0.0,0.0,-1.3352,-1.5966,0.0,0.0,0.0,0.0,-2.0879,-2.1035,-1.992,-2.0692,-2.205,-2.2065,-2.2732,-2.3637,-2.4158,-2.4392,-2.473,-2.5513,-2.5485,-2.5214,-2.5517,-2.4422,-2.2811,-2.1031,-1.9726,-1.8744,-1.8413,-1.7626,-1.6591,-1.5452,-1.3466,-1.2344,-1.3352,-1.5714,-1.9879,-2.687,-3.1928,-3.6467,-4.0385,-4.1988,-4.2548,-4.1943,-4.189,-4.1697,-4.1115,-4.0839,-4.053,-4.0286,-4.0101,-4.0526,-4.1671,-4.1552,-4.1636,-4.2047,-4.2908,-4.2772,-4.1605,-4.2585,-4.3246,-4.3594,-4.2985,-4.3196,-4.4008,-4.3374,-4.2989,-4.2816,-4.2816,-4.2701,-4.253,-4.2412,-4.2735,-4.3243,-4.2957,-4.2837,-4.2649,0.0,0.0,0.0,0.0,0.0,0.0,0.0,0.5537,0.6404,0.6983,0.7097,0.7122,0.7031,0.682,0.6603,0.0,0.0,0.0,0.0,0.0,0.0,0.0,0.0,0.0,0.0,0.0,0.0,0.0,0.0,0.0,0.0,0.0,0.0,0.0,0.0,-0.6291,-0.6355,-0.7411,0.0,0.0,0.0,0.0,0.0,0.0,0.0,0.0,0.0,-2.0624,-2.0664,-2.0552,-1.9598,-1.8725,-2.0277,-2.1382,-2.2455,-2.4226,-2.5464,-2.5886,-2.3953,-2.4847,-2.6553,-2.7225,-2.6264,-2.4366,-2.1271,-2.0135,-1.9236,-1.7496,-1.7339,-1.7048,-1.5571,-1.4333,-1.415,-1.598,-1.7508,-2.1082,-2.8523,-3.1872,-3.5449,-4.0481,-4.1818,-4.2327,-4.2255,-4.2237,-4.2113,-4.1732,-4.0595,-4.0193,-4.0775,-4.0124,-4.0263,-4.1407,-4.0723,-4.0619,-4.1189,-4.1309,-4.144,-4.1586,-4.2013,-4.237,-4.2735,-4.2945,-4.3107,-4.3201,-4.3124,-4.2643,0.0,-4.1931,-4.145,-4.0816,-4.1572,-4.1741,-4.1549,-4.151,-4.1282,-4.0957,0.0,0.0,0.0,0.0,0.0,0.0,0.5048,0.5741,0.6358,0.6572,0.688,0.7098,0.7129,0.7054,0.6885,0.6548,0.0,0.0,0.0,0.0,0.0,0.0,0.0,0.0,0.0,0.0,0.0,0.0,0.0,0.0,0.0,0.0,0.0,0.0,0.0,-0.6441,-0.6338,-0.6718,0.0,0.0,0.0,0.0,0.0,0.0,0.0,0.0,0.0,0.0,-2.0215,-1.7545,-1.6248,-1.6027,-1.8319,-1.9268,-2.0155,-2.3154,-2.5226,-2.6306,-2.5396,-2.5816,-2.6773,-2.7956,-2.6108,-2.3653,-2.239,-2.069,-1.9207,-1.877,-1.8466,-1.7927,-1.6804,-1.6113,-1.5995,-1.6931,-1.8646,-2.1808,-2.733,-3.0228,-3.389,-3.9545,-4.0839,-4.1897,-4.3528,-4.3712,-4.3419,-4.2684,-4.1375,-4.077,-4.1197,-3.9835,-3.9543,-4.0634,-4.0383,-4.0237,-4.0377,-4.0873,-4.0751,-4.0113,-4.0707,-4.1292,-4.1799,-4.1456,-4.1679,-4.2297,-4.1758,-4.1335,0.0,-4.1008,-4.0796,-4.0527,-4.0873,-4.1251,-4.1586,-4.1604,-4.1513,-4.138,0.0,0.0,0.0,0.0,0.0,0.4632,0.5039,0.5672,0.6051,0.6022,0.6616,0.6816,0.6171,0.6659,0.7017,0.6874,0.6661,0.0,0.0,0.0,0.0,0.0,0.0,0.0,0.0,0.0,0.0,-0.0,-0.1402,-0.1356,0.0,0.0,-0.5408,-0.4216,0.0,0.0,0.0,0.0,0.0,0.0,0.0,0.0,0.0,0.0,0.0,0.0,0.0,0.0,0.0,0.0,0.0,-1.3892,-1.5528,-1.6733,-1.8152,-2.1016,-2.4103,-2.6323,-2.5696,-2.5462,-2.5702,-2.6764,-2.4593,-2.2184,-2.2577,-2.0765,-1.9171,-1.9698,-1.9347,-1.8867,-1.8484,-1.8144,-1.8094,-1.8727,-2.0392,-2.2963,-2.6901,-2.95,-3.2836,-3.7945,-3.9472,-4.1046,-4.3493,-4.4316,-4.4233,-4.3113,-4.1782,-4.0998,-4.0854,-3.9061,-3.8681,-4.0075,-3.9893,-3.9717,-3.9663,-4.0234,-4.0081,-3.9257,-3.9914,-4.049,-4.094,-4.0444,-4.0666,-4.1373,-4.0758,-4.0489,0.0,-4.0489,-4.0489,-4.0489,-4.0489,-4.0873,-4.1412,-4.1412,-4.1412,-4.1412,0.0,0.0,0.0,0.0,0.0,0.0,0.4526,0.4997,0.5438,0.541,0.6362,0.6205,0.3856,0.5714,0.7121,0.7104,0.708,0.0,0.0,0.0,0.0,0.0,0.0,0.0,0.0,0.0,0.0,-0.0,-0.4729,-0.4603,-0.0084,-0.2516,-0.4729,-0.669,0.0,0.0,0.0,0.0,0.0,0.0,0.0,0.0,0.0,0.0,0.0,0.0,0.0,0.0,0.0,0.0,0.0,0.0,0.0,-1.3855,-1.6893,-1.7813,-2.2062,-2.5984,-2.3754,-2.3121,-2.3106,-2.3138,-2.1471,-2.0109,-2.1244,-2.0225,-1.9171,-1.9698,-1.9748,-1.9877,-2.0384,-2.0351,-2.0677,-2.1939,-2.2975,-2.4812,-2.8113,-3.0309,-3.2684,-3.5683,-3.7747,-3.964,-4.1442,-4.3497,-4.4117,-4.2709,-4.1549,0.0,-3.958,-3.7751,-3.7682,-3.9845,-3.9148,-3.8833,-3.9117,-3.9117,-3.9282,-3.9599,-3.9941,-4.012,-4.012,-4.0372,-4.0489,-4.0508,-4.0489,-4.0489,0.0,-4.0489,-4.0489,-4.0489,-4.0489,-4.0508,-4.0508,-4.0508,-4.0508,-4.0508,0.0,0.0,0.0,0.0,0.0,0.0,0.0,0.503,0.539,0.5396,0.3567,0.2556,0.3537,0.5667,0.7071,0.7128,0.7088,0.0,0.0,0.0,0.0,0.0,0.0,0.0,0.0,0.0,0.0,-0.0,-0.4782,-0.6288,-0.4868,-0.5632,-0.6212,-0.6681,-0.6651,-0.6498,0.0,0.0,0.0,0.0,0.0,0.0,-1.4342,0.0,0.0,0.0,0.0,0.0,0.0,0.0,0.0,0.0,0.0,0.0,0.0,-1.5827,-1.753,-1.9375,-2.1458,-2.2034,-2.2035,-2.2318,-2.033,-1.8875,-2.0983,-1.9635,-1.8166,-1.9083,-1.9258,-1.942,-2.004,-2.0772,-2.1638,-2.2908,-2.4224,-2.573,-2.736,-2.9779,-3.2582,-3.5769,-3.9605,-4.2247,-4.29,-4.3471,-4.3477,-4.2736,-4.1817,-4.0707,-3.9314,-3.8126,-3.7993,-3.9038,-3.8285,-3.8003,-3.829,-3.8838,-3.9083,-3.9067,-3.9776,-4.0195,-4.0372,-4.0457,-4.02,-3.97,-4.0258,-4.0181,-3.9719,-4.0258,-4.0181,-3.9681,-3.9681,-3.9681,-3.9681,-3.9681,-4.0027,-4.0489,0.0,0.0,0.0,0.0,0.0,0.0,0.0,0.4833,0.4631,0.3479,0.1388,0.0545,0.2058,0.5145,0.7118,0.7121,0.7093,0.0,0.0,0.0,0.0,0.0,0.0,0.0,0.0,0.0,-0.0896,-0.2644,-0.4755,-0.6268,-0.7141,-0.7094,-0.6954,-0.6739,-0.6797,-0.6654,0.0,0.0,0.0,0.0,0.0,0.0,-1.4255,0.0,0.0,0.0,0.0,0.0,0.0,0.0,0.0,0.0,0.0,0.0,0.0,0.0,-1.4615,-1.5566,-1.9188,-2.0182,-2.0369,-2.12,-1.9674,-1.8589,-2.0715,-1.9371,-1.7894,-1.8524,-1.8868,-1.9184,-1.9562,-2.058,-2.1858,-2.3251,-2.4553,-2.5967,-2.7474,-2.9888,-3.2741,-3.6105,-3.976,-4.2167,-4.2578,-4.3095,-4.3016,-4.208,-4.1388,-4.027,-3.8583,-3.7555,-3.7281,-3.794,-3.7364,-3.7173,-3.7434,-3.8053,-3.8346,-3.8365,-3.9335,-3.9706,-3.9565,-3.9892,-3.9585,-3.8834,-3.9335,-3.9258,0.0,-3.9354,-3.9258,-3.8834,-3.9161,-3.9296,-3.9335,-3.9642,-4.0065,-4.0489,0.0,0.0,0.0,0.0,0.0,0.0,0.0,0.4339,0.3199,0.0398,0.0,0.0,0.0,0.4229,0.7137,0.7139,0.0,0.0,0.0,0.0,0.0,0.0,0.0,0.0,0.0,0.0,-0.2333,-0.709,-0.4969,-0.502,-0.7118,-0.7094,-0.7007,-0.6787,-0.6863,-0.6854,0.0,0.0,0.0,0.0,0.0,0.0,0.0,0.0,0.0,0.0,0.0,0.0,0.0,0.0,0.0,0.0,0.0,0.0,0.0,0.0,0.0,0.0,0.0,-1.7804,-1.8206,-1.983,-1.9495,-1.9112,-2.0357,-1.9384,0.0,-1.8139,-1.8475,-1.8798,-1.8826,-1.9879,-2.1263,-2.291,-2.4103,-2.571,-2.8269,-3.0656,-3.3356,-3.6601,-3.8646,-4.0033,-4.0672,-4.2187,-4.2466,-4.0844,-4.0312,-3.9295,-3.7525,-3.6252,-3.5869,-3.6547,-3.6334,-3.6334,-3.6634,-3.6938,-3.7258,-3.7542,-3.8681,-3.8777,-3.8027,-3.8834,-3.8719,0.0,-3.7969,-3.7969,-3.7911,-3.7969,-3.7969,-3.7988,-3.8796,-3.9142,-3.9277,-3.9969,-4.0335,-4.0489,0.0,0.0,0.0,0.0,0.0,0.0,0.0,0.0,0.0,0.0,0.0,0.0,0.0,0.4255,0.7132,0.0,0.0,0.0,0.0,0.0,0.0,0.0,0.0,0.0,0.0,0.0,-0.237,-0.709,-0.6847,-0.6963,-0.7464,-0.7455,-0.736,-0.7031,-0.7011,-0.6946,0.0,0.0,0.0,0.0,0.0,0.0,0.0,0.0,0.0,0.0,-1.5372,-1.5204,0.0,0.0,0.0,0.0,0.0,0.0,0.0,0.0,-1.301,-1.358,-1.5525,0.0,-1.6353,-1.7868,-1.8911,-1.9645,0.0,-1.9088,-1.8188,-1.8164,-1.6858,-1.6011,-1.6925,-1.8261,-1.9584,-2.0647,-2.3064,-2.5526,-2.7642,-3.2244,-3.5786,-3.6868,-3.909,-3.9894,-3.8252,-3.9594,-4.0136,-3.9076,-3.884,-3.8157,-3.6803,-3.6345,-3.5816,-3.5192,-3.5108,-3.5409,-3.6095,-3.6767,-3.7034,-3.6915,-3.7858,-3.82,-3.8007,-3.82,-3.7834,-3.7046,-3.7719,-3.7623,-3.7065,-3.7738,-3.7603,-3.7026,-3.7238,-3.7719,-3.8257,-3.7777,-3.8834,-4.0412,0.0,0.0,0.0,0.0,0.0,0.0,0.0,0.0,0.0,0.0,0.0,0.0,0.0,0.0,0.0,0.0,0.0,0.0,0.0,0.0,0.0,0.0,0.0,0.0,0.0,0.0,-0.1908,-0.5644,-0.6973,-0.7639,-0.7602,-0.757,-0.7478,-0.7258,-0.7109,-0.6956,0.0,0.0,0.0,0.0,-1.0661,0.0,0.0,0.0,0.0,0.0,-1.4552,-1.4366,0.0,-1.3777,-1.2742,-1.1637,0.0,0.0,0.0,0.0,-1.2034,-1.2066,-1.2984,-1.4294,-1.5586,-1.6377,-1.717,-1.8112,-1.9492,-1.8967,-1.8194,-1.8214,-1.6749,-1.5588,-1.5912,-1.7468,-1.8995,-1.9879,-2.2113,-2.4938,-2.8317,-3.2247,-3.5176,-3.6275,-3.7586,-3.8219,-3.774,-3.8524,-3.8556,-3.7344,-3.7534,-3.7065,-3.5556,-3.5296,-3.4901,-3.4301,-3.3771,-3.3919,-3.4749,-3.5702,-3.5911,-3.5396,-3.6752,-3.7219,-3.6873,-3.7238,-3.6949,-3.618,-3.6661,-3.6603,-3.6199,-3.6661,-3.6565,-3.6199,-3.6565,-3.6988,-3.7392,-3.7315,-3.8161,-3.9277,0.0,0.0,0.0,0.0,0.0,0.0,0.0,0.0,0.0,0.0,0.0,0.0,0.0,0.0,0.0,0.0,0.0,0.0,0.0,0.0,0.0,0.0,0.0,0.0,0.0,0.0,-0.1151,-0.3392,-0.6302,-0.7605,-0.7604,-0.7648,-0.7573,-0.739,-0.7048,-0.6895,0.0,0.0,0.0,0.0,-0.9562,0.0,0.0,0.0,0.0,0.0,0.0,0.0,0.0,-1.3097,-1.2246,-1.1356,-1.1309,0.0,0.0,0.0,0.0,0.0,-1.0547,-1.2569,-1.4839,-1.5614,-1.5576,-1.608,-1.8584,-1.8495,-1.7861,-1.7478,-1.6933,-1.6287,-1.5623,-1.7135,-1.8835,-1.9849,-2.1914,-2.5056,-2.9882,-3.2166,-3.3871,-3.5348,-3.579,-3.6367,-3.7406,-3.7751,-3.7233,-3.5625,-3.6075,-3.5768,-3.4205,-3.3838,-3.3684,-3.3665,-3.2743,-3.2524,-3.3129,-3.4181,-3.4416,-3.3875,-3.5532,-3.6026,-3.5512,-3.6219,-3.6142,-3.5493,0.0,0.0,-3.5493,-3.5493,-3.5493,-3.5584,-3.6257,-3.6603,-3.6776,-3.7392,-3.7777,-3.8007,0.0,0.0,0.0,0.0,0.0,0.0,0.0,0.0,0.0,0.0,0.0,0.0,0.0,0.0,0.0,0.0,0.0,0.0,0.0,0.0,0.0,0.0089,0.0,0.0,0.0,0.0,-0.0176,-0.0629,-0.5506,-0.7813,-0.7715,-0.7862,-0.7828,-0.7539,-0.6983,-0.6736,-0.6719,0.0,0.0,0.0,-0.9375,0.0,0.0,0.0,0.0,0.0,0.0,0.0,0.0,-1.1573,-1.1228,-1.1015,-1.0768,0.0,0.0,0.0,0.0,0.0,-1.0444,-1.096,-1.2336,-1.6568,-1.6507,-1.5527,-1.5984,-1.6404,-1.6182,-1.4136,-1.5211,-1.6451,-1.6356,-1.709,-1.8179,-1.9374,-2.3947,-2.8567,-3.2138,-3.473,-3.5859,-3.4812,-3.6485,-3.6694,-3.4154,-3.5243,-3.543,-3.3828,-3.3807,-3.3726,-3.339,-3.3217,-3.3094,-3.3044,-3.2883,-3.2511,-3.1974,-3.2592,-3.3314,-3.4139,-3.4436,-3.4911,-3.5493,-3.5641,-3.5622,-3.5493,0.0,-3.5493,-3.5493,-3.5493,-3.5493,-3.5512,-3.5641,-3.6103,-3.6642,-3.6103,-3.6776,-3.8007,0.0,0.0,0.0,0.0,0.0,0.0,0.0,0.0,0.0,0.0,0.0,0.0,0.0,0.0,0.0,0.0,0.0,0.0,0.0,0.0,0.3805,0.018,0.0,0.0,0.0,0.0,-0.0625,-0.1912,-0.4453,-0.6312,-0.7715,-0.7662,-0.756,-0.7333,-0.6895,-0.6702,-0.6681,-0.6386,0.0,0.0,0.0,0.0,0.0,0.0,0.0,0.0,0.0,0.0,0.0,0.0,-1.0755,-1.0681,-1.0288,0.0,0.0,0.0,0.0,0.0,-0.8523,-0.9511,-1.0954,-1.2445,-1.2208,-1.1637,-1.1621,-1.3862,-1.5139,-1.2339,-1.3233,-1.451,-1.4439,-1.6127,-1.8539,-2.1539,-2.5665,-2.9098,-3.0956,-3.2436,-3.3275,-3.3106,-3.4039,-3.4308,-3.3307,-3.3905,-3.3884,-3.2792,-3.3066,-3.3076,-3.2575,-3.2415,-3.234,-3.2301,-3.1814,-3.1371,-3.1006,-3.1245,-3.1859,-3.2852,-3.3295,-3.3718,-3.4103,-3.4103,-3.4353,-3.4795,0.0,-3.5064,-3.5493,-3.5493,-3.5493,-3.5493,-3.5493,-3.5738,-3.6007,-3.5641,-3.5988,-3.6719,0.0,0.0,0.0,0.0,0.0,0.0,0.0,0.0,0.0,0.0,0.0,0.0,0.0,0.0,0.0,0.0,0.0,0.0,0.0,0.0,0.5017,0.018,0.0,0.0,0.0,0.0,-0.1177,-0.3585,-0.3588,-0.5025,-0.7705,-0.7448,-0.7309,-0.718,-0.6885,-0.6732,-0.6681,-0.642,-0.642,0.0,0.0,0.0,0.0,0.0,0.0,0.0,0.0,0.0,0.0,0.0,0.0,0.0,0.0,0.0,0.0,-0.9913,-0.911,-0.8203,-0.7318,-0.8138,-0.8959,-0.7906,-0.7642,-0.788,-0.8623,-1.1112,-1.2982,-1.2004,-1.2352,-1.2916,-1.3202,-1.5726,-1.9164,-2.3348,-2.6538,-2.8943,-3.0148,-3.0681,-3.1267,-3.2112,-3.1981,-3.2045,-3.2615,-3.2455,-3.2086,-3.1604,-3.191,-3.1914,-3.1445,-3.1125,-3.0944,-3.0917,-3.0398,-3.011,-3.0102,-3.0047,-3.0585,-3.1718,-3.2314,-3.2718,-3.2891,-3.2891,-3.3256,-3.3891,-3.3891,-3.4391,-3.5199,-3.5199,-3.5334,-3.5493,-3.5493,-3.5493,-3.5493,-3.5493,-3.5493,-3.557,0.0,0.0,0.0,0.0,0.0,0.0,0.0,0.0,0.0,0.0,0.0,0.0,0.0,0.0,0.0,0.0,0.0,0.0,0.0,0.0,0.4942,0.018,0.0,0.0,0.0,0.0,-0.117,-0.3612,-0.3569,-0.493,-0.7597,-0.7444,-0.7366,-0.7343,-0.7044,-0.6834,-0.6692,-0.6525,-0.6393,-0.6447,-0.7415,0.0,0.0,0.0,0.0,0.0,0.0,0.0,0.0,0.0,0.0,0.0,0.0,0.0,-0.9669,-0.9217,-0.864,-0.8222,-0.8328,-0.6852,-0.5201,-0.522,-0.5405,-0.6366,-0.9355,-0.8487,-0.844,-1.3597,-1.3665,-1.3176,-1.4623,-1.7014,-1.9757,-2.2944,-2.5989,-2.9023,-3.2059,-3.2714,-3.2956,-3.3087,-3.2398,-3.1604,-3.0874,-3.0106,-2.9692,-2.9682,-2.9059,-2.8965,-2.9648,-2.8905,-2.8396,-2.8283,-2.8933,-2.9271,-2.9179,-2.9021,-2.9845,-3.1698,-3.1756,-3.2179,-3.2891,-3.2891,-3.2929,-3.2987,-3.2987,-3.3487,-3.4295,-3.4295,-3.4776,-3.5493,-3.5493,-3.5493,-3.5493,-3.5493,-3.5493,-3.5479,0.0,0.0,0.0,0.0,0.0,0.0,0.0,0.0,0.0,0.0,0.0,0.0,0.0,0.0,0.0,0.0,0.0,0.0,0.0,0.7126,0.494,0.018,0.0,0.0,0.0,0.0,-0.1051,-0.3288,-0.4939,-0.6729,-0.847,-0.761,-0.7667,-0.8452,-0.7361,-0.6844,-0.6692,-0.6536,-0.6441,-0.6462,-0.6758,0.0,0.0,0.0,0.0,0.0,0.0,0.0,0.0,0.0,-0.8938,-0.9363,-0.8957,-0.933,-0.9741,-0.8555,-0.7847,-0.7362,-0.6808,-0.5354,-0.4241,-0.4914,-0.4207,-0.4039,-0.67,-0.7507,-0.8059,-0.9377,-1.1518,-1.3493,-1.4729,-1.6534,-1.8779,-2.1581,-2.4686,-2.7616,-3.017,-3.0711,-3.0849,-3.0777,-3.056,-3.0078,-2.9255,-2.8859,-2.8674,-2.8744,-2.8467,-2.8437,-2.873,-2.8398,-2.8177,-2.8119,-2.8343,-2.8437,-2.8418,-2.8295,-2.8548,-2.9143,-2.9031,-2.9646,-3.0906,-3.0388,-3.0806,-3.1905,-3.1905,-3.2472,-3.3391,-3.3391,-3.3583,-3.3949,-3.4487,-3.468,-3.4757,-3.5315,-3.5493,-3.546,0.0,0.0,0.0,0.0,0.0,0.0,0.0,0.0,0.0,0.0,0.0,0.0,0.0,0.0,0.0,0.0,0.0,0.0,0.6766,0.5572,0.3436,0.0178,0.0,0.0612,0.1984,0.1969,0.0423,-0.2838,-0.5468,-0.7455,-0.8966,-0.8103,-0.8158,-0.9046,-0.8005,-0.725,-0.6759,-0.6559,-0.6447,-0.6396,-0.6298,-0.6338,0.0,0.0,0.0,0.0,0.0,0.0,0.0,0.0,-0.7887,-0.8385,-0.8142,-0.851,-0.8777,-0.781,-0.7141,-0.651,-0.5483,-0.4085,-0.306,-0.3522,-0.2113,-0.1289,-0.3811,-0.5654,-0.6917,-0.7229,-1.0238,-1.2885,-1.3142,-1.5113,-1.7529,-1.9901,-2.3153,-2.62,-2.8476,-2.8931,-2.9025,-2.8934,-2.8774,-2.8469,-2.7949,-2.7605,-2.7548,-2.787,-2.7637,-2.7598,-2.7871,-2.7598,-2.7402,-2.7383,-2.7535,-2.7624,-2.7591,-2.7462,-2.7426,-2.7466,-2.676,-2.7304,-2.8919,-2.8369,-2.896,-3.0415,-3.0475,-3.1226,-3.239,-3.2481,-3.2679,-3.2968,-3.3564,-3.3949,-3.4257,-3.4872,-3.5215,-3.5339,0.0,0.0,0.0,0.0,0.0,0.0,0.0,0.0,0.0,0.0,0.0,0.0,0.0,0.0,0.0,0.0,0.0,0.0,0.6053,0.2317,0.0,0.0,0.0,0.1938,0.6198,0.6302,0.3421,-0.2364,-0.4688,-0.6812,-0.8692,-0.8852,-0.8966,-0.9139,-0.9134,-0.8265,-0.6905,-0.6603,-0.639,-0.6342,-0.6338,-0.6261,-0.6227,0.0,0.0,0.0,0.0,0.0,0.0,0.0,-0.7389,-0.7286,-0.8391,-0.775,-0.6638,-0.6966,-0.6495,-0.5639,-0.4712,-0.3014,-0.1287,-0.058,0.1099,0.1745,-0.1096,-0.2406,-0.4242,-0.8309,-1.0398,-1.1049,-0.9762,-1.2772,-1.6083,-1.7963,-2.153,-2.4948,-2.7518,-2.7983,-2.8087,-2.8074,-2.7364,-2.6906,-2.6971,-2.6211,-2.6055,-2.6914,-2.6191,-2.6074,-2.6934,-2.6172,-2.5664,-2.5605,-2.6367,-2.6754,-2.6699,-2.6412,-2.6597,-2.7167,-2.5358,-2.5485,-2.7289,-2.7289,-2.7724,-2.8499,-2.8698,-2.9737,-3.1302,-3.1565,-3.216,-3.2872,-3.2891,-3.341,-3.416,-3.418,-3.4572,-3.5051,0.0,0.0,0.0,0.0,0.0,0.0,0.0,0.0,0.0,0.0,0.0,0.0,0.0,0.0,0.0,0.0,0.0,0.0,0.6004,0.2314,0.0,0.0,0.0,0.1942,0.622,0.6304,0.3463,-0.2426,-0.4917,-0.7453,-0.9858,-0.9105,-0.9587,-1.098,-0.9473,-0.8417,-0.7741,-0.6877,-0.6447,-0.64,-0.6302,-0.6196,-0.6074,0.0,0.0,0.0,0.0,0.0,0.0,0.0,0.0,0.0,-0.5711,-0.5529,-0.5411,-0.607,-0.4406,-0.209,-0.0719,-0.0514,-0.0413,0.0814,0.182,0.2722,0.3693,0.0638,-0.3321,-0.6486,-0.7344,-0.8063,-1.0013,-1.132,-1.3191,-1.6494,-1.9435,-2.2392,-2.5554,-2.6152,-2.6286,-2.6334,-2.6124,-2.5994,-2.6016,-2.583,-2.5781,-2.5996,-2.582,-2.5801,-2.6074,-2.584,-2.5684,-2.5664,-2.5821,-2.5887,-2.5861,-2.5676,-2.5616,-2.5646,-2.5012,-2.5452,-2.6802,-2.6209,-2.6488,-2.7379,-2.743,-2.8247,-2.9584,-3.0237,-3.0652,-3.092,-3.1532,-3.1929,-3.2249,-3.3006,-3.3671,-3.4156,0.0,0.0,0.0,0.0,0.0,0.0,0.0,0.0,0.0,0.0,0.0,-0.0632,0.0,0.0,0.0,0.0,0.0,0.0,0.0,0.1379,0.0,0.0,0.0,0.1175,0.3778,0.5422,0.4155,-0.0242,-0.4431,-0.7733,-1.0101,-0.9611,-1.0279,-1.1786,-1.0198,-0.8958,-0.804,-0.6853,-0.6298,-0.6288,-0.6203,-0.6112,-0.6013,0.0,0.0,0.0,0.0,0.0,0.0,0.0,0.0,0.0,-0.4076,-0.4329,-0.4783,-0.486,-0.1997,0.1341,0.2304,0.3013,0.3605,0.4118,0.4439,0.4769,0.5219,0.1916,-0.2184,-0.5457,-0.5203,-0.4903,-0.6285,-0.8129,-1.0449,-1.3721,-1.7301,-2.0809,-2.3998,-2.4787,-2.4902,-2.4568,-2.4546,-2.4703,-2.5043,-2.4807,-2.4748,-2.5066,-2.5155,-2.5176,-2.5176,-2.5508,-2.5703,-2.5703,-2.5564,-2.5493,-2.5505,-2.537,-2.5171,-2.493,-2.4842,-2.5099,-2.564,-2.5126,-2.5427,-2.6339,-2.673,-2.7389,-2.8265,-2.9072,-2.9414,-2.949,-3.033,-3.0925,-3.142,-3.229,-3.3048,-3.3637,0.0,0.0,0.0,0.0,0.0,0.0,0.0,0.0,0.0,0.0,0.0,-0.1488,0.0,0.0,0.0,0.0,0.0,0.0,0.0,0.0,0.0,0.0,0.0,0.0,0.0,0.3793,0.4706,0.2499,-0.3626,-0.7588,-0.9468,-1.0062,-1.0751,-1.16,-1.0936,-0.971,-0.8051,-0.6651,-0.6081,-0.601,-0.601,-0.6,-0.5976,-0.5999,0.0,0.0,0.0,0.0,0.0,0.0,0.0,0.0,-0.3357,-0.3909,-0.4167,-0.3118,0.0653,0.4494,0.4742,0.7012,0.9071,0.8276,0.8021,0.7293,0.4629,0.2181,-0.0587,-0.4341,-0.3499,-0.1687,-0.0424,-0.3947,-0.7989,-1.0592,-1.5461,-1.9893,-2.2798,-2.3721,-2.382,-2.3001,-2.2941,-2.3285,-2.4088,-2.3454,-2.3323,-2.4107,-2.4239,-2.4276,-2.4277,-2.5019,-2.5488,-2.5565,-2.5457,-2.5421,-2.5486,-2.537,-2.5138,-2.4832,-2.4804,-2.4591,-2.4228,-2.417,-2.4556,-2.5309,-2.634,-2.6928,-2.7236,-2.8032,-2.8355,-2.8431,-2.9226,-3.0156,-3.1096,-3.1729,-3.2468,-3.3217,0.0,0.0,0.0,0.0,0.0,0.0,0.0,0.0,0.0,0.0,0.0,0.0,0.0,0.0,0.0,0.0,0.0,0.0,0.0,0.0,0.0,0.0,0.0,0.0,0.0,0.0888,0.032,-0.1728,-0.489,-0.6714,-0.7315,-0.903,-1.025,-1.0959,-1.0806,-1.003,-0.8788,-0.7445,-0.6497,-0.585,-0.585,-0.5783,-0.5681,-0.5734,-0.3094,0.0,0.0,0.0,0.0,0.0,0.0,0.0,-0.4072,-0.3177,-0.0742,0.0621,0.3508,0.6628,0.8432,0.9092,0.9274,0.9087,0.864,0.7606,0.5554,0.4466,0.3089,0.0444,0.0124,0.0483,0.0826,-0.232,-0.6663,-1.1746,-1.5203,-1.8433,-2.1943,-2.2646,-2.2823,-2.2815,-2.2789,-2.2883,-2.3172,-2.3086,-2.3058,-2.3199,-2.3256,-2.3295,-2.3293,-2.3472,-2.3897,-2.4588,-2.4516,-2.478,-2.5428,-2.5341,-2.5192,-2.4949,-2.4855,-2.467,-2.4409,-2.3999,-2.3907,-2.4127,-2.5412,-2.5998,-2.6124,-2.6894,-2.725,-2.7324,-2.8129,-2.8596,-2.8913,-2.9868,-3.0659,-3.1208,0.0,0.0,0.0,0.0,0.0,0.0,0.0,0.0,0.0,0.0,0.0,0.0,0.0,0.0,0.0,0.0,0.0,0.0,0.0,0.0,0.0,0.0,0.0,0.0,0.0,0.0,-0.1526,-0.4633,-0.5752,-0.6626,-0.7207,-0.8944,-1.0116,-1.0783,-1.0783,-1.0132,-0.8852,-0.7583,-0.653,-0.5701,-0.5701,-0.5654,-0.5451,-0.4394,-0.1697,0.1576,0.2355,0.0,0.0,0.0,0.0,0.0,0.0,0.0,0.0062,0.1475,0.4618,0.7991,0.9155,1.0068,1.0647,1.0475,0.9462,0.8154,0.711,0.6382,0.5571,0.437,0.3738,0.3426,0.3445,0.0332,-0.3881,-0.8976,-1.2986,-1.671,-2.0352,-2.1272,-2.1545,-2.1378,-2.133,-2.1502,-2.1989,-2.1752,-2.1722,-2.2106,-2.2263,-2.233,-2.2338,-2.2757,-2.3217,-2.3657,-2.3609,-2.3975,-2.4812,-2.4657,-2.4702,-2.4904,-2.4727,-2.4369,-2.3866,-2.3759,-2.3692,-2.3732,-2.4443,-2.4838,-2.5042,-2.5857,-2.619,-2.6264,-2.7059,-2.7676,-2.8202,-2.904,-2.9897,-3.0637,0.0,0.0,0.0,0.0,0.0,0.0,0.0,0.0,0.0,0.0,0.0,0.0,0.0,0.0,0.0,0.0,0.0,0.0,0.0,0.0,0.0,0.0,0.0,0.0,0.0,0.0,-0.2066,-0.6328,-0.623,-0.6689,-0.7638,-0.8791,-0.975,-1.049,-1.0598,-0.9952,-0.8682,-0.7578,-0.6491,-0.5552,-0.5552,-0.5552,-0.5271,-0.2692,-0.0337,0.2033,0.4737,0.5885,0.599,0.5568,0.0,0.0,0.0,0.0,0.0666,0.1698,0.4953,0.8309,0.875,1.053,1.214,1.1683,1.0278,0.886,0.827,0.7677,0.7133,0.6889,0.6554,0.6182,0.5861,0.2726,-0.1181,-0.5491,-1.0456,-1.4999,-1.858,-1.974,-2.0103,-1.9682,-1.9676,-1.9994,-2.0721,-2.0299,-2.0259,-2.0982,-2.1224,-2.1312,-2.1312,-2.2084,-2.2601,-2.2736,-2.2692,-2.308,-2.3956,-2.3722,-2.3923,-2.4563,-2.4435,-2.3946,-2.3212,-2.3414,-2.3566,-2.3628,-2.3671,-2.3896,-2.4245,-2.4925,-2.5201,-2.5274,-2.608,-2.6886,-2.7733,-2.8519,-2.9359,-3.02,0.0,0.0,0.0,0.0,0.0,0.0,0.0,0.0,0.0,0.0,0.0,0.0,0.0,0.0,0.0,0.0,0.0,0.0,-0.027,0.0,0.0,0.0,0.0,0.0,0.0,0.0,-0.204,-0.6313,-0.5995,-0.6186,-0.6747,-0.7667,-0.8387,-0.9124,-0.9718,-0.9472,-0.8451,-0.8032,-0.6898,-0.5459,-0.5403,-0.5406,-0.5062,-0.161,0.1193,0.3533,0.5994,0.7671,0.8415,0.6187,0.4056,0.0,0.0,0.0,0.3906,0.4032,0.5108,0.6733,0.8975,1.0889,1.2184,1.1642,1.0808,0.957,0.7575,0.7366,0.7432,0.6802,0.7162,0.7181,0.583,0.3049,-0.0568,-0.5262,-0.9596,-1.3614,-1.725,-1.8138,-1.857,-1.8886,-1.913,-1.9364,-1.9604,-1.975,-1.9862,-1.9994,-2.0134,-2.0212,-2.0212,-2.0502,-2.0974,-2.1686,-2.1686,-2.21,-2.2975,-2.2833,-2.308,-2.3667,-2.3768,-2.3592,-2.3189,-2.2947,-2.2996,-2.3282,-2.3566,-2.3896,-2.4208,-2.4318,-2.4355,-2.4428,-2.5256,-2.5643,-2.5939,-2.7423,-2.8048,-2.8294,0.0,0.0,0.0,0.0,0.0,0.0,0.0,0.0,0.0,0.0,0.0,-0.3033,0.0,0.0,0.0,-0.3764,-0.4821,-0.3835,-0.0268,0.0,0.0,0.0,0.0,0.0,0.0,0.0,-0.0884,-0.2767,-0.364,-0.4822,-0.6304,-0.6662,-0.774,-0.9406,-1.0035,-0.9801,-0.8845,-0.8425,-0.7154,-0.5428,-0.5372,-0.5379,-0.4964,-0.0663,0.2042,0.3921,0.7117,0.8737,0.9005,0.701,0.537,0.3556,-0.0062,0.0,0.0,0.0,0.3914,0.5891,0.9307,1.1575,1.2786,1.2359,1.1835,1.095,0.8971,0.8438,0.8209,0.7889,0.7805,0.7296,0.5773,0.4098,0.1255,-0.3989,-0.8679,-1.2719,-1.5648,-1.7171,-1.8087,-1.8366,-1.8681,-1.8945,-1.9154,-1.9364,-1.9535,-1.9682,-1.9802,-1.9933,-2.0003,-2.0078,-2.0296,-2.0641,-2.076,-2.1156,-2.1833,-2.1757,-2.2216,-2.3219,-2.3361,-2.3346,-2.3165,-2.2695,-2.2643,-2.2923,-2.3069,-2.3346,-2.3649,-2.3649,-2.3735,-2.3953,-2.4299,-2.4839,-2.5495,-2.6193,-2.6741,-2.7236,0.0,0.0,0.0,0.0,0.0,0.0,0.0,0.0,0.0,0.0,0.0,0.0,0.0,0.0,0.0,0.0,-0.4643,-0.4241,-0.154,-0.0478,0.0,0.0,0.0,0.0,0.0,0.0,0.0,-0.0,-0.1779,-0.3765,-0.5845,-0.5942,-0.7387,-0.9842,-1.0084,-0.9737,-0.9057,-0.859,-0.7395,-0.574,-0.4932,-0.4375,-0.357,0.1177,0.3714,0.5192,0.8361,0.973,0.9691,0.8153,0.6936,0.5195,0.0062,-0.0859,0.0,0.0,0.0,0.6075,0.97,1.1831,1.3015,1.3035,1.2643,1.1884,1.036,0.9503,0.9008,0.8857,0.8374,0.7557,0.6032,0.4841,0.2393,-0.2665,-0.755,-1.1576,-1.4072,-1.6099,-1.7464,-1.7907,-1.8205,-1.8491,-1.877,-1.9013,-1.9237,-1.9442,-1.9625,-1.9778,-1.9901,-1.9943,-1.9953,-1.9953,-2.0088,-2.046,-2.106,-2.1399,-2.2051,-2.2997,-2.3145,-2.3189,-2.3165,-2.2588,-2.2398,-2.2599,-2.2669,-2.2898,-2.3189,-2.3189,-2.3392,-2.3692,-2.3692,-2.4221,-2.499,-2.5289,-2.5667,-2.618,0.0,0.0,0.0,0.0,0.0,0.0,0.0,0.0,0.0,0.0,0.0,0.0,-0.5413,-0.5333,-0.5256,-0.5243,-0.5379,-0.5316,-0.5122,-0.1878,0.0,0.0,0.0,0.0,0.0,0.0,0.0,-0.0,-0.1818,-0.3671,-0.5419,-0.5825,-0.7323,-0.9698,-0.916,-0.8769,-0.8629,-0.846,-0.788,-0.6759,-0.3528,-0.1598,-0.0064,0.4728,0.7254,0.843,0.9907,1.0996,1.1384,0.9693,0.8531,0.6962,0.1793,-0.1841,-0.3418,0.0,0.0,0.0,1.0128,1.1306,1.2169,1.3375,1.2725,1.1625,1.0822,1.0187,0.9562,0.8903,0.8752,0.8321,0.6804,0.4569,0.1827,-0.1717,-0.5978,-0.9838,-1.2704,-1.4628,-1.6154,-1.7381,-1.7649,-1.7885,-1.8208,-1.8698,-1.9018,-1.9018,-1.9398,-1.9609,-1.9623,-1.9738,-1.9802,-1.9802,-1.9813,-2.0217,-2.1004,-2.2395,-2.306,-2.2997,-2.3145,-2.3189,-2.3165,-2.2588,-2.231,-2.2321,-2.2599,-2.2898,-2.3189,-2.3189,-2.3392,-2.3692,-2.3692,-2.375,-2.3919,-2.499,-2.5031,-2.4657,0.0,0.0,0.0,0.0,0.0,0.0,0.0,0.0,0.0,0.0,0.0,0.0,0.0,-0.5386,-0.5379,-0.5369,-0.5376,-0.5382,-0.5396,-0.4175,-0.2444,-0.0135,0.0,0.0,0.0,0.0,0.0,-0.0,-0.0671,-0.246,-0.5416,-0.5525,-0.6501,-0.8042,-0.8878,-0.9473,-0.9834,-0.9018,-0.8079,-0.6776,-0.3306,-0.0523,0.2023,0.6423,0.9273,1.0961,1.1819,1.232,1.2373,1.1195,0.9304,0.6713,0.2512,-0.1401,-0.3593,0.1013,0.4873,0.7864,0.9106,1.0898,1.2531,1.3004,1.2764,1.2376,1.2122,1.0889,0.971,0.951,0.8732,0.7777,0.6804,0.5625,0.3425,-0.0796,-0.4943,-0.8491,-1.1034,-1.3552,-1.543,-1.6195,-1.7039,-1.7658,-1.7871,-1.8395,-1.8807,-1.9002,-1.9261,-1.9452,-1.9582,-1.9649,-1.9669,-1.9669,-1.9762,-2.0126,-2.0853,-2.2337,-2.305,-2.2997,-2.3145,-2.3189,-2.3165,-2.2588,-2.231,-2.231,-2.2398,-2.2517,-2.2624,-2.2624,-2.2781,-2.3069,-2.3069,-2.3189,-2.3427,-2.3827,-2.3843,-2.3744,0.0,0.0,0.0,0.0,0.0,0.0,0.0,0.0,0.0,-0.5135,0.0,0.0,0.0,0.0,-0.5372,-0.5369,-0.5376,-0.5386,-0.5396,-0.5384,-0.3769,-0.0134,0.0,0.0,0.0,0.0,0.0,0.0,0.0,-0.1555,-0.4494,-0.5092,-0.6194,-0.7561,-0.868,-0.9638,-1.0266,-0.9163,-0.7825,-0.6202,-0.2375,0.0986,0.4127,0.8016,1.1045,1.3269,1.3778,1.433,1.4538,1.3022,1.054,0.7557,0.4054,-0.0,-0.2771,0.0837,0.4646,0.7764,0.8502,1.0537,1.258,1.3014,1.2986,1.2851,1.2822,1.1598,1.0415,1.0167,0.9235,0.8078,0.7106,0.6509,0.4721,0.0493,-0.3987,-0.7578,-0.9634,-1.2508,-1.4765,-1.5589,-1.6876,-1.7784,-1.7988,-1.8508,-1.8955,-1.9218,-1.9212,-1.9292,-1.9485,-1.9499,-1.9499,-1.9499,-1.9852,-2.0392,-2.113,-2.2388,-2.307,-2.3231,-2.3227,-2.3141,-2.3021,-2.2517,-2.231,-2.231,-2.231,-2.231,-2.231,-2.231,-2.2463,-2.2695,-2.2695,-2.2848,-2.3045,-2.3165,-2.3063,-2.2977,0.0,0.0,0.0,0.0,0.0,0.0,0.0,0.0,-0.3286,-0.5135,0.0,0.0,0.0,0.0,0.0,-0.5376,-0.5389,-0.5326,-0.5326,-0.5389,-0.3825,-0.0335,-0.0067,0.0,0.0,0.0,0.0,0.0,0.0,-0.0937,-0.2746,-0.4551,-0.647,-0.8353,-0.8508,-0.9023,-0.9771,-0.8853,-0.7245,-0.4993,-0.0519,0.3172,0.6398,0.9736,1.2757,1.53,1.584,1.7011,1.798,1.5042,1.2347,0.9706,0.6343,0.2241,-0.1219,-0.0221,0.3653,0.7759,0.0,0.0,0.0,1.3426,1.3324,1.291,1.2841,1.2288,1.1616,1.0965,1.0269,0.9325,0.787,0.7047,0.5525,0.2161,-0.2948,-0.695,-0.8473,-1.1407,-1.4044,-1.5629,-1.715,-1.8191,-1.8562,-1.9043,-1.9439,-1.9712,-1.9308,-1.9104,-1.9326,-1.9308,-1.9305,-1.9305,-2.0063,-2.0906,-2.1785,-2.2575,-2.3212,-2.3692,-2.3346,-2.3021,-2.2695,-2.2426,-2.231,-2.231,-2.231,-2.231,-2.231,-2.231,-2.2436,-2.2695,-2.2695,-2.2695,-2.2721,-2.3045,-2.2798,-2.2349,0.0,0.0,0.0,0.0,0.0,0.5399,0.5399,0.1934,-0.1866,0.0,0.0,0.0,-0.6611,-0.6635,-0.6285,-0.5442,-0.4625,-0.4087,-0.4087,-0.4882,-0.4944,-0.3961,-0.1381,0.0,0.0,0.0,0.0,0.0,0.0,-0.094,-0.2744,-0.454,-0.6033,-0.7193,-0.7185,-0.774,-0.8546,-0.8969,-0.6539,-0.1981,0.2935,0.725,1.0969,1.2246,1.4105,1.6048,1.6228,1.7245,1.8178,1.578,1.3682,1.0989,0.4693,0.2022,0.1214,0.153,0.4456,0.787,0.9148,0.0,0.0,0.0,0.0,0.0,1.3437,1.2638,1.1616,1.0965,1.0269,0.934,0.7913,0.7391,0.6406,0.4036,0.0109,-0.38,-0.7272,-0.9903,-1.2146,-1.3928,-1.5903,-1.7388,-1.8145,-1.9088,-1.9893,0.0,-2.0095,-1.9902,-2.0154,-1.962,-1.9305,-1.9305,-1.9931,-2.0662,-2.1442,-2.2042,-2.2686,-2.3346,-2.2996,-2.2797,-2.2695,-2.2426,-2.231,-2.231,-2.231,-2.231,-2.231,-2.231,-2.2349,-2.2398,-2.2398,-2.2398,-2.2426,-2.2508,-2.2443,-2.231,0.0,0.0,0.0,0.0,0.0,0.5538,0.5406,0.2356,-0.1212,0.0,0.0,0.0,-0.7047,-0.6765,-0.6207,-0.5447,-0.4785,-0.4359,-0.4353,-0.5029,-0.5429,-0.5386,-0.3368,-0.1515,-0.0,0.0,0.0,0.0,0.0,-0.0538,-0.1606,-0.4167,-0.5638,-0.6187,-0.6911,-0.7307,-0.7442,-0.707,-0.4517,-0.0203,0.4803,0.9156,1.2871,1.4016,1.6088,1.8303,1.8079,1.9156,2.0303,1.795,1.5086,1.1483,0.5238,0.3618,0.3784,0.2633,0.4852,0.787,0.903,1.0527,1.1904,1.2297,0.0,0.0,1.2957,1.2609,1.2138,1.1742,1.1124,1.0195,0.879,0.8224,0.732,0.5374,0.2632,-0.0869,-0.5449,-0.8501,-1.0861,-1.2533,-1.4905,-1.6896,-1.8157,-1.919,-2.0159,-2.108,-2.0573,-2.0212,-2.0174,-1.9722,-1.9341,-1.9016,-1.9345,-2.0043,-2.1115,-2.1455,-2.2064,-2.2996,-2.2797,-2.2634,-2.2527,-2.236,-2.231,-2.2282,-2.2106,-2.2003,-2.2003,-2.2003,-2.2106,-2.231,-2.231,-2.231,-2.231,-2.231,-2.231,-2.231,0.0,0.0,-0.3224,0.1805,0.439,0.5693,0.5487,0.245,-0.1164,0.0,-0.5751,-0.6309,-0.7082,-0.6485,-0.5902,-0.5483,-0.5383,-0.5389,-0.5379,-0.5512,-0.5575,-0.5575,-0.5439,-0.3882,-0.0669,-0.0201,0.0,0.0,0.0,0.0,-0.0067,-0.3489,-0.5236,-0.5463,-0.7042,-0.7312,-0.6453,-0.454,-0.2116,0.0873,0.5914,0.9752,1.2836,1.5198,1.8129,2.0832,2.0391,2.1564,2.291,2.0348,1.6202,1.147,0.7139,0.6122,0.6046,0.3369,0.4845,0.76,0.8476,1.0089,1.1616,1.1665,1.2197,0.0,1.1823,1.2197,1.2676,1.2569,1.2039,1.1149,0.9849,0.9089,0.8112,0.6386,0.4576,0.1634,-0.3425,-0.6938,-0.967,-1.1358,-1.4026,-1.6406,-1.8238,-1.9198,-2.0186,-2.1396,-2.0894,-2.0321,-1.9853,-1.982,-1.952,-1.8868,-1.8743,-1.9412,-2.0951,-2.0859,-2.1423,-2.266,-2.266,-2.251,-2.2209,-2.2209,-2.2209,-2.2135,-2.1705,-2.1521,-2.1521,-2.1582,-2.1853,-2.2237,-2.2282,-2.231,-2.231,-2.231,-2.231,-2.231,-0.5406,-0.3086,-0.0267,0.2274,0.4247,0.5557,0.5677,0.2477,-0.1349,-0.5211,-0.7274,-0.7834,-0.6419,-0.7436,-0.7478,-0.5811,-0.5464,-0.5379,-0.5379,-0.6246,-0.6696,-0.6465,-0.58,-0.5064,-0.4392,-0.1468,0.0,0.0,0.0,0.0,-0.0067,-0.2209,-0.402,-0.5435,-0.5756,-0.5818,-0.562,-0.5226,-0.2248,0.2621,0.828,1.1204,1.2565,1.5677,1.7822,1.9189,1.9728,2.0514,2.1022,1.872,1.5404,1.169,0.8378,0.7254,0.6634,0.3852,0.4573,0.6597,0.8317,0.9488,1.0312,1.0864,1.1116,0.0,1.1015,1.1124,1.1074,1.0525,1.0269,0.9961,0.9145,0.8896,0.8474,0.7509,0.5541,0.245,-0.2462,-0.4398,-0.6702,-1.0448,-1.2679,-1.4963,-1.7669,-1.8979,-2.0137,-2.1416,-2.1309,-2.1033,-2.0608,-2.0594,-2.0523,-2.0382,-1.9594,-1.9881,-2.1368,-2.058,-2.0926,-2.2388,-2.2388,-2.213,-2.1718,-2.1718,-2.1568,-2.126,-2.115,-2.1118,-2.115,-2.146,-2.1658,-2.1764,-2.2135,-2.231,-2.231,-2.231,-2.231,-2.231,-0.543,-0.1761,0.1903,0.3699,0.4898,0.5616,0.5614,0.2498,-0.1297,-0.5256,-0.7718,-0.8739,-0.7642,-0.8322,-0.8519,-0.7906,-0.6324,-0.5173,-0.4558,-0.6164,-0.6959,-0.6719,-0.6711,-0.6314,-0.5394,-0.3593,-0.2268,-0.1338,-0.047,0.0,-0.0067,-0.1873,-0.3595,-0.515,-0.5789,-0.5771,-0.5192,-0.3904,-0.125,0.262,0.7596,1.0843,1.2835,1.5241,1.7222,1.8689,1.9465,2.0039,2.0205,1.9044,1.6563,1.3575,1.1472,0.9021,0.6243,0.2772,0.2995,0.4772,0.6632,0.8168,0.9451,1.0108,1.0297,0.0,0.0,1.0297,1.0281,1.0312,1.0312,1.0115,0.9413,0.8988,0.8402,0.7343,0.6018,0.3627,-0.0824,-0.3113,-0.553,-0.8792,-1.1175,-1.3581,-1.6211,-1.762,-1.9046,-2.0735,-2.1062,-2.0939,-2.0396,-2.0346,-2.0178,-1.9807,-1.9496,-1.979,-2.0689,-2.0383,-2.0811,-2.1957,-2.1751,-2.1645,-2.1582,-2.1399,-2.1181,-2.1007,-2.0764,-2.0649,-2.0665,-2.0878,-2.0959,-2.1039,-2.1945,-2.2163,-2.1974,-2.2209,-2.231,-2.231,-0.5494,-0.1236,0.3113,0.5078,0.5284,0.504,0.4451,0.1561,-0.193,-0.5842,-0.8365,-0.981,-0.959,-0.9763,-0.9893,-0.9846,-0.6911,-0.4998,-0.4984,-0.6738,-0.7587,-0.7307,-0.8055,-0.7723,-0.6055,-0.5636,-0.4668,-0.3213,-0.1741,-0.067,-0.0,-0.1472,-0.3181,-0.5026,-0.5959,-0.594,-0.5,-0.2223,0.0131,0.2435,0.6505,1.0008,1.2915,1.4486,1.6392,1.8265,1.8955,1.9321,1.9464,1.9282,1.7409,1.4935,1.3792,0.9939,0.5027,0.1171,0.131,0.3073,0.4502,0.6807,0.8903,0.9295,0.9363,0.9341,0.0,0.0,0.0,0.9872,0.9982,0.9828,0.928,0.8803,0.8072,0.6918,0.6346,0.4707,0.0875,-0.206,-0.4717,-0.7323,-0.9743,-1.2177,-1.4583,-1.62,-1.7924,-1.9797,-2.032,-2.0349,-1.983,-1.9894,-1.9703,-1.9102,-1.9341,-1.9673,-2.0113,-2.0286,-2.0741,-2.1491,-2.115,-2.1118,-2.1321,-2.1007,-2.0829,-2.0731,-2.0364,-2.0177,-2.0177,-2.028,-2.0246,-2.0314,-2.1554,-2.1811,-2.1521,-2.1915,-2.2049,-2.2049,-0.5457,-0.1952,0.2415,0.4937,0.4095,0.2473,0.0866,-0.1723,-0.4654,-0.7832,-1.0809,-1.2244,-1.1246,-1.2865,-1.2743,-0.9589,-0.5915,-0.5528,-0.9531,-0.9983,-0.9888,-0.9438,-0.9912,-0.9537,-0.8169,-0.6342,-0.5276,-0.5106,-0.4855,-0.3159,-0.0,-0.0201,-0.214,-0.5369,-0.5299,-0.5296,-0.515,-0.1661,0.1187,0.3598,0.7219,0.9958,1.1997,1.3621,1.5303,1.6802,1.7193,1.744,1.7593,1.7398,1.5603,1.3266,1.2133,0.7835,0.2675,-0.0179,0.0522,0.2422,0.3018,0.595,0.8678,0.8062,0.7931,0.7925,0.7931,0.0,0.6956,0.7058,0.0,0.7063,0.6961,0.0,0.0,0.7344,0.6877,0.5354,0.1956,-0.0262,-0.3064,-0.7131,-0.8726,-1.0612,-1.3506,-1.5819,-1.7665,-1.889,-1.9001,-1.9163,-1.9436,-1.9897,-2.0133,-2.0055,-1.9909,-2.0191,-2.0879,-2.0271,-2.035,-2.1055,-2.1023,-2.0829,-2.0449,-2.0416,-2.0193,-1.9854,-1.9782,-1.9782,-1.9782,-2.0158,-2.0089,-1.9839,-2.0797,-2.1134,-2.1055,-2.1134,-2.1166,-2.1166,-0.507,-0.2625,0.1516,0.4809,0.3066,0.0595,-0.1259,-0.5755,-0.9017,-0.9282,-1.2359,-1.4344,-1.3825,-1.5067,-1.5342,-1.385,-1.0243,-0.8981,-1.1346,-1.1706,-1.1326,-1.0259,-1.0864,-1.0739,-0.9668,-0.7881,-0.6732,-0.6378,-0.5729,-0.4651,-0.3092,-0.1005,-0.1395,-0.3873,-0.4869,-0.52,-0.4869,-0.1454,0.2378,0.6209,0.7767,0.9599,1.1564,1.2705,1.4185,1.5838,1.6724,1.6667,1.621,0.0,1.4935,1.3327,1.1991,0.8675,0.4576,0.0636,0.017,0.094,0.1153,0.4504,0.7848,0.0,0.0,0.0,0.7543,0.0,0.5542,0.0,0.0,0.0,0.0,0.0,0.0,0.0,0.3262,0.1984,-0.027,-0.2803,-0.4896,-0.6148,-0.7778,-0.9922,-1.2847,-1.4654,-1.5973,-1.6811,-1.7168,-1.7571,-1.8096,-1.8327,-1.8622,-1.8979,-1.9165,-1.9426,-1.9763,-1.9733,-2.002,-2.0583,-2.0379,-2.0261,-2.028,-2.0054,-1.9874,-1.969,-1.969,-1.969,-1.9711,-1.9874,-1.9839,-1.9762,-2.0104,-2.0398,-2.0616,-2.0894,-2.0991,-2.0991,-0.2049,-0.1305,0.0964,0.3509,0.1527,-0.1451,-0.4446,-0.9208,-1.215,-1.1289,-1.3995,-1.618,-1.6544,-1.759,-1.8232,-1.8092,-1.5056,-1.3142,-1.3134,-1.3155,-1.2652,-1.1377,-1.2066,-1.1889,-1.0664,-0.9116,-0.7902,-0.7109,-0.5442,-0.4919,-0.5343,-0.1678,-0.0995,-0.2799,-0.4596,-0.5262,-0.4847,-0.1451,0.3109,0.8007,0.7972,0.9339,1.1488,1.2315,1.369,1.5257,1.5856,1.5589,1.4925,1.4613,1.3776,0.0,1.1177,0.8827,0.5797,0.1813,0.0336,0.0111,0.0713,0.0,0.0,0.0,0.0,0.0,0.0,0.0,0.0,0.0,0.0,0.0,0.0,0.0,0.4505,0.1487,0.0,-0.1609,-0.2577,-0.4665,-0.5892,-0.54,-0.7241,-0.9427,-1.1697,-1.3189,-1.4314,-1.4959,-1.5557,-1.6034,-1.6498,-1.6806,-1.7192,-1.7639,-1.8285,-1.8646,-1.8688,-1.9037,-1.9353,-1.9677,-1.9413,-1.9398,-1.9692,-1.9413,-1.9244,-1.9244,-1.9244,-1.9244,-1.9244,-1.9244,-1.9244,-1.9281,-1.9406,-1.9666,-1.9969,-2.0449,-2.0632,-2.0632,0.4763,0.3064,0.117,0.0335,-0.0862,-0.3701,-0.9872,-1.1668,-1.2829,-1.4342,-1.6158,-1.7784,-1.9023,-2.0915,-2.1721,-2.0878,-1.9183,-1.7415,-1.5585,-1.467,-1.3979,-1.3518,-1.3888,-1.3161,-1.1115,-0.9799,-0.8452,-0.7109,-0.4215,-0.3694,-0.5343,-0.1683,-0.094,-0.2808,-0.4573,-0.5393,-0.5179,-0.1529,0.3109,0.8007,0.7972,0.9463,1.1807,1.2712,1.3932,1.508,1.3981,0.0,0.0,1.2809,1.1604,0.0,0.0,0.0,0.0,0.0,0.0,0.0,0.0,0.0,0.0,0.6761,0.0,0.0,0.0,0.0,0.2286,0.0,0.0,0.0,0.4608,0.456,0.3535,0.0556,-0.2404,0.0,0.0,-0.4214,-0.4573,-0.5404,-0.7393,-0.8951,-0.9649,-1.1608,-1.309,-1.3695,-1.4389,-1.4744,-1.4789,-1.5828,-1.6421,-1.6464,-1.7558,-1.8131,-1.8145,-1.8145,-1.8185,-1.8171,-1.8185,-1.8185,-1.8171,-1.8185,-1.8145,-1.8145,-1.8145,-1.8145,-1.8145,-1.8145,-1.8145,-1.8224,-1.8727,-1.893,-1.9006,-1.9551,-1.9747,-1.9747,-0.2324,-0.1384,-0.1982,-0.6298,-0.5382,-0.5868,-1.118,-1.3325,-1.4897,-1.6272,-1.8466,-2.0353,-2.1449,-2.3262,-2.396,-2.2621,-2.1527,-1.9925,-1.7447,-1.6316,-1.5414,-1.4526,-1.4599,-1.3918,-1.2382,-1.0269,-0.8709,-0.769,-0.3125,-0.1204,-0.1818,-0.0605,-0.0938,-0.2811,-0.4573,-0.5396,-0.5186,-0.153,0.2452,0.6384,0.7757,0.9854,1.22,0.0,1.2556,1.2941,1.2866,1.2359,0.0,1.0951,1.0809,1.0701,0.9106,0.8257,0.74,0.5348,0.5245,0.0,0.0,0.0,0.6766,0.6282,0.0,0.0,0.0,0.0,0.0,0.0,0.0,0.0,0.0,0.2854,0.0892,-0.1113,-0.3186,-0.4467,0.0,-0.4395,-0.4841,-0.6086,-0.6843,-0.7947,-0.9548,-1.0383,-1.1099,-1.1729,-1.1975,-1.2512,-1.3396,-1.3788,-1.4391,-1.5264,-1.6046,-1.6634,-1.697,-1.7368,-1.7747,-1.8106,-1.8106,-1.8106,-1.8106,-1.8106,-1.8106,-1.8106,-1.8106,-1.8106,-1.8106,-1.8106,-1.8106,-1.8145,-1.8302,-1.838,-1.8496,-1.9369,-1.969,-1.969,-0.8748,-0.755,-0.7204,-0.9701,-0.8679,-0.8711,-1.2296,-1.4371,-1.6041,-1.755,-1.9201,-2.0954,-2.2569,-2.4334,-2.4808,-2.3229,-2.3262,-2.1849,-1.8531,-1.7651,-1.6738,-1.5368,-1.5172,-1.4535,-1.3433,-1.0773,-0.8977,-0.8032,-0.2645,0.0668,0.1885,0.0604,-0.0602,-0.1872,-0.4303,-0.5403,-0.5192,-0.1531,0.2046,0.5431,0.7612,0.9911,1.2003,0.0,1.2,1.2419,0.0,1.2007,1.1065,1.0661,1.091,1.1241,1.0061,1.0132,1.0327,0.8791,0.8868,0.9344,0.8566,0.7278,0.0,0.5198,0.4882,0.0,0.3183,0.0,0.0,0.0,0.0,0.0,0.0,0.0447,-0.1898,-0.285,-0.3858,-0.4477,0.0,-0.4519,-0.5011,-0.6426,-0.6588,-0.723,-0.8869,-0.9503,-0.9961,-1.0415,-1.0669,-1.1157,-1.2033,-1.2522,-1.3205,-1.3982,-1.4858,-1.5443,-1.5784,-1.6176,-1.6646,-1.7218,-1.7218,-1.7313,-1.7544,-1.7544,-1.7544,-1.7544,-1.7544,-1.7544,-1.7544,-1.7544,-1.7544,-1.7544,-1.7747,-1.7827,-1.7907,-1.8817,-1.9132,-1.9169,-1.3672,-1.4604,-1.4066,-1.0359,-1.0714,-1.1999,-1.3475,-1.4875,-1.6445,-1.8095,-1.8644,-1.9907,-2.2507,-2.4271,-2.457,-2.2928,-2.4282,-2.3393,-1.9082,-1.8693,-1.7919,-1.6284,-1.5772,-1.5099,-1.4186,-1.1346,-0.9254,-0.793,-0.2633,0.1801,0.5333,0.1877,0.0201,-0.0133,-0.3763,-0.541,-0.5192,-0.1665,0.1827,0.5217,0.7555,0.9642,1.1362,1.1305,1.2201,1.3457,1.2978,1.2344,1.1765,1.1756,1.1778,1.1764,1.1689,1.2378,1.3192,1.3011,1.2163,1.1084,1.0134,0.7704,0.5092,0.3479,0.0,0.0,0.0,0.0,-0.0167,0.0,0.0,0.0,0.0,0.0,-0.4396,-0.4497,-0.4487,-0.4529,-0.4519,-0.457,-0.5117,-0.6529,-0.6745,-0.7063,-0.7723,-0.9026,-0.9814,-0.9814,-1.0415,-1.0762,-1.0762,-1.1953,-1.2686,-1.2725,-1.3946,-1.4628,-1.4606,-1.4652,-1.4971,-1.5543,-1.5588,-1.5908,-1.6479,-1.6479,-1.6522,-1.6522,-1.6522,-1.6522,-1.6522,-1.6522,-1.6522,-1.6552,-1.7076,-1.7271,-1.7353,-1.7907,-1.8106,-1.8185,-1.7752,-1.8097,-1.7388,-1.4784,-1.3499,-1.2969,-1.3357,-1.5014,-1.692,-1.8713,-2.0556,-2.2147,-2.3533,-2.5161,-2.5505,-2.3842,-2.45,-2.3913,-2.1198,-2.0374,-1.9201,-1.7564,-1.7132,-1.5956,-1.378,-1.2224,-1.0079,-0.735,-0.3043,0.1245,0.539,0.4472,0.2586,-0.013,-0.3803,-0.5422,-0.5254,-0.2986,0.1212,0.6391,0.7195,0.9356,1.2044,0.0,1.2013,1.3396,1.2435,1.1625,1.1116,1.158,1.2358,1.3232,1.3936,1.5228,1.6467,1.6253,1.5941,1.46,0.9582,0.7154,0.511,0.1158,-0.0606,-0.1718,0.0,0.0,0.0,0.0,0.0,0.0,0.0,0.0,-0.319,-0.4324,-0.448,-0.4684,-0.5164,-0.5697,-0.6602,-0.7994,-0.9047,-0.9563,-0.928,-1.0056,-1.0364,-0.9814,-0.9961,-1.0064,-1.0064,-1.0609,-1.1034,-1.1316,-1.2769,-1.3479,-1.3301,-1.4215,-1.4789,-1.4926,-1.5365,-1.5676,-1.5864,-1.6293,-1.6522,-1.6522,-1.6522,-1.6522,-1.6522,-1.6522,-1.6522,-1.6522,-1.6637,-1.671,-1.6837,-1.7747,-1.8106,-1.8145,-2.0884,-2.1043,-2.0087,-1.7471,-1.6179,-1.5384,-1.4935,-1.5745,-1.7226,-1.9622,-2.1173,-2.2495,-2.3534,-2.4889,-2.5182,-2.3557,-2.3989,-2.3484,-2.1452,-2.025,-1.9066,-1.7807,-1.7169,-1.6009,-1.4308,-1.2729,-1.0812,-0.8479,-0.4543,-0.0641,0.3228,0.4728,0.4342,0.2233,-0.1401,-0.3008,-0.2962,-0.1977,0.1434,0.6153,0.71,0.8971,0.0,1.0889,1.1817,1.3143,1.2527,1.2039,1.1832,1.2425,1.3418,1.4631,1.5872,1.7614,1.9213,1.9538,1.9059,1.6884,0.9535,0.6369,0.3615,-0.2802,-0.4459,-0.4722,-0.5552,-0.5093,-0.3881,0.0,0.0,0.0,0.0,0.0,0.0,-0.4369,-0.4743,-0.5261,-0.624,-0.7197,-0.8493,-1.0352,-1.1586,-1.2282,-1.2443,-1.1679,-1.0939,-1.0238,-0.9953,-0.9658,-0.9361,-0.9842,-1.0158,-1.0372,-1.1811,-1.2523,-1.2346,-1.3379,-1.4071,-1.4329,-1.4641,-1.496,-1.5231,-1.5555,-1.5876,-1.6095,-1.6095,-1.6238,-1.6522,-1.6522,-1.6522,-1.6522,-1.6522,-1.6522,-1.6552,-1.7188,-1.7394,-1.7422,-2.316,-2.3366,-2.2284,-1.9323,-1.87,-1.8442,-1.779,-1.7208,-1.7909,-2.0692,-2.1522,-2.2328,-2.3509,-2.4462,-2.4476,-2.293,-2.3193,-2.2643,-2.0761,-1.9551,-1.8553,-1.7706,-1.6854,-1.6003,-1.5224,-1.3394,-1.1718,-1.0315,-0.6482,-0.2999,0.0064,0.3431,0.4897,0.4544,0.141,0.0,0.0,0.0,0.1832,0.4889,0.6763,0.8372,0.9695,1.0399,1.1525,1.2774,1.2881,1.2978,1.3104,1.3684,1.4733,1.5979,1.7542,1.947,2.1357,2.2347,2.1567,1.8408,0.9349,0.533,0.1516,-0.7503,-0.8814,-0.7861,-0.7642,-0.6175,-0.4554,-0.3531,-0.3011,-0.2766,0.0,0.0,-0.4695,-0.4739,-0.5273,-0.6196,-0.7765,-0.9134,-1.082,-1.3258,-1.4319,0.0,-1.6222,-1.3878,-1.2009,-1.123,-1.062,-0.9946,-0.9099,0.0,-0.9807,-0.9666,-1.0955,-1.1613,-1.1566,-1.241,-1.3046,-1.3521,-1.3721,-1.405,-1.456,-1.4652,-1.4971,-1.5499,-1.5499,-1.5776,-1.625,-1.6337,-1.6423,-1.6522,-1.6522,-1.6522,-1.6522,-1.6522,-1.6522,-1.6552,-2.3811,-2.4313,-2.3923,-2.1663,-2.0446,-2.0159,-2.1506,-2.0607,-2.0312,-2.158,-2.3709,-2.5444,-2.6367,-2.608,-2.5266,-2.4013,-2.3525,-2.271,-2.1312,-2.0633,-1.9956,-1.9195,-1.8655,-1.7607,-1.5938,-1.5389,-1.3821,-1.1082,-0.7818,-0.4828,-0.2083,0.1526,0.237,0.0942,0.0264,0.0,0.0,0.0,0.1024,0.2855,0.4629,0.6926,0.9336,0.9747,1.0772,1.208,1.2666,1.3238,1.3732,1.4329,1.5572,1.7167,1.8648,2.0432,2.2175,2.3136,2.2918,1.9665,0.7121,0.3618,0.0708,-1.1149,-1.2674,-1.087,-0.9388,-0.7743,-0.6224,-0.5123,-0.5373,-0.5825,-0.5825,0.0,0.0,0.0,0.0,0.0,0.0,-1.1868,-1.3723,-1.6036,-1.7409,-1.826,-1.8447,-1.6662,-1.501,-1.3939,-1.3289,-1.2175,-1.0468,0.0,-0.9838,0.0,-1.0235,0.0,0.0,0.0,-1.2319,-1.215,-1.3283,-1.3862,-1.3956,-1.4468,-1.4755,-1.488,-1.488,-1.4926,-1.5062,-1.5543,-1.6051,-1.6522,-1.6522,-1.6522,-1.6522,-1.6522,-1.6522,-1.6522,-2.5478,-2.5962,-2.5422,-2.2589,-2.2233,-2.2138,0.0,-2.2386,-2.318,-2.3477,-2.5049,-2.6047,-2.5775,-2.5135,-2.4343,-2.3384,-2.2434,-2.165,-2.1069,-2.0429,-1.9922,-1.9586,-1.9093,-1.8275,-1.6995,-1.6398,-1.4749,-1.1917,-0.9799,-0.7017,-0.3737,-0.0313,0.0834,0.0,0.0,0.0,0.0,0.0,0.0,0.1278,0.3656,0.5524,0.6949,0.858,1.0046,1.1431,1.2453,1.3437,1.4329,1.4606,1.5407,1.6629,1.8517,2.0224,2.1771,2.2745,2.2247,1.8546,0.5423,0.1884,-0.1198,-1.4141,-1.5147,-1.2675,-1.1659,-0.9828,-0.812,-0.7289,-0.7074,-0.706,-0.7289,-0.7054,0.0,0.0,0.0,0.0,0.0,0.0,-1.6374,-1.8698,-1.9756,-2.032,-2.0368,-1.9371,-1.789,-1.586,-1.4606,-1.3103,-1.1219,0.0,-0.9749,0.0,0.0,0.0,-1.0268,0.0,0.0,-1.1559,-1.2004,-1.2239,-1.2297,-1.2918,-1.3406,-1.3737,-1.4086,-1.4422,-1.4698,-1.5017,-1.5287,-1.5567,-1.5567,-1.5744,-1.6051,-1.6051,-1.6238,-1.6522,-2.6891,-2.7018,-2.6106,-2.3617,-2.3722,-2.3675,-2.2049,-2.4056,-2.5664,-2.5458,-2.6075,-2.6201,-2.536,-2.4321,-2.3443,-2.2783,-2.1484,-2.0753,-2.0835,-2.0135,-1.9767,-1.9884,-1.9489,-1.8943,-1.819,-1.7478,-1.5801,0.0,0.0,0.0,0.0,-0.2413,-0.0645,0.0,0.0,0.0,0.0,0.0,-0.0176,-0.0231,0.2469,0.3805,0.4419,0.686,0.8729,1.0277,1.1963,1.3092,1.3903,1.4215,1.5005,1.6188,1.7915,1.952,2.0931,2.1712,2.0716,1.6623,0.4186,0.0312,-0.3292,-1.6041,-1.6677,-1.404,-1.3664,-1.1762,-0.99,-0.9216,-0.8453,-0.7957,-0.8203,-0.7889,0.0,0.0,0.0,0.0,0.0,0.0,-1.8173,-2.0495,-2.1222,-2.1483,-2.1425,-2.1149,-2.0045,-1.7727,-1.5915,-1.4138,-1.2254,-1.1007,-1.0023,0.0,0.0,-1.0268,-1.0515,0.0,-1.11,-1.11,-1.0892,-1.0813,-1.0813,-1.1516,-1.2101,-1.2628,-1.3294,-1.3967,-1.4514,-1.4514,-1.456,-1.4698,-1.4698,-1.5005,-1.541,-1.541,-1.5776,-1.6293,-2.7114,-2.5967,-2.512,-2.5873,-2.4695,-2.4082,-2.5468,-2.6448,-2.6868,-2.6535,-2.68,-2.7303,-2.8066,-2.5828,-2.4094,-2.3551,-2.1794,-2.085,-2.1245,-2.0608,-2.0429,-2.0862,-2.0813,-2.0385,-1.9432,-1.9339,-1.804,0.0,0.0,-1.1599,0.0,-0.5453,-0.2847,0.0,0.0,0.0,0.0,0.0,-0.0751,-0.1849,-0.0223,0.1496,0.3185,0.4429,0.6061,0.8041,1.0661,1.1429,1.1338,1.2551,1.4824,1.7149,1.7249,1.8547,2.0106,2.0111,1.8718,1.4667,0.3547,-0.0858,-0.4952,-1.5856,-1.7091,-1.5417,-1.4727,-1.3026,-1.1286,-1.0264,-0.9734,-0.9423,-0.9114,-0.8274,-0.7853,0.0,0.0,0.0,0.0,0.0,-1.8208,-2.0431,-2.1189,-2.1297,-2.0829,-2.0927,-2.0699,-2.0016,-1.8389,-1.6522,-1.4327,-1.279,-1.145,-1.0253,-0.989,-0.9768,-0.9795,-1.0202,-1.0415,-1.0415,-1.0685,-1.0813,-1.0813,-1.1516,-1.1814,-1.1913,-1.2647,-1.3334,-1.3862,-1.3862,-1.419,-1.4698,-1.4698,-1.4744,-1.4789,-1.4789,-1.5186,-1.5676,0.0,0.0,0.0,0.0,0.0,0.0,0.0,-2.5825,-2.6491,-2.5972,-2.6747,-2.725,-2.6788,-2.4726,-2.3277,-2.3083,-2.1246,-2.0449,-2.1234,-2.0942,-2.091,-2.1337,-2.1368,-2.107,-2.0452,-1.9904,-1.8774,0.0,0.0,0.0,0.0,0.0,0.0,0.0,0.0,-0.1025,-0.271,-0.2715,-0.2493,-0.2174,-0.1883,-0.1267,-0.0437,0.0702,0.1868,0.3224,0.5555,0.7273,0.8591,0.9276,1.2054,1.5306,1.5936,1.6846,1.773,1.8007,1.6454,1.2608,0.3501,-0.0979,-0.5371,-1.485,-1.655,-1.5889,-1.5795,-1.4421,-1.2946,-1.2229,-1.1439,-1.0822,-1.0505,-0.8685,-0.6951,0.0,0.0,0.0,0.0,0.0,-1.5054,-1.8912,-2.0058,-2.0398,-1.9965,-1.9993,-2.017,-2.04,-1.9103,-1.7624,-1.6078,-1.411,0.0,-1.1608,0.0,-1.0161,-0.994,-0.9935,-0.9855,-0.9666,-0.9616,-0.9614,-0.9614,-1.0312,-1.1065,-1.1814,-1.2559,-1.3065,-1.3238,-1.3238,-1.3382,-1.361,-1.361,-1.3836,-1.4143,-1.4143,-1.456,-1.5096,-2.6065,0.0,-2.699,0.0,-2.6441,-2.6475,-2.5052,-2.5342,-2.5713,-2.5491,-2.6183,-2.6369,-2.5395,-2.3823,-2.2858,-2.2909,-2.1273,-2.0722,-2.1925,-2.1712,-2.1596,-2.1811,-2.1794,0.0,-2.1181,-2.0536,-1.9632,-1.8474,-1.7545,0.0,0.0,0.0,0.0,0.0,0.0,-0.2151,-0.5764,-0.575,-0.4986,-0.3721,-0.392,-0.4235,-0.4555,-0.4117,-0.3197,-0.1936,-0.0154,0.2241,0.4657,0.5263,0.8128,1.1718,1.3733,1.4966,1.566,1.5892,1.4458,1.1135,0.3643,-0.1033,-0.5607,-1.3264,-1.5284,-1.5434,-1.5698,-1.4658,-1.3391,-1.2605,-1.1923,-1.1357,-1.095,-0.8226,-0.5138,-0.2395,0.0,0.0,0.0,-0.7983,0.0,-1.6021,-1.8339,-1.9502,-1.9286,-1.925,-1.9472,-1.9975,-1.919,-1.83,-1.7406,0.0,0.0,0.0,0.0,0.0,-1.0463,-0.9856,-0.9446,-0.9183,-0.8945,-0.8804,-0.8804,-0.971,-1.0712,-1.1814,-1.2559,-1.2881,-1.2881,-1.2881,-1.2881,-1.2881,-1.2881,-1.3152,-1.3552,-1.3552,-1.392,-1.4514,-2.6987,-2.701,-2.7155,-2.8142,-2.7097,-2.6426,-2.7349,-2.5801,-2.4805,-2.5506,-2.5061,-2.4594,-2.4513,-2.3729,-2.3267,-2.3398,-2.2232,-2.2109,-2.3588,-2.3061,-2.2554,0.0,0.0,-2.2061,-2.1582,-2.1582,-2.0943,-1.957,0.0,0.0,-1.415,0.0,-0.2911,0.0,0.0,-0.3273,-0.876,-0.876,-0.8202,-0.729,-0.6781,-0.7376,-0.8771,-1.0143,-0.913,-0.69,-0.585,-0.357,-0.0769,0.0667,0.3203,0.6391,1.0491,1.3034,1.4417,1.3896,1.2939,1.0538,0.388,-0.1158,-0.5823,-1.1063,-1.3128,-1.3943,-1.4026,-1.3256,-1.21,-1.0656,-1.0636,-1.0709,-0.9939,-0.6616,-0.2216,0.296,0.0,0.0,0.0,-0.3962,0.0,-1.159,-1.6035,-1.893,-1.8893,-1.8893,-1.8893,-1.8907,0.0,0.0,0.0,0.0,0.0,-1.3845,-1.2388,0.0,-1.1271,-0.9917,-0.919,-0.9183,-0.8945,-0.8804,-0.8857,-1.0167,-1.1166,-1.1814,-1.2559,-1.2881,-1.2881,-1.2881,-1.2881,-1.2881,-1.2881,-1.2881,-1.2929,-1.2929,-1.3286,-1.3815,-2.4861,-2.5137,-2.5535,-2.6741,-2.6584,-2.6535,-2.7261,-2.6083,-2.5016,-2.482,-2.4467,-2.3943,-2.3103,-2.2752,-2.2729,0.0,-2.2382,-2.2194,0.0,-2.2798,-2.2571,-2.2316,-2.231,-2.2077,-2.1628,-2.1582,-2.1259,-2.0567,0.0,0.0,0.0,-1.1741,-0.913,-0.7262,-1.0004,-1.1294,-1.1268,-1.0729,-0.9903,-0.8871,-0.875,-0.8985,-0.9481,-1.0415,-1.0293,-0.9526,-0.8673,-0.8287,-0.7677,-0.4438,-0.2364,-0.0365,0.4195,0.8758,1.2153,1.0722,1.0035,0.8558,0.314,-0.0516,-0.3976,-0.872,-1.0926,-1.2122,-1.2877,-1.2807,-1.2311,-1.1486,-1.0525,-0.9409,-0.8132,-0.3929,0.0865,0.5363,0.8037,0.0,0.7551,0.0,-0.3984,-0.8631,-1.4565,-1.8426,-1.8783,-1.8503,-1.8448,-1.8789,0.0,0.0,0.0,0.0,0.0,0.0,-1.3654,0.0,-1.1057,-1.0022,-0.9339,-0.8945,-0.8851,-0.8804,-0.8804,-0.971,-1.0466,-1.1166,-1.1832,-1.2452,-1.2881,-1.2881,-1.2881,-1.2881,-1.2881,-1.2881,-1.2881,-1.2881,-1.3017,-1.3238,-2.3301,-2.4267,-2.5212,-2.577,-2.6306,-2.6786,-2.7155,-2.6141,-2.5174,-2.4775,-2.4569,-2.4084,-2.2932,-2.2837,0.0,-2.2873,-2.2556,-2.2491,-2.2872,-2.2934,-2.2739,-2.2316,-2.231,-2.2163,-2.1869,-2.1853,0.0,-2.1213,-2.0861,-1.9501,-1.7235,-1.5964,-1.486,-1.3983,-1.65,-1.6329,-1.4118,-1.3627,-1.2484,-1.1057,-1.1118,-1.103,-1.0898,-1.1382,-1.1566,-1.1534,-1.109,-1.1217,-1.1184,-0.8384,-0.701,-0.5793,-0.1463,0.259,0.6278,0.8763,0.9879,0.9131,0.401,-0.0,-0.3541,-0.6888,-0.8865,-1.0294,-1.1394,-1.1692,-1.1538,-1.1033,-1.0234,-0.8684,-0.5571,-0.0972,0.4008,0.9202,1.2279,1.3432,1.1864,0.0,-0.0583,0.0,0.0,0.0,0.0,-1.8009,-1.7745,0.0,0.0,0.0,0.0,0.0,0.0,-1.556,-1.4297,0.0,-1.1154,-1.0066,-0.9279,-0.8804,-0.8804,-0.8804,-0.8804,-0.951,-1.0012,-1.0466,-1.1416,-1.208,-1.2501,-1.2774,-1.2881,-1.2881,-1.2881,-1.2881,-1.2881,-1.2881,-1.2881,-1.2978,-2.2362,-2.4302,-2.5786,0.0,-2.6249,0.0,-2.716,-2.6129,-2.5325,-2.5239,-2.5191,-2.479,-2.3786,-2.3654,-2.339,-2.2729,0.0,0.0,0.0,-2.3359,-2.3071,-2.2344,-2.231,-2.231,-2.231,-2.231,-2.2077,-2.1658,-2.0782,-2.0371,-2.0371,-1.9942,-1.9723,-1.9641,-1.958,-1.8656,-1.7146,-1.7076,-1.5813,-1.3833,-1.3718,-1.3408,-1.3004,-1.2918,-1.2909,-1.2978,-1.2929,-1.2452,-1.1756,-1.1106,-1.0645,-0.9724,-0.6425,-0.4777,-0.2172,0.7244,1.0993,1.0955,0.5444,0.005,-0.4327,-0.5519,-0.7075,-0.859,-0.9707,-1.0037,-0.9992,-0.9549,-0.9716,-0.8284,-0.277,0.1866,0.6994,1.3663,1.5129,1.5274,1.471,0.7813,0.1274,0.0,0.0,0.0,0.0,-1.7518,-1.6944,0.0,0.0,0.0,0.0,0.0,-1.7641,-1.5378,-1.4348,-1.3069,-1.1464,-0.9871,-0.9037,-0.8804,-0.8857,-0.8857,-0.8804,-0.951,-0.9814,-0.9865,-1.1116,-1.1715,-1.1864,-1.2559,-1.2832,-1.2881,-1.2881,-1.2881,-1.2881,-1.2881,-1.2881,-1.2881,0.0,0.0,-2.4388,-2.5741,-2.6338,-2.6978,-2.793,-2.7281,-2.6415,-2.5807,-2.5261,-2.4472,-2.3368,-2.3045,-2.2801,-2.2433,-2.2908,-2.3051,-2.2598,-2.3088,-2.3071,-2.2344,-2.231,-2.231,-2.231,-2.231,-2.2254,-2.2135,-2.1919,-2.1972,-2.227,-2.2304,-2.1906,-2.1101,-2.1087,-2.0525,-1.9535,-1.8823,-1.7984,-1.7087,-1.5919,-1.5219,-1.4778,-1.3867,-1.3579,-1.3552,-1.3065,-1.2774,-1.255,-1.1814,-1.1507,-1.1165,-0.9745,-0.8461,-0.623,0.0351,0.3235,0.3645,0.0503,-0.2401,-0.4593,-0.4909,-0.6186,-0.7511,-0.826,-0.8733,-0.903,-0.8918,-0.8273,-0.6576,-0.2704,0.2217,0.7127,1.148,1.4295,1.5916,1.5819,0.9019,0.2525,0.0,-0.992,-1.5794,-1.7063,-1.7142,-1.6451,0.0,0.0,0.0,0.0,-1.457,-1.54,-1.5282,-1.3878,-1.2361,-1.067,-0.9192,-0.8538,-0.8811,-0.9309,-0.9309,-0.8804,-0.951,-0.9814,-0.9814,-1.0167,-1.0864,-1.1814,-1.1972,-1.2393,-1.2881,-1.2881,-1.2881,-1.2881,-1.2881,-1.2881,-1.2881,-2.33,-2.3782,-2.4447,-2.5456,-2.631,-2.712,-2.7777,-2.7372,-2.6817,-2.6312,-2.5637,-2.4804,-2.3774,-2.3421,-2.3049,-2.2535,-2.2734,-2.2733,-2.2344,-2.2682,-2.2733,-2.2327,-2.231,-2.231,-2.231,-2.2426,-2.2554,-2.2712,-2.2573,-2.2651,-2.3041,-2.3135,-2.2873,-2.2346,-2.2346,-2.1993,-2.1371,-2.0861,-2.0162,-1.931,-1.8284,-1.7223,-1.6126,-1.5295,-1.4481,-1.3779,-1.342,-1.3152,-1.2793,-1.2176,-1.1957,-1.1768,-1.0707,-0.9914,-0.8594,-0.4874,-0.2694,-0.1759,-0.3076,-0.4326,-0.5278,-0.534,-0.6217,-0.7175,-0.7746,-0.8118,-0.8316,-0.8316,-0.7601,-0.5832,-0.1945,0.3401,0.8045,1.0641,1.3728,1.5428,1.4319,0.9476,0.0,-0.0841,-0.8158,-1.3275,-1.4428,-1.4563,-1.4011,-1.2675,-1.2109,0.0,-1.1132,-1.1799,-1.248,-1.3185,-1.2268,-1.0929,-0.9145,-0.8342,-0.8082,-0.8315,-0.9295,-0.9614,-0.9263,-0.9614,-0.9814,-0.9814,-0.9814,-1.0364,-1.1366,-1.1665,-1.2236,-1.2881,-1.2881,-1.2881,-1.2881,-1.2881,-1.2881,-1.2881,-2.3472,-2.4324,-2.5035,-2.5102,-2.6354,-2.7409,-2.7435,-2.7246,-2.7,-2.6746,-2.6135,-2.5314,-2.4318,-2.4007,-2.3563,-2.279,-2.25,-2.2349,-2.231,-2.231,-2.231,-2.231,-2.2349,-2.236,-2.236,-2.2625,-2.2923,-2.3189,-2.2923,-2.2947,-2.3277,-2.3277,-2.3305,-2.3379,-2.3351,-2.3177,-2.288,-2.28,-2.2092,-2.0953,-2.035,-1.9036,-1.741,-1.668,-1.5496,-1.4168,-1.3909,-1.3467,-1.2948,-1.2373,-1.2134,-1.1878,-1.0619,-1.0191,-0.984,-0.8479,-0.7063,-0.5856,-0.5524,-0.5617,-0.5858,-0.6157,-0.6562,-0.7021,-0.7621,-0.7746,-0.7746,-0.7746,-0.7363,-0.5701,-0.1426,0.3969,0.8487,1.0509,1.3057,1.4047,1.1998,0.0,0.5604,-0.0213,-0.5953,-0.9977,-1.1507,-1.1156,-1.0688,-1.0404,-0.9064,-0.8527,-0.9125,-0.9125,-0.9446,-1.005,-1.0075,-0.9143,-0.7287,-0.7433,-0.7616,-0.7723,-0.9235,-0.9917,-0.9814,-1.002,-1.0012,-0.9814,-0.9814,-1.0115,-1.0712,-1.1366,-1.208,-1.2774,-1.2881,-1.2881,-1.2881,-1.2881,-1.2881,-1.2891,-2.4333,-2.4485,-2.4748,-2.546,-2.6833,-2.7872,-2.8031,-2.7986,-2.7651,-2.6967,-2.6189,-2.5222,-2.3923,-2.3764,-2.3465,-2.2764,-2.2643,-2.2537,-2.2293,-2.231,-2.231,-2.231,-2.2527,-2.2634,-2.2634,-2.2947,-2.3141,-2.3189,-2.3141,-2.3282,-2.361,-2.361,-2.3862,-2.4301,-2.4115,-2.4097,-2.4192,-2.3723,-2.3053,-2.219,-2.1059,-2.0064,-1.9001,-1.7137,-1.625,-1.5804,-1.4354,-1.3732,-1.3527,-1.255,-1.1883,-1.1435,-1.0918,-1.0442,-0.9983,-0.9417,-0.9041,-0.8445,-0.6496,-0.5674,-0.5533,-0.6062,-0.627,-0.6477,-0.7021,-0.7147,-0.7147,-0.7147,-0.7074,-0.6112,-0.324,0.1057,0.5688,1.0154,1.12,1.1446,1.1387,0.0,0.5329,0.0499,-0.3427,-0.7106,-1.0615,-0.8978,-0.8069,-0.8923,-0.7253,-0.6425,-0.7058,-0.7063,-0.7139,-0.7242,-0.7712,-0.7301,-0.586,-0.647,-0.7074,-0.7723,-0.9688,-1.0364,-0.9814,-1.0965,-1.0864,-0.9814,-0.9814,-0.9865,-1.002,-1.0661,-1.1366,-1.203,-1.2666,-1.2881,-1.2881,-1.2881,-1.2881,-1.293,-2.5897,-2.5898,-2.5933,-2.6204,-2.6946,-2.7438,-2.7217,-2.7059,-2.6801,-2.632,-2.566,-2.4886,-2.4054,-2.3816,-2.3482,-2.3021,-2.2797,-2.266,-2.2527,-2.2388,-2.231,-2.231,-2.2563,-2.2873,-2.3212,-2.3212,-2.3369,-2.3735,-2.3566,-2.3649,-2.3976,-2.3976,-2.4114,-2.4321,-2.4247,-2.4266,-2.4321,-2.4057,-2.357,-2.2853,-2.2038,-2.1124,-2.0088,-1.8659,-1.7571,-1.6616,-1.556,-1.4619,-1.3663,-1.2703,-1.198,-1.1334,-1.0418,-1.0155,-1.0118,-0.9652,-0.9079,-0.8423,-0.737,-0.6664,-0.6295,-0.6556,-0.6647,-0.6683,-0.6937,-0.6979,-0.6979,-0.6979,-0.6557,-0.5581,-0.3559,0.0098,0.4182,0.83,0.9969,0.0,0.0,0.8397,0.5788,0.2151,-0.0613,-0.3176,-0.5482,-0.4551,-0.4025,-0.4584,-0.3382,-0.2732,-0.3028,-0.3536,-0.3996,-0.4242,-0.5788,-0.6269,-0.5487,-0.6632,-0.7343,-0.7723,-1.0068,-1.0856,-1.0372,-1.1592,-1.1676,-1.0864,-1.0115,-1.0012,-1.0364,-1.0661,-1.1216,-1.1814,-1.2178,-1.2295,-1.2295,-1.2295,-1.2295,-1.24,-2.7352,-2.7317,-2.7233,-2.7017,-2.6895,-2.6638,-2.6179,-2.6077,-2.6013,-2.5922,-2.5217,-2.4591,-2.4247,-2.3976,-2.3692,-2.3346,-2.3069,-2.2898,-2.2822,-2.2616,-2.2508,-2.2508,-2.2781,-2.3212,-2.3795,-2.3566,-2.3692,-2.419,-2.3937,-2.3955,-2.419,-2.419,-2.4228,-2.4284,-2.4228,-2.4228,-2.4284,-2.4209,-2.3876,-2.3282,-2.2793,-2.2006,-2.102,-2.0085,-1.8869,-1.7583,-1.685,-1.5648,-1.4211,-1.2915,-1.2105,-1.1353,-0.9934,-0.9677,-0.9843,-0.9439,-0.8643,-0.787,-0.7746,-0.7363,-0.6979,-0.6979,-0.6979,-0.6979,-0.6979,-0.6979,-0.6956,-0.6894,-0.6236,-0.5335,-0.4028,-0.0706,0.3125,0.7025,0.0,0.0,0.0,0.8487,0.6681,0.4062,0.2417,0.1285,0.0629,0.0557,0.0546,0.0708,0.1098,0.1269,0.1048,0.0332,-0.0777,-0.2174,-0.4405,-0.5572,-0.5487,-0.6794,-0.7509,-0.7723,-1.0151,-1.1137,-1.083,-1.2064,-1.2291,-1.1765,-1.0712,-1.0466,-1.0813,-1.0813,-1.1216,-1.1765,-1.1616,-1.1719,-1.1908,-1.1959,-1.2022,-1.2208,-2.812,-2.7957,-2.7833,-2.7826,-2.6606,-2.5605,-2.557,-2.5925,-2.6264,-2.6499,-2.5367,-2.4426,-2.4228,-2.417,-2.4016,-2.3692,-2.3649,-2.3482,-2.3189,-2.3141,-2.3117,-2.3117,-2.3455,-2.3795,-2.4151,-2.4151,-2.4151,-2.419,-2.417,-2.417,-2.419,-2.419,-2.4303,-2.4461,-2.4284,-2.4303,-2.4461,-2.4266,-2.3996,-2.361,-2.2884,-2.2356,-2.1864,-2.0621,-1.9843,-1.92,-1.7623,-1.6699,-1.5819,-1.3332,-1.2128,-1.1443,-0.9966,-0.9199,-0.8797,-0.8756,-0.8357,-0.7787,-0.7238,-0.7021,-0.6979,-0.6979,-0.6979,-0.6979,-0.6979,-0.6979,-0.6881,-0.6511,-0.6395,-0.62,-0.5696,-0.2227,0.2291,0.7692,0.0,0.0,1.1019,0.9757,0.795,0.5936,0.5936,0.6094,0.6046,0.566,0.555,0.5982,0.5668,0.5058,0.4216,0.4116,0.2109,-0.2063,-0.3752,-0.4864,-0.5487,-0.6308,-0.702,-0.7723,-0.9858,-1.0838,-1.0864,-1.2243,-1.248,-1.1814,-1.1715,-1.1316,-1.0813,-1.0813,-1.1216,-1.1765,-1.1116,-1.1447,-1.2305,-1.24,-1.2635,-1.2996,-2.8492,-2.7815,-2.7091,-2.7091,-2.6194,-2.5326,-2.493,-2.5032,-2.5188,-2.5279,-2.4823,-2.4409,-2.4228,-2.419,-2.4074,-2.3714,-2.3692,-2.3649,-2.3522,-2.3522,-2.3522,-2.3522,-2.3631,-2.3876,-2.419,-2.419,-2.419,-2.419,-2.419,-2.419,-2.419,-2.419,-2.4247,-2.4321,-2.4228,-2.4247,-2.4303,-2.4228,-2.3996,-2.3671,-2.3379,-2.3082,-2.2669,-2.1745,-2.1081,-2.0446,-1.8774,-1.7584,-1.6437,-1.3887,-1.2678,-1.1836,-0.9672,-0.9079,-0.9079,-0.8398,-0.8077,-0.7787,-0.7154,-0.6979,-0.6979,-0.6979,-0.6979,-0.6979,-0.6979,-0.7168,-0.7146,-0.6525,-0.6323,-0.6161,-0.5878,-0.2174,0.2837,0.9011,0.0,1.0468,1.2068,1.1285,1.0162,0.9006,0.7872,0.7231,0.7231,0.6688,0.6381,0.6598,0.6436,0.5991,0.516,0.2934,0.0055,-0.3527,-0.4754,-0.5631,-0.6204,-0.7343,-0.8103,-0.8427,-1.0323,-1.1088,-1.088,-1.2516,-1.2966,-1.2452,-1.1972,-1.1665,-1.1416,-1.1416,-1.1566,-1.1733,-1.1267,-1.1347,-1.1718,-1.2001,-1.2172,-1.2517,-2.8663,-2.8109,-2.7134,-2.6475,-2.6025,-2.5484,-2.4557,-2.4701,-2.4793,-2.4458,-2.4408,-2.4339,-2.4209,-2.419,-2.4094,-2.3876,-2.3876,-2.3876,-2.3876,-2.3876,-2.3876,-2.3876,-2.3876,-2.3958,-2.419,-2.419,-2.4151,-2.4036,-2.4151,-2.4151,-2.4054,-2.4151,-2.419,-2.419,-2.419,-2.419,-2.419,-2.419,-2.3996,-2.3692,-2.3692,-2.3455,-2.2996,-2.2478,-2.1916,-2.1217,-1.9767,-1.8555,-1.7249,-1.4719,-1.3383,-1.2351,-0.9947,-0.911,-0.8797,-0.7904,-0.7489,-0.728,-0.6859,-0.6592,-0.655,-0.6894,-0.7094,-0.7161,-0.7161,-0.7395,-0.74,-0.6537,-0.6388,-0.5972,-0.4676,-0.1349,0.3255,0.9544,1.0812,1.1518,1.2908,1.2522,1.1853,1.1402,0.9702,0.86,0.86,0.7988,0.7581,0.7593,0.7379,0.6843,0.5878,0.243,-0.1055,-0.4383,-0.5411,-0.6105,-0.6588,-0.783,-0.8586,-0.8811,-1.0504,-1.1112,-1.088,-1.2544,-1.3154,-1.2881,-1.2344,-1.2129,-1.2129,-1.1922,-1.1922,-1.2067,-1.1592,-1.1539,-1.1842,-1.2142,-1.2359,-1.2673,-2.8617,-2.8973,-2.8299,-2.6172,-2.6229,-2.6041,-2.4431,-2.5096,-2.5409,-2.4348,-2.421,-2.419,-2.419,-2.419,-2.419,-2.419,-2.419,-2.419,-2.419,-2.419,-2.419,-2.419,-2.419,-2.419,-2.419,-2.4208,-2.4036,-2.3692,-2.4016,-2.4016,-2.3692,-2.4036,-2.4208,-2.4208,-2.419,-2.419,-2.419,-2.4208,-2.3996,-2.3692,-2.3692,-2.33,-2.2695,-2.2695,-2.2224,-2.1475,-2.0555,-1.9602,-1.8403,-1.5773,-1.4244,-1.301,-1.0882,-0.9124,-0.7787,-0.7189,-0.6598,-0.6184,-0.6179,-0.5744,-0.5561,-0.6725,-0.7248,-0.7513,-0.7513,-0.7709,-0.7569,-0.6451,-0.6535,-0.5702,-0.2148,0.0109,0.3294,0.9152,1.099,1.2201,1.3616,1.3215,1.2822,1.2822,1.1648,1.0821,1.0821,1.0163,0.9754,0.9814,0.911,0.8066,0.6663,0.3377,-0.0333,-0.4383,-0.5386,-0.6131,-0.6593,-0.7348,-0.8103,-0.8804,-1.0167,-1.0821,-1.0864,-1.2255,-1.2881,-1.2881,-1.2881,-1.2881,-1.2822,-1.2129,-1.2236,-1.2822,-1.1852,-1.2083,-1.2922,-1.3032,-1.3284,-1.375,-2.7897,-2.6851,-2.5683,-2.5586,-2.501,-2.4411,-2.3917,-2.4317,-2.4561,-2.4248,-2.4191,-2.419,-2.419,-2.419,-2.419,-2.419,-2.419,-2.419,-2.419,-2.419,-2.419,-2.419,-2.419,-2.419,-2.419,-2.3976,-2.3795,-2.3692,-2.3566,-2.3455,-2.3369,-2.3692,-2.3837,-2.3876,-2.4094,-2.419,-2.417,-2.3937,-2.3795,-2.3671,-2.3437,-2.3212,-2.3021,-2.2797,-2.2388,-2.1811,-2.0621,-1.9602,-1.8403,-1.5773,-1.4244,-1.2888,-1.0059,-0.8586,-0.7704,-0.6732,-0.6307,-0.6093,-0.5696,-0.5437,-0.5475,-0.6258,-0.6636,-0.6968,-0.7417,-0.7869,-0.7853,-0.6483,-0.6765,-0.5855,-0.127,0.1149,0.4117,0.9271,1.099,1.2347,1.4168,1.3899,1.3778,1.4468,1.3032,1.1999,1.1999,1.135,1.0817,1.0533,0.8926,0.7522,0.6668,0.3339,0.0057,-0.3127,-0.4468,-0.5739,-0.7097,-0.8187,-0.8788,-0.8811,-0.9894,-1.0548,-1.0813,-1.1724,-1.2403,-1.2881,-1.2881,-1.2881,-1.2881,-1.2666,-1.2715,-1.2822,-1.2292,-1.2414,-1.2922,-1.2922,-1.3229,-1.375,-2.7179,-2.5685,-2.4382,-2.4951,-2.4706,-2.4284,-2.3783,-2.4148,-2.4419,-2.4207,-2.419,-2.419,-2.419,-2.419,-2.419,-2.419,-2.419,-2.419,-2.419,-2.419,-2.419,-2.419,-2.419,-2.419,-2.419,-2.3876,-2.3649,-2.35,-2.33,-2.3117,-2.3021,-2.3346,-2.3566,-2.3714,-2.3917,-2.4074,-2.417,-2.3837,-2.361,-2.3482,-2.3277,-2.3063,-2.2832,-2.2738,-2.2361,-2.1782,-2.0831,-1.9793,-1.8478,-1.6275,-1.4299,-1.234,-0.9787,-0.8626,-0.7946,-0.6605,-0.605,-0.5717,-0.5193,-0.4906,-0.4879,-0.5505,-0.6046,-0.6456,-0.6878,-0.7338,-0.7327,-0.6163,-0.6523,-0.5609,-0.0884,0.2415,0.5515,0.8967,1.0973,1.2705,1.4446,1.4376,1.4457,1.5215,1.3862,1.2935,1.3094,1.2777,1.2114,1.1164,0.909,0.7443,0.6498,0.3454,0.0528,-0.2145,-0.4059,-0.5619,-0.6759,-0.8311,-0.9086,-0.9158,-1.0034,-1.0647,-1.1036,-1.186,-1.2586,-1.3135,-1.3301,-1.313,-1.2767,-1.3026,-1.287,-1.2499,-1.2712,-1.3007,-1.3349,-1.3192,-1.344,-1.3849,-2.6496,-2.5215,-2.4015,-2.4275,-2.4941,-2.5066,-2.3907,-2.4347,-2.4675,-2.4275,-2.4168,-2.4151,-2.4151,-2.417,-2.419,-2.419,-2.419,-2.419,-2.419,-2.419,-2.419,-2.419,-2.417,-2.4151,-2.4151,-2.3816,-2.35,-2.3165,-2.3117,-2.2947,-2.2669,-2.2996,-2.3323,-2.361,-2.3649,-2.3816,-2.4094,-2.3735,-2.3437,-2.3141,-2.3117,-2.2773,-2.2265,-2.252,-2.2141,-2.143,-2.1086,-2.0012,-1.8567,-1.69,-1.4362,-1.1568,-0.9963,-0.9164,-0.8423,-0.6761,-0.5798,-0.5247,-0.4813,-0.4268,-0.3992,-0.4689,-0.5323,-0.5908,-0.6146,-0.647,-0.6475,-0.5651,-0.6082,-0.5242,-0.0828,0.3635,0.7069,0.8469,1.0872,1.304,1.4558,1.4719,1.4873,1.5385,1.4447,1.3821,1.415,1.4107,1.3415,1.1646,0.9679,0.7846,0.6283,0.3812,0.1194,-0.1472,-0.4069,-0.5628,-0.6042,-0.7737,-0.8938,-0.9621,-1.0322,-1.0882,-1.1263,-1.2255,-1.295,-1.3368,-1.3806,-1.3431,-1.2613,-1.3246,-1.2928,-1.2063,-1.3125,-1.3779,-1.398,-1.3652,-1.375,-1.4029,-2.5794,-2.4603,-2.3551,-2.3619,-2.3991,-2.4164,-2.3885,-2.4186,-2.4378,-2.429,-2.4006,-2.3816,-2.3816,-2.4036,-2.419,-2.419,-2.419,-2.419,-2.419,-2.419,-2.419,-2.419,-2.3937,-2.3816,-2.3816,-2.3477,-2.3141,-2.2822,-2.2607,-2.247,-2.2388,-2.2678,-2.2848,-2.2923,-2.3189,-2.3346,-2.3392,-2.3069,-2.2855,-2.2797,-2.2581,-2.2215,-2.1764,-2.182,-2.1336,-2.0567,-2.0483,-1.9763,-1.8512,-1.6064,-1.3951,-1.209,-1.0512,-0.9661,-0.8947,-0.7321,-0.6165,-0.5353,-0.4848,-0.4355,-0.4005,-0.4261,-0.4455,-0.4868,-0.5976,-0.6838,-0.7069,-0.576,-0.6109,-0.5261,-0.0827,0.3635,0.7069,0.8469,1.0124,1.2175,1.4964,1.4934,1.5105,1.6325,1.5849,1.5219,1.4694,1.4336,1.3483,1.1952,1.0837,0.9055,0.6357,0.4996,0.2443,-0.1579,-0.4097,-0.5799,-0.6535,-0.6957,-0.7679,-0.8721,-0.9715,-1.0434,-1.0857,-1.1094,-1.1535,-1.2117,-1.2878,-1.3041,-1.2851,-1.3666,-1.3636,-1.3195,-1.3723,-1.3857,-1.3633,-1.3545,-1.3564,-1.3691,-2.5351,-2.4032,-2.2885,-2.2885,-2.3039,-2.344,-2.4388,-2.3955,-2.3708,-2.4229,-2.3803,-2.3522,-2.3692,-2.3876,-2.4016,-2.419,-2.419,-2.4113,-2.3976,-2.4113,-2.4074,-2.3753,-2.3714,-2.3544,-2.3212,-2.3045,-2.2873,-2.2695,-2.2426,-2.231,-2.231,-2.2436,-2.259,-2.2721,-2.288,-2.3045,-2.3165,-2.2848,-2.2695,-2.2669,-2.2153,-2.1823,-2.1582,-2.1399,-2.0765,-1.9989,-1.9989,-1.8861,-1.7102,-1.5465,-1.4013,-1.2598,-1.1029,-1.0205,-0.9429,-0.7558,-0.6287,-0.5389,-0.4927,-0.4454,-0.4113,-0.4314,-0.4351,-0.4509,-0.5243,-0.6065,-0.6362,-0.5273,-0.5332,-0.4426,-0.0717,0.3635,0.7069,0.8469,1.0132,1.2252,1.5108,1.4942,1.5089,1.6624,1.5944,1.529,1.5115,1.4883,1.4026,1.2354,1.154,0.9876,0.6997,0.5623,0.3075,-0.0844,-0.3855,-0.5645,-0.6075,-0.6461,-0.7196,-0.8231,-0.9246,-1.0154,-1.0916,-1.113,-1.1518,-1.2069,-1.2711,-1.262,-1.2224,-1.2975,-1.2969,-1.2525,-1.3255,-1.3613,-1.3809,-1.3809,-1.3936,-1.415,-2.4938,-2.3519,-2.231,-2.231,-2.2412,-2.309,-2.4813,-2.3908,-2.3319,-2.4226,-2.3731,-2.3372,-2.35,-2.3566,-2.3714,-2.3996,-2.4016,-2.3917,-2.3631,-2.3858,-2.3774,-2.3212,-2.3414,-2.3259,-2.2721,-2.266,-2.2634,-2.2634,-2.2398,-2.231,-2.231,-2.231,-2.2426,-2.2634,-2.2634,-2.2789,-2.3038,-2.2738,-2.2634,-2.2582,-2.1861,-2.1552,-2.1413,-2.0831,-2.0141,-1.9447,-1.9188,-1.7555,-1.5488,-1.5158,-1.4337,-1.316,-1.1664,-1.0845,-1.0016,-0.7975,-0.6514,-0.5557,-0.5202,-0.4675,-0.4314,-0.4433,-0.4519,-0.4519,-0.4519,-0.5003,-0.5328,-0.4625,-0.468,-0.388,-0.0607,0.3635,0.7069,0.8469,1.0319,1.2518,1.5266,1.5121,1.5308,1.6746,1.5742,1.5029,1.5381,1.541,1.4615,1.2823,1.1968,1.0382,0.7741,0.6236,0.3831,0.0398,-0.3411,-0.5386,-0.5432,-0.6141,-0.6981,-0.8027,-0.8787,-0.9819,-1.1015,-1.1406,-1.1752,-1.2115,-1.2575,-1.2285,-1.1473,-1.2319,-1.228,-1.1797,-1.2832,-1.3586,-1.4077,-1.4077,-1.4414,-1.4785,-2.4309,-2.3081,-2.231,-2.231,-2.2835,-2.3541,-2.4462,-2.4411,-2.4326,-2.4441,-2.4081,-2.3571,-2.2892,-2.3093,-2.33,-2.3346,-2.3346,-2.3323,-2.3259,-2.3323,-2.3282,-2.3189,-2.2972,-2.2797,-2.2695,-2.249,-2.2332,-2.2332,-2.2338,-2.231,-2.231,-2.231,-2.2338,-2.2332,-2.2332,-2.236,-2.2415,-2.236,-2.2332,-2.2304,-2.1807,-2.1399,-2.0911,-1.9536,-1.8991,-1.8809,-1.7427,-1.6054,-1.4981,-1.5462,-1.4885,-1.3803,-1.272,-1.1848,-1.0932,-0.929,-0.7516,-0.6111,-0.6035,-0.5263,-0.4491,-0.4512,-0.4519,-0.4519,-0.4519,-0.5003,-0.5328,-0.4625,-0.5483,-0.5018,-0.0772,0.3635,0.7069,0.8469,0.9944,1.2191,1.5792,1.6198,1.6445,1.7366,1.6208,1.5352,1.54,1.541,1.4728,1.3064,1.2142,1.0574,0.804,0.7731,0.5741,0.1664,-0.2943,-0.5389,-0.5376,-0.5495,-0.6404,-0.8027,-0.8353,-0.9254,-1.0683,-1.0724,-1.0787,-1.0871,-1.1633,-1.1866,-1.1828,-1.3339,-1.3696,-1.3361,-1.4213,-1.4353,-1.4077,-1.4077,-1.4414,-1.4785,-2.4113,-2.2992,-2.2315,-2.2299,-2.2581,-2.327,-2.4669,-2.4316,-2.4019,-2.4455,-2.3981,-2.3384,-2.2756,-2.2996,-2.3189,-2.3189,-2.3189,-2.3117,-2.2947,-2.3093,-2.3038,-2.2712,-2.2686,-2.2634,-2.249,-2.236,-2.231,-2.231,-2.231,-2.231,-2.231,-2.231,-2.231,-2.231,-2.231,-2.231,-2.231,-2.231,-2.2135,-2.1869,-2.1446,-2.1007,-2.0438,-1.8921,-1.823,-1.7787,-1.6174,-1.5082,-1.4439,-1.4676,-1.4458,-1.3838,-1.2785,-1.1916,-1.1084,-0.9815,-0.7908,-0.6186,-0.6186,-0.5349,-0.4519,-0.4519,-0.4519,-0.4519,-0.4519,-0.4732,-0.4838,-0.457,-0.5597,-0.5246,-0.0828,0.298,0.6023,0.7799,0.9268,1.1362,1.4697,1.5143,1.5457,1.6244,1.5806,1.541,1.541,1.4991,1.4273,1.307,1.1789,1.0153,0.8086,0.7992,0.6106,0.1933,-0.0935,-0.3379,-0.5573,-0.5573,-0.6211,-0.7519,-0.7605,-0.87,-1.0631,-1.0895,-1.0868,-1.0631,-1.1099,-1.1263,-1.1163,-1.1903,-1.2305,-1.2646,-1.3482,-1.4478,-1.5446,-1.5446,-1.5568,-1.5751]}]]